<?xml version="1.0" encoding="UTF-8" standalone="no" ?>
<gpx xmlns="http://www.topografix.com/GPX/1/1" xmlns:xsi="http://www.w3.org/2001/XMLSchema-instance" xsi:schemaLocation="http://www.topografix.com/GPX/1/1 http://www.topografix.com/GPX/1/1/gpx.xsd" version="1.1" creator="VisuGPX - https://www.visugpx.com">
  <metadata>
    <name>Montségur-sur-Lauzon-26</name>
    <desc><![CDATA[Belle randonnée en boucle au départ de Montségur sur Lauzon sans grande difficulté. Belles vues sur le Ventoux et le parc Régional des Baronnies, Peu de route, chemins et sentiers faciles, sauf en fin de randonnée le passage dans le lit d'un ruisseau. ]]></desc>
  </metadata>
  <trk>
    <name><![CDATA[2021-02-02 15:25:40]]></name>
    <trkseg>
      <trkpt lat="44.36177" lon="4.85814">
        <ele>143.37</ele>
        <time>2021-02-02T07:46:01Z</time>
      </trkpt>
      <trkpt lat="44.36177" lon="4.85814">
        <ele>143.37</ele>
        <time>2021-02-02T07:46:02Z</time>
      </trkpt>
      <trkpt lat="44.36177" lon="4.85812">
        <ele>143.37</ele>
        <time>2021-02-02T07:46:33Z</time>
      </trkpt>
      <trkpt lat="44.36178" lon="4.85813">
        <ele>143.37</ele>
        <time>2021-02-02T07:46:53Z</time>
      </trkpt>
      <trkpt lat="44.3618" lon="4.85811">
        <ele>143.37</ele>
        <time>2021-02-02T07:47:16Z</time>
      </trkpt>
      <trkpt lat="44.36179" lon="4.85812">
        <ele>143.37</ele>
        <time>2021-02-02T07:47:35Z</time>
      </trkpt>
      <trkpt lat="44.36178" lon="4.85813">
        <ele>143.37</ele>
        <time>2021-02-02T07:47:57Z</time>
      </trkpt>
      <trkpt lat="44.36174" lon="4.85801">
        <ele>143.37</ele>
        <time>2021-02-02T07:48:08Z</time>
      </trkpt>
      <trkpt lat="44.36153" lon="4.85785">
        <ele>142.89</ele>
        <time>2021-02-02T07:48:29Z</time>
      </trkpt>
      <trkpt lat="44.36136" lon="4.85772">
        <ele>142.41</ele>
        <time>2021-02-02T07:48:47Z</time>
      </trkpt>
      <trkpt lat="44.3613" lon="4.85767">
        <ele>142.41</ele>
        <time>2021-02-02T07:48:58Z</time>
      </trkpt>
      <trkpt lat="44.36126" lon="4.85762">
        <ele>142.41</ele>
        <time>2021-02-02T07:49:02Z</time>
      </trkpt>
      <trkpt lat="44.36108" lon="4.8575">
        <ele>141.93</ele>
        <time>2021-02-02T07:49:18Z</time>
      </trkpt>
      <trkpt lat="44.36103" lon="4.85746">
        <ele>141.93</ele>
        <time>2021-02-02T07:49:23Z</time>
      </trkpt>
      <trkpt lat="44.36101" lon="4.85745">
        <ele>141.93</ele>
        <time>2021-02-02T07:49:25Z</time>
      </trkpt>
      <trkpt lat="44.36096" lon="4.85742">
        <ele>141.45</ele>
        <time>2021-02-02T07:49:30Z</time>
      </trkpt>
      <trkpt lat="44.36078" lon="4.85727">
        <ele>141.45</ele>
        <time>2021-02-02T07:49:46Z</time>
      </trkpt>
      <trkpt lat="44.36063" lon="4.85714">
        <ele>141.45</ele>
        <time>2021-02-02T07:50:00Z</time>
      </trkpt>
      <trkpt lat="44.36048" lon="4.85691">
        <ele>140.97</ele>
        <time>2021-02-02T07:50:16Z</time>
      </trkpt>
      <trkpt lat="44.36034" lon="4.85684">
        <ele>140.97</ele>
        <time>2021-02-02T07:50:30Z</time>
      </trkpt>
      <trkpt lat="44.36032" lon="4.85682">
        <ele>140.97</ele>
        <time>2021-02-02T07:50:41Z</time>
      </trkpt>
      <trkpt lat="44.36024" lon="4.85651">
        <ele>140.49</ele>
        <time>2021-02-02T07:51:00Z</time>
      </trkpt>
      <trkpt lat="44.36009" lon="4.85619">
        <ele>140.01</ele>
        <time>2021-02-02T07:51:21Z</time>
      </trkpt>
      <trkpt lat="44.35996" lon="4.85591">
        <ele>139.53</ele>
        <time>2021-02-02T07:51:38Z</time>
      </trkpt>
      <trkpt lat="44.35986" lon="4.85569">
        <ele>139.53</ele>
        <time>2021-02-02T07:51:53Z</time>
      </trkpt>
      <trkpt lat="44.35978" lon="4.85542">
        <ele>139.53</ele>
        <time>2021-02-02T07:52:09Z</time>
      </trkpt>
      <trkpt lat="44.35979" lon="4.85501">
        <ele>139.05</ele>
        <time>2021-02-02T07:52:28Z</time>
      </trkpt>
      <trkpt lat="44.35985" lon="4.85465">
        <ele>139.05</ele>
        <time>2021-02-02T07:52:48Z</time>
      </trkpt>
      <trkpt lat="44.35989" lon="4.85438">
        <ele>138.57</ele>
        <time>2021-02-02T07:53:03Z</time>
      </trkpt>
      <trkpt lat="44.35995" lon="4.85403">
        <ele>138.57</ele>
        <time>2021-02-02T07:53:23Z</time>
      </trkpt>
      <trkpt lat="44.36001" lon="4.8537">
        <ele>138.09</ele>
        <time>2021-02-02T07:53:42Z</time>
      </trkpt>
      <trkpt lat="44.36009" lon="4.85332">
        <ele>136.64</ele>
        <time>2021-02-02T07:54:03Z</time>
      </trkpt>
      <trkpt lat="44.36017" lon="4.85286">
        <ele>135.2</ele>
        <time>2021-02-02T07:54:28Z</time>
      </trkpt>
      <trkpt lat="44.36023" lon="4.85249">
        <ele>134.72</ele>
        <time>2021-02-02T07:54:48Z</time>
      </trkpt>
      <trkpt lat="44.3603" lon="4.85215">
        <ele>134.24</ele>
        <time>2021-02-02T07:55:07Z</time>
      </trkpt>
      <trkpt lat="44.36035" lon="4.85197">
        <ele>134.24</ele>
        <time>2021-02-02T07:55:21Z</time>
      </trkpt>
      <trkpt lat="44.36037" lon="4.85171">
        <ele>134.24</ele>
        <time>2021-02-02T07:55:38Z</time>
      </trkpt>
      <trkpt lat="44.3604" lon="4.85169">
        <ele>135.68</ele>
        <time>2021-02-02T07:55:44Z</time>
      </trkpt>
      <trkpt lat="44.36048" lon="4.85175">
        <ele>135.68</ele>
        <time>2021-02-02T07:55:52Z</time>
      </trkpt>
      <trkpt lat="44.3605" lon="4.85203">
        <ele>135.68</ele>
        <time>2021-02-02T07:56:09Z</time>
      </trkpt>
      <trkpt lat="44.36054" lon="4.85235">
        <ele>136.16</ele>
        <time>2021-02-02T07:56:27Z</time>
      </trkpt>
      <trkpt lat="44.36055" lon="4.85239">
        <ele>136.16</ele>
        <time>2021-02-02T07:56:31Z</time>
      </trkpt>
      <trkpt lat="44.36058" lon="4.85251">
        <ele>136.16</ele>
        <time>2021-02-02T07:56:46Z</time>
      </trkpt>
      <trkpt lat="44.36059" lon="4.85261">
        <ele>133.28</ele>
        <time>2021-02-02T07:56:58Z</time>
      </trkpt>
      <trkpt lat="44.36071" lon="4.85269">
        <ele>132.8</ele>
        <time>2021-02-02T07:57:14Z</time>
      </trkpt>
      <trkpt lat="44.36074" lon="4.8527">
        <ele>132.32</ele>
        <time>2021-02-02T07:57:28Z</time>
      </trkpt>
      <trkpt lat="44.3608" lon="4.85274">
        <ele>132.32</ele>
        <time>2021-02-02T07:57:45Z</time>
      </trkpt>
      <trkpt lat="44.3608" lon="4.8527">
        <ele>132.32</ele>
        <time>2021-02-02T07:57:50Z</time>
      </trkpt>
      <trkpt lat="44.36083" lon="4.85267">
        <ele>133.28</ele>
        <time>2021-02-02T07:57:54Z</time>
      </trkpt>
      <trkpt lat="44.36086" lon="4.85262">
        <ele>134.24</ele>
        <time>2021-02-02T07:57:58Z</time>
      </trkpt>
      <trkpt lat="44.3609" lon="4.8525">
        <ele>134.24</ele>
        <time>2021-02-02T07:58:05Z</time>
      </trkpt>
      <trkpt lat="44.36094" lon="4.85247">
        <ele>134.24</ele>
        <time>2021-02-02T07:58:16Z</time>
      </trkpt>
      <trkpt lat="44.361" lon="4.85251">
        <ele>134.24</ele>
        <time>2021-02-02T07:58:22Z</time>
      </trkpt>
      <trkpt lat="44.36121" lon="4.85261">
        <ele>134.24</ele>
        <time>2021-02-02T07:58:40Z</time>
      </trkpt>
      <trkpt lat="44.36138" lon="4.8527">
        <ele>134.24</ele>
        <time>2021-02-02T07:58:55Z</time>
      </trkpt>
      <trkpt lat="44.36148" lon="4.85274">
        <ele>134.72</ele>
        <time>2021-02-02T07:59:03Z</time>
      </trkpt>
      <trkpt lat="44.36151" lon="4.85271">
        <ele>134.72</ele>
        <time>2021-02-02T07:59:07Z</time>
      </trkpt>
      <trkpt lat="44.36164" lon="4.85245">
        <ele>135.2</ele>
        <time>2021-02-02T07:59:25Z</time>
      </trkpt>
      <trkpt lat="44.36165" lon="4.85245">
        <ele>135.2</ele>
        <time>2021-02-02T07:59:26Z</time>
      </trkpt>
      <trkpt lat="44.36167" lon="4.85247">
        <ele>135.2</ele>
        <time>2021-02-02T07:59:29Z</time>
      </trkpt>
      <trkpt lat="44.36182" lon="4.85259">
        <ele>135.2</ele>
        <time>2021-02-02T07:59:45Z</time>
      </trkpt>
      <trkpt lat="44.36202" lon="4.85276">
        <ele>135.2</ele>
        <time>2021-02-02T08:00:04Z</time>
      </trkpt>
      <trkpt lat="44.36208" lon="4.8528">
        <ele>135.2</ele>
        <time>2021-02-02T08:00:10Z</time>
      </trkpt>
      <trkpt lat="44.36228" lon="4.85286">
        <ele>136.16</ele>
        <time>2021-02-02T08:00:27Z</time>
      </trkpt>
      <trkpt lat="44.36229" lon="4.85284">
        <ele>136.64</ele>
        <time>2021-02-02T08:00:29Z</time>
      </trkpt>
      <trkpt lat="44.36237" lon="4.85275">
        <ele>138.09</ele>
        <time>2021-02-02T08:00:39Z</time>
      </trkpt>
      <trkpt lat="44.3624" lon="4.85275">
        <ele>138.09</ele>
        <time>2021-02-02T08:00:42Z</time>
      </trkpt>
      <trkpt lat="44.36257" lon="4.8529">
        <ele>138.09</ele>
        <time>2021-02-02T08:00:58Z</time>
      </trkpt>
      <trkpt lat="44.36276" lon="4.85311">
        <ele>138.09</ele>
        <time>2021-02-02T08:01:17Z</time>
      </trkpt>
      <trkpt lat="44.36284" lon="4.85319">
        <ele>138.09</ele>
        <time>2021-02-02T08:01:25Z</time>
      </trkpt>
      <trkpt lat="44.36292" lon="4.85321">
        <ele>138.09</ele>
        <time>2021-02-02T08:01:31Z</time>
      </trkpt>
      <trkpt lat="44.36316" lon="4.85345">
        <ele>138.09</ele>
        <time>2021-02-02T08:01:53Z</time>
      </trkpt>
      <trkpt lat="44.36321" lon="4.8535">
        <ele>138.09</ele>
        <time>2021-02-02T08:01:58Z</time>
      </trkpt>
      <trkpt lat="44.36328" lon="4.85356">
        <ele>138.09</ele>
        <time>2021-02-02T08:02:04Z</time>
      </trkpt>
      <trkpt lat="44.3635" lon="4.85381">
        <ele>138.09</ele>
        <time>2021-02-02T08:02:24Z</time>
      </trkpt>
      <trkpt lat="44.36368" lon="4.85401">
        <ele>138.57</ele>
        <time>2021-02-02T08:02:41Z</time>
      </trkpt>
      <trkpt lat="44.3639" lon="4.85422">
        <ele>138.57</ele>
        <time>2021-02-02T08:03:02Z</time>
      </trkpt>
      <trkpt lat="44.36412" lon="4.85445">
        <ele>138.57</ele>
        <time>2021-02-02T08:03:22Z</time>
      </trkpt>
      <trkpt lat="44.36436" lon="4.85469">
        <ele>139.05</ele>
        <time>2021-02-02T08:03:45Z</time>
      </trkpt>
      <trkpt lat="44.36459" lon="4.85492">
        <ele>139.05</ele>
        <time>2021-02-02T08:04:06Z</time>
      </trkpt>
      <trkpt lat="44.36463" lon="4.85495">
        <ele>139.05</ele>
        <time>2021-02-02T08:04:10Z</time>
      </trkpt>
      <trkpt lat="44.36468" lon="4.85487">
        <ele>139.05</ele>
        <time>2021-02-02T08:04:16Z</time>
      </trkpt>
      <trkpt lat="44.36475" lon="4.85454">
        <ele>139.05</ele>
        <time>2021-02-02T08:04:35Z</time>
      </trkpt>
      <trkpt lat="44.36484" lon="4.85425">
        <ele>139.05</ele>
        <time>2021-02-02T08:04:52Z</time>
      </trkpt>
      <trkpt lat="44.36495" lon="4.85396">
        <ele>139.53</ele>
        <time>2021-02-02T08:05:10Z</time>
      </trkpt>
      <trkpt lat="44.36506" lon="4.85367">
        <ele>140.49</ele>
        <time>2021-02-02T08:05:28Z</time>
      </trkpt>
      <trkpt lat="44.36512" lon="4.85349">
        <ele>140.97</ele>
        <time>2021-02-02T08:05:39Z</time>
      </trkpt>
      <trkpt lat="44.36519" lon="4.85321">
        <ele>140.97</ele>
        <time>2021-02-02T08:05:55Z</time>
      </trkpt>
      <trkpt lat="44.36527" lon="4.85292">
        <ele>141.93</ele>
        <time>2021-02-02T08:06:13Z</time>
      </trkpt>
      <trkpt lat="44.36528" lon="4.85286">
        <ele>141.93</ele>
        <time>2021-02-02T08:06:17Z</time>
      </trkpt>
      <trkpt lat="44.36532" lon="4.85276">
        <ele>142.41</ele>
        <time>2021-02-02T08:06:30Z</time>
      </trkpt>
      <trkpt lat="44.36556" lon="4.85283">
        <ele>142.41</ele>
        <time>2021-02-02T08:06:48Z</time>
      </trkpt>
      <trkpt lat="44.36559" lon="4.85284">
        <ele>142.41</ele>
        <time>2021-02-02T08:06:51Z</time>
      </trkpt>
      <trkpt lat="44.36584" lon="4.85292">
        <ele>142.89</ele>
        <time>2021-02-02T08:07:10Z</time>
      </trkpt>
      <trkpt lat="44.36605" lon="4.85299">
        <ele>143.37</ele>
        <time>2021-02-02T08:07:26Z</time>
      </trkpt>
      <trkpt lat="44.36629" lon="4.85308">
        <ele>143.37</ele>
        <time>2021-02-02T08:07:44Z</time>
      </trkpt>
      <trkpt lat="44.36651" lon="4.85317">
        <ele>143.37</ele>
        <time>2021-02-02T08:08:02Z</time>
      </trkpt>
      <trkpt lat="44.36671" lon="4.85326">
        <ele>143.85</ele>
        <time>2021-02-02T08:08:18Z</time>
      </trkpt>
      <trkpt lat="44.36686" lon="4.8533">
        <ele>144.34</ele>
        <time>2021-02-02T08:08:32Z</time>
      </trkpt>
      <trkpt lat="44.367" lon="4.8533">
        <ele>144.82</ele>
        <time>2021-02-02T08:08:41Z</time>
      </trkpt>
      <trkpt lat="44.36702" lon="4.85327">
        <ele>144.82</ele>
        <time>2021-02-02T08:08:43Z</time>
      </trkpt>
      <trkpt lat="44.36706" lon="4.85312">
        <ele>144.82</ele>
        <time>2021-02-02T08:08:51Z</time>
      </trkpt>
      <trkpt lat="44.36713" lon="4.85278">
        <ele>145.3</ele>
        <time>2021-02-02T08:09:10Z</time>
      </trkpt>
      <trkpt lat="44.36713" lon="4.85269">
        <ele>145.3</ele>
        <time>2021-02-02T08:09:16Z</time>
      </trkpt>
      <trkpt lat="44.36719" lon="4.85238">
        <ele>146.26</ele>
        <time>2021-02-02T08:09:33Z</time>
      </trkpt>
      <trkpt lat="44.36726" lon="4.85202">
        <ele>147.22</ele>
        <time>2021-02-02T08:09:53Z</time>
      </trkpt>
      <trkpt lat="44.36735" lon="4.85164">
        <ele>148.18</ele>
        <time>2021-02-02T08:10:14Z</time>
      </trkpt>
      <trkpt lat="44.36741" lon="4.85128">
        <ele>149.14</ele>
        <time>2021-02-02T08:10:35Z</time>
      </trkpt>
      <trkpt lat="44.36744" lon="4.85111">
        <ele>150.1</ele>
        <time>2021-02-02T08:10:51Z</time>
      </trkpt>
      <trkpt lat="44.36746" lon="4.85104">
        <ele>150.1</ele>
        <time>2021-02-02T08:11:06Z</time>
      </trkpt>
      <trkpt lat="44.36745" lon="4.85103">
        <ele>150.1</ele>
        <time>2021-02-02T08:11:38Z</time>
      </trkpt>
      <trkpt lat="44.36741" lon="4.85107">
        <ele>148.18</ele>
        <time>2021-02-02T08:12:03Z</time>
      </trkpt>
      <trkpt lat="44.36742" lon="4.85104">
        <ele>149.62</ele>
        <time>2021-02-02T08:12:31Z</time>
      </trkpt>
      <trkpt lat="44.36743" lon="4.85102">
        <ele>149.62</ele>
        <time>2021-02-02T08:12:56Z</time>
      </trkpt>
      <trkpt lat="44.36746" lon="4.85092">
        <ele>150.1</ele>
        <time>2021-02-02T08:13:16Z</time>
      </trkpt>
      <trkpt lat="44.36752" lon="4.85091">
        <ele>150.1</ele>
        <time>2021-02-02T08:13:23Z</time>
      </trkpt>
      <trkpt lat="44.36774" lon="4.85097">
        <ele>150.1</ele>
        <time>2021-02-02T08:13:40Z</time>
      </trkpt>
      <trkpt lat="44.3679" lon="4.85104">
        <ele>150.1</ele>
        <time>2021-02-02T08:13:55Z</time>
      </trkpt>
      <trkpt lat="44.36818" lon="4.85122">
        <ele>150.1</ele>
        <time>2021-02-02T08:14:14Z</time>
      </trkpt>
      <trkpt lat="44.36834" lon="4.85131">
        <ele>150.1</ele>
        <time>2021-02-02T08:14:27Z</time>
      </trkpt>
      <trkpt lat="44.3684" lon="4.85135">
        <ele>150.1</ele>
        <time>2021-02-02T08:14:32Z</time>
      </trkpt>
      <trkpt lat="44.36844" lon="4.85138">
        <ele>150.1</ele>
        <time>2021-02-02T08:14:36Z</time>
      </trkpt>
      <trkpt lat="44.36865" lon="4.85148">
        <ele>150.1</ele>
        <time>2021-02-02T08:14:53Z</time>
      </trkpt>
      <trkpt lat="44.36882" lon="4.85162">
        <ele>150.1</ele>
        <time>2021-02-02T08:15:08Z</time>
      </trkpt>
      <trkpt lat="44.36902" lon="4.85172">
        <ele>150.1</ele>
        <time>2021-02-02T08:15:23Z</time>
      </trkpt>
      <trkpt lat="44.36916" lon="4.85181">
        <ele>150.1</ele>
        <time>2021-02-02T08:15:34Z</time>
      </trkpt>
      <trkpt lat="44.36935" lon="4.85192">
        <ele>150.1</ele>
        <time>2021-02-02T08:15:50Z</time>
      </trkpt>
      <trkpt lat="44.36956" lon="4.85204">
        <ele>150.1</ele>
        <time>2021-02-02T08:16:09Z</time>
      </trkpt>
      <trkpt lat="44.36974" lon="4.85217">
        <ele>150.1</ele>
        <time>2021-02-02T08:16:23Z</time>
      </trkpt>
      <trkpt lat="44.3698" lon="4.8522">
        <ele>150.1</ele>
        <time>2021-02-02T08:16:28Z</time>
      </trkpt>
      <trkpt lat="44.37004" lon="4.85236">
        <ele>150.1</ele>
        <time>2021-02-02T08:16:47Z</time>
      </trkpt>
      <trkpt lat="44.37014" lon="4.85241">
        <ele>150.58</ele>
        <time>2021-02-02T08:16:58Z</time>
      </trkpt>
      <trkpt lat="44.37001" lon="4.85233">
        <ele>150.58</ele>
        <time>2021-02-02T08:17:11Z</time>
      </trkpt>
      <trkpt lat="44.36985" lon="4.85222">
        <ele>150.58</ele>
        <time>2021-02-02T08:17:26Z</time>
      </trkpt>
      <trkpt lat="44.36986" lon="4.85216">
        <ele>150.58</ele>
        <time>2021-02-02T08:17:30Z</time>
      </trkpt>
      <trkpt lat="44.36993" lon="4.85193">
        <ele>152.51</ele>
        <time>2021-02-02T08:17:47Z</time>
      </trkpt>
      <trkpt lat="44.37003" lon="4.85168">
        <ele>154.43</ele>
        <time>2021-02-02T08:18:03Z</time>
      </trkpt>
      <trkpt lat="44.37008" lon="4.85141">
        <ele>155.87</ele>
        <time>2021-02-02T08:18:20Z</time>
      </trkpt>
      <trkpt lat="44.37009" lon="4.85134">
        <ele>156.35</ele>
        <time>2021-02-02T08:18:25Z</time>
      </trkpt>
      <trkpt lat="44.37017" lon="4.8511">
        <ele>157.79</ele>
        <time>2021-02-02T08:18:42Z</time>
      </trkpt>
      <trkpt lat="44.37018" lon="4.85106">
        <ele>157.79</ele>
        <time>2021-02-02T08:18:45Z</time>
      </trkpt>
      <trkpt lat="44.37029" lon="4.85079">
        <ele>160.2</ele>
        <time>2021-02-02T08:19:02Z</time>
      </trkpt>
      <trkpt lat="44.37033" lon="4.85077">
        <ele>160.68</ele>
        <time>2021-02-02T08:19:06Z</time>
      </trkpt>
      <trkpt lat="44.37036" lon="4.85077">
        <ele>160.68</ele>
        <time>2021-02-02T08:19:08Z</time>
      </trkpt>
      <trkpt lat="44.37052" lon="4.85073">
        <ele>162.12</ele>
        <time>2021-02-02T08:19:24Z</time>
      </trkpt>
      <trkpt lat="44.37062" lon="4.85071">
        <ele>163.08</ele>
        <time>2021-02-02T08:19:32Z</time>
      </trkpt>
      <trkpt lat="44.37078" lon="4.85067">
        <ele>164.52</ele>
        <time>2021-02-02T08:19:46Z</time>
      </trkpt>
      <trkpt lat="44.37091" lon="4.85054">
        <ele>166.93</ele>
        <time>2021-02-02T08:20:01Z</time>
      </trkpt>
      <trkpt lat="44.37102" lon="4.85036">
        <ele>169.33</ele>
        <time>2021-02-02T08:20:18Z</time>
      </trkpt>
      <trkpt lat="44.37115" lon="4.85021">
        <ele>171.73</ele>
        <time>2021-02-02T08:20:33Z</time>
      </trkpt>
      <trkpt lat="44.37129" lon="4.85014">
        <ele>173.66</ele>
        <time>2021-02-02T08:20:48Z</time>
      </trkpt>
      <trkpt lat="44.37145" lon="4.85008">
        <ele>175.1</ele>
        <time>2021-02-02T08:21:03Z</time>
      </trkpt>
      <trkpt lat="44.37158" lon="4.84998">
        <ele>177.02</ele>
        <time>2021-02-02T08:21:16Z</time>
      </trkpt>
      <trkpt lat="44.37167" lon="4.84983">
        <ele>179.42</ele>
        <time>2021-02-02T08:21:30Z</time>
      </trkpt>
      <trkpt lat="44.37168" lon="4.84982">
        <ele>179.42</ele>
        <time>2021-02-02T08:21:31Z</time>
      </trkpt>
      <trkpt lat="44.37175" lon="4.84969">
        <ele>181.83</ele>
        <time>2021-02-02T08:21:44Z</time>
      </trkpt>
      <trkpt lat="44.37183" lon="4.84955">
        <ele>184.23</ele>
        <time>2021-02-02T08:21:58Z</time>
      </trkpt>
      <trkpt lat="44.37187" lon="4.84933">
        <ele>186.63</ele>
        <time>2021-02-02T08:22:16Z</time>
      </trkpt>
      <trkpt lat="44.37183" lon="4.8491">
        <ele>188.08</ele>
        <time>2021-02-02T08:22:30Z</time>
      </trkpt>
      <trkpt lat="44.3718" lon="4.8489">
        <ele>190</ele>
        <time>2021-02-02T08:22:45Z</time>
      </trkpt>
      <trkpt lat="44.37178" lon="4.84867">
        <ele>191.44</ele>
        <time>2021-02-02T08:23:00Z</time>
      </trkpt>
      <trkpt lat="44.37169" lon="4.84849">
        <ele>191.92</ele>
        <time>2021-02-02T08:23:16Z</time>
      </trkpt>
      <trkpt lat="44.37163" lon="4.84835">
        <ele>191.92</ele>
        <time>2021-02-02T08:23:30Z</time>
      </trkpt>
      <trkpt lat="44.37151" lon="4.8482">
        <ele>191.92</ele>
        <time>2021-02-02T08:23:46Z</time>
      </trkpt>
      <trkpt lat="44.37133" lon="4.84807">
        <ele>191.92</ele>
        <time>2021-02-02T08:24:06Z</time>
      </trkpt>
      <trkpt lat="44.37134" lon="4.84795">
        <ele>191.92</ele>
        <time>2021-02-02T08:24:19Z</time>
      </trkpt>
      <trkpt lat="44.37143" lon="4.84778">
        <ele>193.84</ele>
        <time>2021-02-02T08:24:35Z</time>
      </trkpt>
      <trkpt lat="44.37151" lon="4.84772">
        <ele>194.32</ele>
        <time>2021-02-02T08:24:49Z</time>
      </trkpt>
      <trkpt lat="44.37154" lon="4.84762">
        <ele>194.8</ele>
        <time>2021-02-02T08:24:57Z</time>
      </trkpt>
      <trkpt lat="44.3717" lon="4.84752">
        <ele>195.77</ele>
        <time>2021-02-02T08:25:12Z</time>
      </trkpt>
      <trkpt lat="44.37183" lon="4.8474">
        <ele>197.69</ele>
        <time>2021-02-02T08:25:28Z</time>
      </trkpt>
      <trkpt lat="44.37188" lon="4.84738">
        <ele>198.17</ele>
        <time>2021-02-02T08:25:32Z</time>
      </trkpt>
      <trkpt lat="44.37203" lon="4.84731">
        <ele>199.61</ele>
        <time>2021-02-02T08:25:46Z</time>
      </trkpt>
      <trkpt lat="44.37222" lon="4.84718">
        <ele>201.53</ele>
        <time>2021-02-02T08:26:01Z</time>
      </trkpt>
      <trkpt lat="44.37237" lon="4.84708">
        <ele>202.98</ele>
        <time>2021-02-02T08:26:16Z</time>
      </trkpt>
      <trkpt lat="44.3725" lon="4.84701">
        <ele>204.42</ele>
        <time>2021-02-02T08:26:30Z</time>
      </trkpt>
      <trkpt lat="44.37263" lon="4.84698">
        <ele>205.86</ele>
        <time>2021-02-02T08:26:43Z</time>
      </trkpt>
      <trkpt lat="44.37266" lon="4.84697">
        <ele>206.82</ele>
        <time>2021-02-02T08:26:46Z</time>
      </trkpt>
      <trkpt lat="44.37275" lon="4.84695">
        <ele>207.78</ele>
        <time>2021-02-02T08:26:53Z</time>
      </trkpt>
      <trkpt lat="44.37293" lon="4.8469">
        <ele>209.22</ele>
        <time>2021-02-02T08:27:08Z</time>
      </trkpt>
      <trkpt lat="44.37309" lon="4.84683">
        <ele>210.67</ele>
        <time>2021-02-02T08:27:21Z</time>
      </trkpt>
      <trkpt lat="44.37322" lon="4.84679">
        <ele>212.59</ele>
        <time>2021-02-02T08:27:34Z</time>
      </trkpt>
      <trkpt lat="44.37339" lon="4.84676">
        <ele>214.51</ele>
        <time>2021-02-02T08:27:49Z</time>
      </trkpt>
      <trkpt lat="44.37354" lon="4.84673">
        <ele>215.47</ele>
        <time>2021-02-02T08:28:02Z</time>
      </trkpt>
      <trkpt lat="44.37363" lon="4.84671">
        <ele>215.47</ele>
        <time>2021-02-02T08:28:08Z</time>
      </trkpt>
      <trkpt lat="44.37386" lon="4.84664">
        <ele>216.43</ele>
        <time>2021-02-02T08:28:27Z</time>
      </trkpt>
      <trkpt lat="44.37394" lon="4.8466">
        <ele>216.91</ele>
        <time>2021-02-02T08:28:33Z</time>
      </trkpt>
      <trkpt lat="44.37399" lon="4.84659">
        <ele>217.4</ele>
        <time>2021-02-02T08:28:39Z</time>
      </trkpt>
      <trkpt lat="44.37406" lon="4.84656">
        <ele>217.4</ele>
        <time>2021-02-02T08:28:45Z</time>
      </trkpt>
      <trkpt lat="44.37424" lon="4.84653">
        <ele>217.88</ele>
        <time>2021-02-02T08:28:59Z</time>
      </trkpt>
      <trkpt lat="44.37441" lon="4.84649">
        <ele>218.36</ele>
        <time>2021-02-02T08:29:13Z</time>
      </trkpt>
      <trkpt lat="44.37456" lon="4.8465">
        <ele>218.84</ele>
        <time>2021-02-02T08:29:26Z</time>
      </trkpt>
      <trkpt lat="44.37459" lon="4.8465">
        <ele>218.84</ele>
        <time>2021-02-02T08:29:29Z</time>
      </trkpt>
      <trkpt lat="44.37481" lon="4.84647">
        <ele>220.28</ele>
        <time>2021-02-02T08:29:46Z</time>
      </trkpt>
      <trkpt lat="44.37497" lon="4.8464">
        <ele>221.24</ele>
        <time>2021-02-02T08:30:02Z</time>
      </trkpt>
      <trkpt lat="44.375" lon="4.84623">
        <ele>219.32</ele>
        <time>2021-02-02T08:30:18Z</time>
      </trkpt>
      <trkpt lat="44.37504" lon="4.84598">
        <ele>220.76</ele>
        <time>2021-02-02T08:30:34Z</time>
      </trkpt>
      <trkpt lat="44.37504" lon="4.84577">
        <ele>221.24</ele>
        <time>2021-02-02T08:30:51Z</time>
      </trkpt>
      <trkpt lat="44.37496" lon="4.84556">
        <ele>222.2</ele>
        <time>2021-02-02T08:31:06Z</time>
      </trkpt>
      <trkpt lat="44.37493" lon="4.84537">
        <ele>223.64</ele>
        <time>2021-02-02T08:31:21Z</time>
      </trkpt>
      <trkpt lat="44.37496" lon="4.8451">
        <ele>225.57</ele>
        <time>2021-02-02T08:31:38Z</time>
      </trkpt>
      <trkpt lat="44.37486" lon="4.84498">
        <ele>226.05</ele>
        <time>2021-02-02T08:31:56Z</time>
      </trkpt>
      <trkpt lat="44.37488" lon="4.84496">
        <ele>226.05</ele>
        <time>2021-02-02T08:32:19Z</time>
      </trkpt>
      <trkpt lat="44.37478" lon="4.84485">
        <ele>225.57</ele>
        <time>2021-02-02T08:32:54Z</time>
      </trkpt>
      <trkpt lat="44.3748" lon="4.84483">
        <ele>226.05</ele>
        <time>2021-02-02T08:33:16Z</time>
      </trkpt>
      <trkpt lat="44.37479" lon="4.84486">
        <ele>226.05</ele>
        <time>2021-02-02T08:33:42Z</time>
      </trkpt>
      <trkpt lat="44.37482" lon="4.84486">
        <ele>226.05</ele>
        <time>2021-02-02T08:34:14Z</time>
      </trkpt>
      <trkpt lat="44.37483" lon="4.84485">
        <ele>226.05</ele>
        <time>2021-02-02T08:34:39Z</time>
      </trkpt>
      <trkpt lat="44.37482" lon="4.8448">
        <ele>226.05</ele>
        <time>2021-02-02T08:35:08Z</time>
      </trkpt>
      <trkpt lat="44.37477" lon="4.84471">
        <ele>226.05</ele>
        <time>2021-02-02T08:35:33Z</time>
      </trkpt>
      <trkpt lat="44.37475" lon="4.8445">
        <ele>226.53</ele>
        <time>2021-02-02T08:35:48Z</time>
      </trkpt>
      <trkpt lat="44.37485" lon="4.84443">
        <ele>227.97</ele>
        <time>2021-02-02T08:36:05Z</time>
      </trkpt>
      <trkpt lat="44.37487" lon="4.84445">
        <ele>227.97</ele>
        <time>2021-02-02T08:36:09Z</time>
      </trkpt>
      <trkpt lat="44.37499" lon="4.84451">
        <ele>228.93</ele>
        <time>2021-02-02T08:36:23Z</time>
      </trkpt>
      <trkpt lat="44.37512" lon="4.84438">
        <ele>229.89</ele>
        <time>2021-02-02T08:36:37Z</time>
      </trkpt>
      <trkpt lat="44.37513" lon="4.84423">
        <ele>230.37</ele>
        <time>2021-02-02T08:36:52Z</time>
      </trkpt>
      <trkpt lat="44.37526" lon="4.84405">
        <ele>229.41</ele>
        <time>2021-02-02T08:37:09Z</time>
      </trkpt>
      <trkpt lat="44.37532" lon="4.8439">
        <ele>226.53</ele>
        <time>2021-02-02T08:37:24Z</time>
      </trkpt>
      <trkpt lat="44.37548" lon="4.84389">
        <ele>225.09</ele>
        <time>2021-02-02T08:37:40Z</time>
      </trkpt>
      <trkpt lat="44.37562" lon="4.84386">
        <ele>224.61</ele>
        <time>2021-02-02T08:37:54Z</time>
      </trkpt>
      <trkpt lat="44.3757" lon="4.84379">
        <ele>223.16</ele>
        <time>2021-02-02T08:38:09Z</time>
      </trkpt>
      <trkpt lat="44.37587" lon="4.84372">
        <ele>220.28</ele>
        <time>2021-02-02T08:38:24Z</time>
      </trkpt>
      <trkpt lat="44.37598" lon="4.84379">
        <ele>222.68</ele>
        <time>2021-02-02T08:38:38Z</time>
      </trkpt>
      <trkpt lat="44.37613" lon="4.84387">
        <ele>223.64</ele>
        <time>2021-02-02T08:38:52Z</time>
      </trkpt>
      <trkpt lat="44.37628" lon="4.84395">
        <ele>224.61</ele>
        <time>2021-02-02T08:39:06Z</time>
      </trkpt>
      <trkpt lat="44.37642" lon="4.84402">
        <ele>226.05</ele>
        <time>2021-02-02T08:39:21Z</time>
      </trkpt>
      <trkpt lat="44.3766" lon="4.84402">
        <ele>226.53</ele>
        <time>2021-02-02T08:39:37Z</time>
      </trkpt>
      <trkpt lat="44.37672" lon="4.84402">
        <ele>229.41</ele>
        <time>2021-02-02T08:39:51Z</time>
      </trkpt>
      <trkpt lat="44.37685" lon="4.84403">
        <ele>231.81</ele>
        <time>2021-02-02T08:40:06Z</time>
      </trkpt>
      <trkpt lat="44.37699" lon="4.84419">
        <ele>233.26</ele>
        <time>2021-02-02T08:40:20Z</time>
      </trkpt>
      <trkpt lat="44.37703" lon="4.84426">
        <ele>233.74</ele>
        <time>2021-02-02T08:40:26Z</time>
      </trkpt>
      <trkpt lat="44.37718" lon="4.84441">
        <ele>235.66</ele>
        <time>2021-02-02T08:40:44Z</time>
      </trkpt>
      <trkpt lat="44.37736" lon="4.8444">
        <ele>237.1</ele>
        <time>2021-02-02T08:41:02Z</time>
      </trkpt>
      <trkpt lat="44.37749" lon="4.84434">
        <ele>238.06</ele>
        <time>2021-02-02T08:41:16Z</time>
      </trkpt>
      <trkpt lat="44.37757" lon="4.84424">
        <ele>239.02</ele>
        <time>2021-02-02T08:41:24Z</time>
      </trkpt>
      <trkpt lat="44.37768" lon="4.84408">
        <ele>239.51</ele>
        <time>2021-02-02T08:41:39Z</time>
      </trkpt>
      <trkpt lat="44.37784" lon="4.84411">
        <ele>241.43</ele>
        <time>2021-02-02T08:41:56Z</time>
      </trkpt>
      <trkpt lat="44.37799" lon="4.84413">
        <ele>242.39</ele>
        <time>2021-02-02T08:42:11Z</time>
      </trkpt>
      <trkpt lat="44.37814" lon="4.84413">
        <ele>243.35</ele>
        <time>2021-02-02T08:42:25Z</time>
      </trkpt>
      <trkpt lat="44.37815" lon="4.84413">
        <ele>243.35</ele>
        <time>2021-02-02T08:42:26Z</time>
      </trkpt>
      <trkpt lat="44.3783" lon="4.84425">
        <ele>243.83</ele>
        <time>2021-02-02T08:42:41Z</time>
      </trkpt>
      <trkpt lat="44.37838" lon="4.84433">
        <ele>243.83</ele>
        <time>2021-02-02T08:42:46Z</time>
      </trkpt>
      <trkpt lat="44.37852" lon="4.84436">
        <ele>243.83</ele>
        <time>2021-02-02T08:43:00Z</time>
      </trkpt>
      <trkpt lat="44.37853" lon="4.84436">
        <ele>243.83</ele>
        <time>2021-02-02T08:43:01Z</time>
      </trkpt>
      <trkpt lat="44.37865" lon="4.84427">
        <ele>244.79</ele>
        <time>2021-02-02T08:43:16Z</time>
      </trkpt>
      <trkpt lat="44.3787" lon="4.84409">
        <ele>246.23</ele>
        <time>2021-02-02T08:43:32Z</time>
      </trkpt>
      <trkpt lat="44.37873" lon="4.84384">
        <ele>246.23</ele>
        <time>2021-02-02T08:43:48Z</time>
      </trkpt>
      <trkpt lat="44.37873" lon="4.84356">
        <ele>247.2</ele>
        <time>2021-02-02T08:44:05Z</time>
      </trkpt>
      <trkpt lat="44.37864" lon="4.84349">
        <ele>247.2</ele>
        <time>2021-02-02T08:44:19Z</time>
      </trkpt>
      <trkpt lat="44.37859" lon="4.84337">
        <ele>247.2</ele>
        <time>2021-02-02T08:44:33Z</time>
      </trkpt>
      <trkpt lat="44.37855" lon="4.84318">
        <ele>247.68</ele>
        <time>2021-02-02T08:44:48Z</time>
      </trkpt>
      <trkpt lat="44.37847" lon="4.84298">
        <ele>247.68</ele>
        <time>2021-02-02T08:45:02Z</time>
      </trkpt>
      <trkpt lat="44.37851" lon="4.84285">
        <ele>248.64</ele>
        <time>2021-02-02T08:45:12Z</time>
      </trkpt>
      <trkpt lat="44.37857" lon="4.84269">
        <ele>249.12</ele>
        <time>2021-02-02T08:45:25Z</time>
      </trkpt>
      <trkpt lat="44.37862" lon="4.84258">
        <ele>249.6</ele>
        <time>2021-02-02T08:45:37Z</time>
      </trkpt>
      <trkpt lat="44.37869" lon="4.84239">
        <ele>250.56</ele>
        <time>2021-02-02T08:45:53Z</time>
      </trkpt>
      <trkpt lat="44.37868" lon="4.84221">
        <ele>251.04</ele>
        <time>2021-02-02T08:46:07Z</time>
      </trkpt>
      <trkpt lat="44.37873" lon="4.84211">
        <ele>251.04</ele>
        <time>2021-02-02T08:46:21Z</time>
      </trkpt>
      <trkpt lat="44.37881" lon="4.84192">
        <ele>251.52</ele>
        <time>2021-02-02T08:46:37Z</time>
      </trkpt>
      <trkpt lat="44.3788" lon="4.8419">
        <ele>252</ele>
        <time>2021-02-02T08:46:38Z</time>
      </trkpt>
      <trkpt lat="44.37888" lon="4.84172">
        <ele>252.48</ele>
        <time>2021-02-02T08:46:49Z</time>
      </trkpt>
      <trkpt lat="44.37899" lon="4.84164">
        <ele>253.44</ele>
        <time>2021-02-02T08:47:00Z</time>
      </trkpt>
      <trkpt lat="44.37906" lon="4.84151">
        <ele>253.93</ele>
        <time>2021-02-02T08:47:11Z</time>
      </trkpt>
      <trkpt lat="44.37914" lon="4.84155">
        <ele>254.41</ele>
        <time>2021-02-02T08:47:22Z</time>
      </trkpt>
      <trkpt lat="44.37932" lon="4.8416">
        <ele>254.41</ele>
        <time>2021-02-02T08:47:40Z</time>
      </trkpt>
      <trkpt lat="44.37943" lon="4.84152">
        <ele>254.89</ele>
        <time>2021-02-02T08:47:51Z</time>
      </trkpt>
      <trkpt lat="44.37951" lon="4.84151">
        <ele>253.44</ele>
        <time>2021-02-02T08:48:01Z</time>
      </trkpt>
      <trkpt lat="44.37959" lon="4.84152">
        <ele>251.52</ele>
        <time>2021-02-02T08:48:15Z</time>
      </trkpt>
      <trkpt lat="44.37968" lon="4.84153">
        <ele>248.16</ele>
        <time>2021-02-02T08:48:28Z</time>
      </trkpt>
      <trkpt lat="44.37971" lon="4.84163">
        <ele>245.75</ele>
        <time>2021-02-02T08:48:40Z</time>
      </trkpt>
      <trkpt lat="44.37975" lon="4.8417">
        <ele>244.31</ele>
        <time>2021-02-02T08:48:56Z</time>
      </trkpt>
      <trkpt lat="44.37978" lon="4.84176">
        <ele>243.35</ele>
        <time>2021-02-02T08:49:12Z</time>
      </trkpt>
      <trkpt lat="44.37979" lon="4.84174">
        <ele>243.35</ele>
        <time>2021-02-02T08:49:25Z</time>
      </trkpt>
      <trkpt lat="44.37983" lon="4.84177">
        <ele>241.43</ele>
        <time>2021-02-02T08:49:41Z</time>
      </trkpt>
      <trkpt lat="44.37987" lon="4.84181">
        <ele>238.54</ele>
        <time>2021-02-02T08:49:56Z</time>
      </trkpt>
      <trkpt lat="44.37987" lon="4.84181">
        <ele>238.06</ele>
        <time>2021-02-02T08:50:11Z</time>
      </trkpt>
      <trkpt lat="44.37988" lon="4.84186">
        <ele>238.06</ele>
        <time>2021-02-02T08:50:35Z</time>
      </trkpt>
      <trkpt lat="44.37989" lon="4.84192">
        <ele>237.1</ele>
        <time>2021-02-02T08:50:51Z</time>
      </trkpt>
      <trkpt lat="44.37991" lon="4.84201">
        <ele>233.74</ele>
        <time>2021-02-02T08:51:04Z</time>
      </trkpt>
      <trkpt lat="44.37995" lon="4.84208">
        <ele>231.81</ele>
        <time>2021-02-02T08:51:22Z</time>
      </trkpt>
      <trkpt lat="44.38001" lon="4.84206">
        <ele>230.37</ele>
        <time>2021-02-02T08:51:40Z</time>
      </trkpt>
      <trkpt lat="44.38009" lon="4.84211">
        <ele>229.41</ele>
        <time>2021-02-02T08:51:59Z</time>
      </trkpt>
      <trkpt lat="44.38011" lon="4.84223">
        <ele>227.97</ele>
        <time>2021-02-02T08:52:13Z</time>
      </trkpt>
      <trkpt lat="44.38011" lon="4.84215">
        <ele>227.97</ele>
        <time>2021-02-02T08:52:23Z</time>
      </trkpt>
      <trkpt lat="44.38009" lon="4.84208">
        <ele>229.41</ele>
        <time>2021-02-02T08:52:31Z</time>
      </trkpt>
      <trkpt lat="44.38007" lon="4.84198">
        <ele>229.89</ele>
        <time>2021-02-02T08:52:39Z</time>
      </trkpt>
      <trkpt lat="44.38007" lon="4.84182">
        <ele>230.37</ele>
        <time>2021-02-02T08:52:55Z</time>
      </trkpt>
      <trkpt lat="44.38007" lon="4.84181">
        <ele>230.37</ele>
        <time>2021-02-02T08:52:56Z</time>
      </trkpt>
      <trkpt lat="44.38012" lon="4.84178">
        <ele>228.93</ele>
        <time>2021-02-02T08:53:00Z</time>
      </trkpt>
      <trkpt lat="44.38021" lon="4.84174">
        <ele>227.97</ele>
        <time>2021-02-02T08:53:15Z</time>
      </trkpt>
      <trkpt lat="44.38038" lon="4.84172">
        <ele>227.49</ele>
        <time>2021-02-02T08:53:29Z</time>
      </trkpt>
      <trkpt lat="44.38055" lon="4.84166">
        <ele>228.93</ele>
        <time>2021-02-02T08:53:44Z</time>
      </trkpt>
      <trkpt lat="44.38067" lon="4.84161">
        <ele>231.33</ele>
        <time>2021-02-02T08:53:57Z</time>
      </trkpt>
      <trkpt lat="44.38068" lon="4.84151">
        <ele>232.78</ele>
        <time>2021-02-02T08:54:08Z</time>
      </trkpt>
      <trkpt lat="44.38072" lon="4.84137">
        <ele>234.22</ele>
        <time>2021-02-02T08:54:20Z</time>
      </trkpt>
      <trkpt lat="44.38072" lon="4.84132">
        <ele>234.7</ele>
        <time>2021-02-02T08:54:24Z</time>
      </trkpt>
      <trkpt lat="44.38077" lon="4.84116">
        <ele>235.18</ele>
        <time>2021-02-02T08:54:37Z</time>
      </trkpt>
      <trkpt lat="44.38082" lon="4.84111">
        <ele>235.18</ele>
        <time>2021-02-02T08:54:43Z</time>
      </trkpt>
      <trkpt lat="44.38096" lon="4.84096">
        <ele>236.14</ele>
        <time>2021-02-02T08:54:58Z</time>
      </trkpt>
      <trkpt lat="44.38102" lon="4.8409">
        <ele>238.54</ele>
        <time>2021-02-02T08:55:11Z</time>
      </trkpt>
      <trkpt lat="44.3811" lon="4.84092">
        <ele>241.43</ele>
        <time>2021-02-02T08:55:26Z</time>
      </trkpt>
      <trkpt lat="44.38114" lon="4.84099">
        <ele>242.87</ele>
        <time>2021-02-02T08:55:44Z</time>
      </trkpt>
      <trkpt lat="44.38117" lon="4.84103">
        <ele>242.87</ele>
        <time>2021-02-02T08:56:01Z</time>
      </trkpt>
      <trkpt lat="44.3812" lon="4.84103">
        <ele>243.83</ele>
        <time>2021-02-02T08:56:16Z</time>
      </trkpt>
      <trkpt lat="44.3812" lon="4.84107">
        <ele>245.27</ele>
        <time>2021-02-02T08:56:27Z</time>
      </trkpt>
      <trkpt lat="44.38121" lon="4.84113">
        <ele>247.2</ele>
        <time>2021-02-02T08:56:38Z</time>
      </trkpt>
      <trkpt lat="44.3812" lon="4.84115">
        <ele>248.64</ele>
        <time>2021-02-02T08:57:03Z</time>
      </trkpt>
      <trkpt lat="44.38116" lon="4.84116">
        <ele>249.12</ele>
        <time>2021-02-02T08:57:21Z</time>
      </trkpt>
      <trkpt lat="44.38113" lon="4.84117">
        <ele>250.56</ele>
        <time>2021-02-02T08:57:33Z</time>
      </trkpt>
      <trkpt lat="44.38107" lon="4.8413">
        <ele>252.96</ele>
        <time>2021-02-02T08:57:48Z</time>
      </trkpt>
      <trkpt lat="44.38104" lon="4.84141">
        <ele>254.41</ele>
        <time>2021-02-02T08:58:04Z</time>
      </trkpt>
      <trkpt lat="44.38103" lon="4.84143">
        <ele>254.41</ele>
        <time>2021-02-02T08:58:21Z</time>
      </trkpt>
      <trkpt lat="44.38107" lon="4.84144">
        <ele>254.89</ele>
        <time>2021-02-02T08:58:36Z</time>
      </trkpt>
      <trkpt lat="44.38107" lon="4.84143">
        <ele>255.85</ele>
        <time>2021-02-02T08:58:51Z</time>
      </trkpt>
      <trkpt lat="44.38107" lon="4.84141">
        <ele>255.85</ele>
        <time>2021-02-02T08:59:11Z</time>
      </trkpt>
      <trkpt lat="44.38107" lon="4.84142">
        <ele>256.33</ele>
        <time>2021-02-02T08:59:38Z</time>
      </trkpt>
      <trkpt lat="44.38107" lon="4.84142">
        <ele>256.33</ele>
        <time>2021-02-02T09:00:00Z</time>
      </trkpt>
      <trkpt lat="44.38106" lon="4.84147">
        <ele>256.33</ele>
        <time>2021-02-02T09:00:19Z</time>
      </trkpt>
      <trkpt lat="44.38103" lon="4.84149">
        <ele>256.33</ele>
        <time>2021-02-02T09:00:37Z</time>
      </trkpt>
      <trkpt lat="44.38103" lon="4.84151">
        <ele>256.81</ele>
        <time>2021-02-02T09:00:53Z</time>
      </trkpt>
      <trkpt lat="44.381" lon="4.84153">
        <ele>256.81</ele>
        <time>2021-02-02T09:01:17Z</time>
      </trkpt>
      <trkpt lat="44.381" lon="4.84152">
        <ele>256.81</ele>
        <time>2021-02-02T09:01:51Z</time>
      </trkpt>
      <trkpt lat="44.38102" lon="4.84151">
        <ele>256.81</ele>
        <time>2021-02-02T09:02:18Z</time>
      </trkpt>
      <trkpt lat="44.38106" lon="4.84151">
        <ele>257.29</ele>
        <time>2021-02-02T09:02:49Z</time>
      </trkpt>
      <trkpt lat="44.38107" lon="4.8415">
        <ele>257.29</ele>
        <time>2021-02-02T09:03:23Z</time>
      </trkpt>
      <trkpt lat="44.38112" lon="4.84157">
        <ele>257.29</ele>
        <time>2021-02-02T09:03:33Z</time>
      </trkpt>
      <trkpt lat="44.38113" lon="4.84159">
        <ele>257.29</ele>
        <time>2021-02-02T09:03:35Z</time>
      </trkpt>
      <trkpt lat="44.38119" lon="4.84175">
        <ele>256.33</ele>
        <time>2021-02-02T09:03:49Z</time>
      </trkpt>
      <trkpt lat="44.38122" lon="4.84185">
        <ele>255.37</ele>
        <time>2021-02-02T09:04:01Z</time>
      </trkpt>
      <trkpt lat="44.38127" lon="4.84199">
        <ele>254.89</ele>
        <time>2021-02-02T09:04:16Z</time>
      </trkpt>
      <trkpt lat="44.38128" lon="4.84201">
        <ele>254.89</ele>
        <time>2021-02-02T09:04:21Z</time>
      </trkpt>
      <trkpt lat="44.38133" lon="4.84215">
        <ele>253.93</ele>
        <time>2021-02-02T09:04:37Z</time>
      </trkpt>
      <trkpt lat="44.38134" lon="4.84224">
        <ele>252.48</ele>
        <time>2021-02-02T09:04:51Z</time>
      </trkpt>
      <trkpt lat="44.3814" lon="4.84236">
        <ele>252</ele>
        <time>2021-02-02T09:05:05Z</time>
      </trkpt>
      <trkpt lat="44.38144" lon="4.84248">
        <ele>252</ele>
        <time>2021-02-02T09:05:22Z</time>
      </trkpt>
      <trkpt lat="44.38152" lon="4.84257">
        <ele>252.96</ele>
        <time>2021-02-02T09:05:35Z</time>
      </trkpt>
      <trkpt lat="44.38152" lon="4.84259">
        <ele>252.96</ele>
        <time>2021-02-02T09:05:36Z</time>
      </trkpt>
      <trkpt lat="44.38156" lon="4.84265">
        <ele>254.41</ele>
        <time>2021-02-02T09:05:48Z</time>
      </trkpt>
      <trkpt lat="44.38156" lon="4.84272">
        <ele>252.96</ele>
        <time>2021-02-02T09:05:57Z</time>
      </trkpt>
      <trkpt lat="44.38156" lon="4.84281">
        <ele>250.56</ele>
        <time>2021-02-02T09:06:11Z</time>
      </trkpt>
      <trkpt lat="44.38154" lon="4.84286">
        <ele>248.16</ele>
        <time>2021-02-02T09:06:23Z</time>
      </trkpt>
      <trkpt lat="44.38155" lon="4.84298">
        <ele>245.75</ele>
        <time>2021-02-02T09:06:38Z</time>
      </trkpt>
      <trkpt lat="44.38157" lon="4.84306">
        <ele>246.23</ele>
        <time>2021-02-02T09:06:53Z</time>
      </trkpt>
      <trkpt lat="44.38155" lon="4.84314">
        <ele>242.87</ele>
        <time>2021-02-02T09:07:04Z</time>
      </trkpt>
      <trkpt lat="44.38156" lon="4.84326">
        <ele>241.91</ele>
        <time>2021-02-02T09:07:15Z</time>
      </trkpt>
      <trkpt lat="44.38156" lon="4.84333">
        <ele>240.95</ele>
        <time>2021-02-02T09:07:20Z</time>
      </trkpt>
      <trkpt lat="44.38157" lon="4.84342">
        <ele>239.02</ele>
        <time>2021-02-02T09:07:35Z</time>
      </trkpt>
      <trkpt lat="44.38152" lon="4.84337">
        <ele>236.14</ele>
        <time>2021-02-02T09:07:52Z</time>
      </trkpt>
      <trkpt lat="44.38147" lon="4.84327">
        <ele>234.22</ele>
        <time>2021-02-02T09:08:05Z</time>
      </trkpt>
      <trkpt lat="44.38142" lon="4.84333">
        <ele>232.3</ele>
        <time>2021-02-02T09:08:18Z</time>
      </trkpt>
      <trkpt lat="44.38141" lon="4.84348">
        <ele>229.89</ele>
        <time>2021-02-02T09:08:36Z</time>
      </trkpt>
      <trkpt lat="44.38142" lon="4.8436">
        <ele>228.45</ele>
        <time>2021-02-02T09:08:46Z</time>
      </trkpt>
      <trkpt lat="44.38137" lon="4.84371">
        <ele>227.01</ele>
        <time>2021-02-02T09:08:55Z</time>
      </trkpt>
      <trkpt lat="44.38132" lon="4.84381">
        <ele>225.57</ele>
        <time>2021-02-02T09:09:09Z</time>
      </trkpt>
      <trkpt lat="44.38128" lon="4.84377">
        <ele>224.12</ele>
        <time>2021-02-02T09:09:25Z</time>
      </trkpt>
      <trkpt lat="44.38129" lon="4.84379">
        <ele>224.12</ele>
        <time>2021-02-02T09:09:47Z</time>
      </trkpt>
      <trkpt lat="44.38121" lon="4.84379">
        <ele>222.2</ele>
        <time>2021-02-02T09:10:01Z</time>
      </trkpt>
      <trkpt lat="44.38119" lon="4.8438">
        <ele>222.68</ele>
        <time>2021-02-02T09:10:03Z</time>
      </trkpt>
      <trkpt lat="44.381" lon="4.84385">
        <ele>220.76</ele>
        <time>2021-02-02T09:10:18Z</time>
      </trkpt>
      <trkpt lat="44.38084" lon="4.84387">
        <ele>220.76</ele>
        <time>2021-02-02T09:10:34Z</time>
      </trkpt>
      <trkpt lat="44.38083" lon="4.84391">
        <ele>220.76</ele>
        <time>2021-02-02T09:10:51Z</time>
      </trkpt>
      <trkpt lat="44.38083" lon="4.844">
        <ele>220.76</ele>
        <time>2021-02-02T09:11:07Z</time>
      </trkpt>
      <trkpt lat="44.38085" lon="4.84418">
        <ele>219.8</ele>
        <time>2021-02-02T09:11:21Z</time>
      </trkpt>
      <trkpt lat="44.38086" lon="4.84418">
        <ele>221.72</ele>
        <time>2021-02-02T09:11:35Z</time>
      </trkpt>
      <trkpt lat="44.38086" lon="4.84424">
        <ele>221.72</ele>
        <time>2021-02-02T09:11:52Z</time>
      </trkpt>
      <trkpt lat="44.38087" lon="4.84441">
        <ele>220.28</ele>
        <time>2021-02-02T09:12:05Z</time>
      </trkpt>
      <trkpt lat="44.38089" lon="4.84462">
        <ele>219.8</ele>
        <time>2021-02-02T09:12:20Z</time>
      </trkpt>
      <trkpt lat="44.38097" lon="4.84473">
        <ele>218.84</ele>
        <time>2021-02-02T09:12:33Z</time>
      </trkpt>
      <trkpt lat="44.38094" lon="4.84489">
        <ele>217.4</ele>
        <time>2021-02-02T09:12:47Z</time>
      </trkpt>
      <trkpt lat="44.38088" lon="4.84509">
        <ele>216.91</ele>
        <time>2021-02-02T09:13:03Z</time>
      </trkpt>
      <trkpt lat="44.38086" lon="4.84532">
        <ele>215.95</ele>
        <time>2021-02-02T09:13:18Z</time>
      </trkpt>
      <trkpt lat="44.38074" lon="4.84551">
        <ele>214.51</ele>
        <time>2021-02-02T09:13:34Z</time>
      </trkpt>
      <trkpt lat="44.38066" lon="4.84563">
        <ele>214.51</ele>
        <time>2021-02-02T09:13:46Z</time>
      </trkpt>
      <trkpt lat="44.38056" lon="4.84576">
        <ele>214.03</ele>
        <time>2021-02-02T09:14:01Z</time>
      </trkpt>
      <trkpt lat="44.38043" lon="4.84587">
        <ele>213.55</ele>
        <time>2021-02-02T09:14:15Z</time>
      </trkpt>
      <trkpt lat="44.38025" lon="4.84601">
        <ele>212.11</ele>
        <time>2021-02-02T09:14:31Z</time>
      </trkpt>
      <trkpt lat="44.38008" lon="4.84619">
        <ele>211.63</ele>
        <time>2021-02-02T09:14:48Z</time>
      </trkpt>
      <trkpt lat="44.37996" lon="4.84631">
        <ele>210.19</ele>
        <time>2021-02-02T09:15:01Z</time>
      </trkpt>
      <trkpt lat="44.37979" lon="4.84645">
        <ele>209.7</ele>
        <time>2021-02-02T09:15:19Z</time>
      </trkpt>
      <trkpt lat="44.37967" lon="4.84656">
        <ele>208.74</ele>
        <time>2021-02-02T09:15:33Z</time>
      </trkpt>
      <trkpt lat="44.37949" lon="4.84666">
        <ele>207.78</ele>
        <time>2021-02-02T09:15:49Z</time>
      </trkpt>
      <trkpt lat="44.37942" lon="4.8467">
        <ele>207.3</ele>
        <time>2021-02-02T09:16:04Z</time>
      </trkpt>
      <trkpt lat="44.37932" lon="4.84671">
        <ele>207.3</ele>
        <time>2021-02-02T09:16:26Z</time>
      </trkpt>
      <trkpt lat="44.37918" lon="4.84677">
        <ele>206.82</ele>
        <time>2021-02-02T09:16:40Z</time>
      </trkpt>
      <trkpt lat="44.37905" lon="4.84687">
        <ele>205.86</ele>
        <time>2021-02-02T09:16:54Z</time>
      </trkpt>
      <trkpt lat="44.37894" lon="4.84698">
        <ele>204.42</ele>
        <time>2021-02-02T09:17:07Z</time>
      </trkpt>
      <trkpt lat="44.3788" lon="4.84709">
        <ele>204.42</ele>
        <time>2021-02-02T09:17:20Z</time>
      </trkpt>
      <trkpt lat="44.37861" lon="4.84719">
        <ele>204.42</ele>
        <time>2021-02-02T09:17:35Z</time>
      </trkpt>
      <trkpt lat="44.37845" lon="4.84731">
        <ele>203.46</ele>
        <time>2021-02-02T09:17:49Z</time>
      </trkpt>
      <trkpt lat="44.37828" lon="4.84747">
        <ele>202.98</ele>
        <time>2021-02-02T09:18:07Z</time>
      </trkpt>
      <trkpt lat="44.3781" lon="4.84767">
        <ele>202.01</ele>
        <time>2021-02-02T09:18:23Z</time>
      </trkpt>
      <trkpt lat="44.37805" lon="4.84777">
        <ele>200.57</ele>
        <time>2021-02-02T09:18:36Z</time>
      </trkpt>
      <trkpt lat="44.37804" lon="4.84793">
        <ele>198.17</ele>
        <time>2021-02-02T09:18:50Z</time>
      </trkpt>
      <trkpt lat="44.37796" lon="4.84802">
        <ele>197.69</ele>
        <time>2021-02-02T09:19:04Z</time>
      </trkpt>
      <trkpt lat="44.3779" lon="4.84817">
        <ele>196.73</ele>
        <time>2021-02-02T09:19:18Z</time>
      </trkpt>
      <trkpt lat="44.37779" lon="4.84836">
        <ele>196.73</ele>
        <time>2021-02-02T09:19:32Z</time>
      </trkpt>
      <trkpt lat="44.37767" lon="4.84857">
        <ele>195.77</ele>
        <time>2021-02-02T09:19:47Z</time>
      </trkpt>
      <trkpt lat="44.37754" lon="4.84867">
        <ele>193.84</ele>
        <time>2021-02-02T09:20:00Z</time>
      </trkpt>
      <trkpt lat="44.37742" lon="4.84878">
        <ele>193.36</ele>
        <time>2021-02-02T09:20:11Z</time>
      </trkpt>
      <trkpt lat="44.37729" lon="4.84898">
        <ele>192.4</ele>
        <time>2021-02-02T09:20:26Z</time>
      </trkpt>
      <trkpt lat="44.37718" lon="4.84916">
        <ele>191.44</ele>
        <time>2021-02-02T09:20:39Z</time>
      </trkpt>
      <trkpt lat="44.37709" lon="4.84931">
        <ele>191.44</ele>
        <time>2021-02-02T09:20:51Z</time>
      </trkpt>
      <trkpt lat="44.37711" lon="4.8494">
        <ele>191.44</ele>
        <time>2021-02-02T09:20:55Z</time>
      </trkpt>
      <trkpt lat="44.37717" lon="4.84955">
        <ele>192.4</ele>
        <time>2021-02-02T09:21:05Z</time>
      </trkpt>
      <trkpt lat="44.37726" lon="4.84973">
        <ele>195.77</ele>
        <time>2021-02-02T09:21:21Z</time>
      </trkpt>
      <trkpt lat="44.37727" lon="4.84982">
        <ele>196.25</ele>
        <time>2021-02-02T09:21:34Z</time>
      </trkpt>
      <trkpt lat="44.37735" lon="4.84979">
        <ele>196.73</ele>
        <time>2021-02-02T09:21:46Z</time>
      </trkpt>
      <trkpt lat="44.3774" lon="4.8499">
        <ele>199.61</ele>
        <time>2021-02-02T09:21:57Z</time>
      </trkpt>
      <trkpt lat="44.37749" lon="4.84995">
        <ele>202.98</ele>
        <time>2021-02-02T09:22:10Z</time>
      </trkpt>
      <trkpt lat="44.3776" lon="4.85006">
        <ele>205.86</ele>
        <time>2021-02-02T09:22:25Z</time>
      </trkpt>
      <trkpt lat="44.37766" lon="4.85013">
        <ele>209.22</ele>
        <time>2021-02-02T09:22:36Z</time>
      </trkpt>
      <trkpt lat="44.37774" lon="4.85017">
        <ele>211.15</ele>
        <time>2021-02-02T09:22:49Z</time>
      </trkpt>
      <trkpt lat="44.3778" lon="4.85025">
        <ele>214.51</ele>
        <time>2021-02-02T09:23:00Z</time>
      </trkpt>
      <trkpt lat="44.37787" lon="4.85031">
        <ele>215.47</ele>
        <time>2021-02-02T09:23:09Z</time>
      </trkpt>
      <trkpt lat="44.37796" lon="4.8504">
        <ele>218.36</ele>
        <time>2021-02-02T09:23:23Z</time>
      </trkpt>
      <trkpt lat="44.3781" lon="4.8505">
        <ele>219.32</ele>
        <time>2021-02-02T09:23:39Z</time>
      </trkpt>
      <trkpt lat="44.37815" lon="4.85057">
        <ele>222.68</ele>
        <time>2021-02-02T09:23:52Z</time>
      </trkpt>
      <trkpt lat="44.37815" lon="4.85068">
        <ele>224.61</ele>
        <time>2021-02-02T09:24:05Z</time>
      </trkpt>
      <trkpt lat="44.37815" lon="4.85068">
        <ele>225.57</ele>
        <time>2021-02-02T09:24:19Z</time>
      </trkpt>
      <trkpt lat="44.37817" lon="4.85077">
        <ele>226.05</ele>
        <time>2021-02-02T09:24:30Z</time>
      </trkpt>
      <trkpt lat="44.37819" lon="4.85092">
        <ele>228.45</ele>
        <time>2021-02-02T09:24:45Z</time>
      </trkpt>
      <trkpt lat="44.37817" lon="4.85097">
        <ele>228.45</ele>
        <time>2021-02-02T09:25:01Z</time>
      </trkpt>
      <trkpt lat="44.37811" lon="4.85095">
        <ele>228.45</ele>
        <time>2021-02-02T09:25:20Z</time>
      </trkpt>
      <trkpt lat="44.37808" lon="4.85096">
        <ele>228.45</ele>
        <time>2021-02-02T09:25:23Z</time>
      </trkpt>
      <trkpt lat="44.37806" lon="4.85096">
        <ele>227.01</ele>
        <time>2021-02-02T09:25:25Z</time>
      </trkpt>
      <trkpt lat="44.37797" lon="4.851">
        <ele>226.05</ele>
        <time>2021-02-02T09:25:36Z</time>
      </trkpt>
      <trkpt lat="44.37782" lon="4.85103">
        <ele>225.09</ele>
        <time>2021-02-02T09:25:50Z</time>
      </trkpt>
      <trkpt lat="44.37766" lon="4.85107">
        <ele>223.16</ele>
        <time>2021-02-02T09:26:04Z</time>
      </trkpt>
      <trkpt lat="44.37749" lon="4.85113">
        <ele>221.24</ele>
        <time>2021-02-02T09:26:18Z</time>
      </trkpt>
      <trkpt lat="44.37733" lon="4.85129">
        <ele>218.36</ele>
        <time>2021-02-02T09:26:35Z</time>
      </trkpt>
      <trkpt lat="44.37723" lon="4.85141">
        <ele>216.91</ele>
        <time>2021-02-02T09:26:50Z</time>
      </trkpt>
      <trkpt lat="44.37707" lon="4.85154">
        <ele>214.51</ele>
        <time>2021-02-02T09:27:08Z</time>
      </trkpt>
      <trkpt lat="44.37705" lon="4.85167">
        <ele>213.55</ele>
        <time>2021-02-02T09:27:23Z</time>
      </trkpt>
      <trkpt lat="44.3772" lon="4.85169">
        <ele>214.99</ele>
        <time>2021-02-02T09:27:37Z</time>
      </trkpt>
      <trkpt lat="44.37738" lon="4.85171">
        <ele>216.43</ele>
        <time>2021-02-02T09:27:54Z</time>
      </trkpt>
      <trkpt lat="44.37755" lon="4.85174">
        <ele>217.4</ele>
        <time>2021-02-02T09:28:09Z</time>
      </trkpt>
      <trkpt lat="44.37771" lon="4.85185">
        <ele>218.36</ele>
        <time>2021-02-02T09:28:25Z</time>
      </trkpt>
      <trkpt lat="44.37774" lon="4.85188">
        <ele>218.36</ele>
        <time>2021-02-02T09:28:39Z</time>
      </trkpt>
      <trkpt lat="44.37771" lon="4.85188">
        <ele>218.36</ele>
        <time>2021-02-02T09:28:52Z</time>
      </trkpt>
      <trkpt lat="44.37782" lon="4.85193">
        <ele>218.36</ele>
        <time>2021-02-02T09:29:18Z</time>
      </trkpt>
      <trkpt lat="44.37797" lon="4.85201">
        <ele>219.8</ele>
        <time>2021-02-02T09:29:35Z</time>
      </trkpt>
      <trkpt lat="44.37797" lon="4.85202">
        <ele>219.8</ele>
        <time>2021-02-02T09:29:46Z</time>
      </trkpt>
      <trkpt lat="44.37797" lon="4.85202">
        <ele>219.8</ele>
        <time>2021-02-02T09:30:07Z</time>
      </trkpt>
      <trkpt lat="44.37798" lon="4.85205">
        <ele>219.8</ele>
        <time>2021-02-02T09:30:29Z</time>
      </trkpt>
      <trkpt lat="44.37797" lon="4.85203">
        <ele>219.8</ele>
        <time>2021-02-02T09:30:44Z</time>
      </trkpt>
      <trkpt lat="44.37805" lon="4.85205">
        <ele>220.28</ele>
        <time>2021-02-02T09:30:58Z</time>
      </trkpt>
      <trkpt lat="44.37804" lon="4.85204">
        <ele>220.28</ele>
        <time>2021-02-02T09:31:15Z</time>
      </trkpt>
      <trkpt lat="44.37803" lon="4.85202">
        <ele>220.28</ele>
        <time>2021-02-02T09:31:28Z</time>
      </trkpt>
      <trkpt lat="44.37802" lon="4.85203">
        <ele>220.28</ele>
        <time>2021-02-02T09:31:44Z</time>
      </trkpt>
      <trkpt lat="44.37808" lon="4.85207">
        <ele>220.28</ele>
        <time>2021-02-02T09:32:01Z</time>
      </trkpt>
      <trkpt lat="44.37812" lon="4.85211">
        <ele>220.28</ele>
        <time>2021-02-02T09:32:16Z</time>
      </trkpt>
      <trkpt lat="44.37816" lon="4.85213">
        <ele>220.28</ele>
        <time>2021-02-02T09:32:21Z</time>
      </trkpt>
      <trkpt lat="44.37825" lon="4.85213">
        <ele>220.76</ele>
        <time>2021-02-02T09:32:30Z</time>
      </trkpt>
      <trkpt lat="44.37825" lon="4.85228">
        <ele>219.8</ele>
        <time>2021-02-02T09:32:43Z</time>
      </trkpt>
      <trkpt lat="44.37825" lon="4.85229">
        <ele>219.8</ele>
        <time>2021-02-02T09:32:44Z</time>
      </trkpt>
      <trkpt lat="44.37815" lon="4.85247">
        <ele>216.43</ele>
        <time>2021-02-02T09:33:00Z</time>
      </trkpt>
      <trkpt lat="44.3781" lon="4.85241">
        <ele>215.95</ele>
        <time>2021-02-02T09:33:13Z</time>
      </trkpt>
      <trkpt lat="44.37804" lon="4.85245">
        <ele>215.95</ele>
        <time>2021-02-02T09:33:26Z</time>
      </trkpt>
      <trkpt lat="44.37802" lon="4.85246">
        <ele>214.51</ele>
        <time>2021-02-02T09:33:40Z</time>
      </trkpt>
      <trkpt lat="44.37797" lon="4.85236">
        <ele>214.51</ele>
        <time>2021-02-02T09:33:54Z</time>
      </trkpt>
      <trkpt lat="44.37798" lon="4.8523">
        <ele>214.51</ele>
        <time>2021-02-02T09:34:08Z</time>
      </trkpt>
      <trkpt lat="44.37794" lon="4.85224">
        <ele>214.51</ele>
        <time>2021-02-02T09:34:21Z</time>
      </trkpt>
      <trkpt lat="44.37795" lon="4.85225">
        <ele>214.99</ele>
        <time>2021-02-02T09:34:38Z</time>
      </trkpt>
      <trkpt lat="44.37795" lon="4.85229">
        <ele>214.99</ele>
        <time>2021-02-02T09:34:59Z</time>
      </trkpt>
      <trkpt lat="44.37796" lon="4.85231">
        <ele>214.99</ele>
        <time>2021-02-02T09:35:24Z</time>
      </trkpt>
      <trkpt lat="44.37796" lon="4.85232">
        <ele>214.99</ele>
        <time>2021-02-02T09:35:43Z</time>
      </trkpt>
      <trkpt lat="44.37797" lon="4.85234">
        <ele>214.99</ele>
        <time>2021-02-02T09:36:02Z</time>
      </trkpt>
      <trkpt lat="44.37797" lon="4.85235">
        <ele>214.99</ele>
        <time>2021-02-02T09:36:25Z</time>
      </trkpt>
      <trkpt lat="44.37798" lon="4.85235">
        <ele>215.47</ele>
        <time>2021-02-02T09:36:43Z</time>
      </trkpt>
      <trkpt lat="44.37805" lon="4.85242">
        <ele>215.47</ele>
        <time>2021-02-02T09:36:56Z</time>
      </trkpt>
      <trkpt lat="44.37814" lon="4.85241">
        <ele>215.47</ele>
        <time>2021-02-02T09:37:09Z</time>
      </trkpt>
      <trkpt lat="44.37819" lon="4.85249">
        <ele>216.43</ele>
        <time>2021-02-02T09:37:26Z</time>
      </trkpt>
      <trkpt lat="44.37815" lon="4.85262">
        <ele>215.47</ele>
        <time>2021-02-02T09:37:37Z</time>
      </trkpt>
      <trkpt lat="44.37809" lon="4.85276">
        <ele>214.03</ele>
        <time>2021-02-02T09:37:50Z</time>
      </trkpt>
      <trkpt lat="44.37808" lon="4.85282">
        <ele>213.55</ele>
        <time>2021-02-02T09:37:55Z</time>
      </trkpt>
      <trkpt lat="44.37805" lon="4.85292">
        <ele>213.07</ele>
        <time>2021-02-02T09:38:03Z</time>
      </trkpt>
      <trkpt lat="44.37797" lon="4.85308">
        <ele>212.59</ele>
        <time>2021-02-02T09:38:18Z</time>
      </trkpt>
      <trkpt lat="44.37796" lon="4.85309">
        <ele>212.59</ele>
        <time>2021-02-02T09:38:22Z</time>
      </trkpt>
      <trkpt lat="44.37794" lon="4.85308">
        <ele>212.11</ele>
        <time>2021-02-02T09:38:25Z</time>
      </trkpt>
      <trkpt lat="44.37781" lon="4.85302">
        <ele>211.63</ele>
        <time>2021-02-02T09:38:40Z</time>
      </trkpt>
      <trkpt lat="44.37773" lon="4.85303">
        <ele>211.15</ele>
        <time>2021-02-02T09:38:55Z</time>
      </trkpt>
      <trkpt lat="44.37763" lon="4.85313">
        <ele>207.78</ele>
        <time>2021-02-02T09:39:10Z</time>
      </trkpt>
      <trkpt lat="44.37756" lon="4.85321">
        <ele>204.9</ele>
        <time>2021-02-02T09:39:24Z</time>
      </trkpt>
      <trkpt lat="44.37749" lon="4.85336">
        <ele>202.49</ele>
        <time>2021-02-02T09:39:38Z</time>
      </trkpt>
      <trkpt lat="44.37743" lon="4.85357">
        <ele>199.61</ele>
        <time>2021-02-02T09:39:53Z</time>
      </trkpt>
      <trkpt lat="44.37735" lon="4.85371">
        <ele>197.69</ele>
        <time>2021-02-02T09:40:07Z</time>
      </trkpt>
      <trkpt lat="44.37726" lon="4.85371">
        <ele>195.77</ele>
        <time>2021-02-02T09:40:16Z</time>
      </trkpt>
      <trkpt lat="44.37718" lon="4.85383">
        <ele>193.84</ele>
        <time>2021-02-02T09:40:25Z</time>
      </trkpt>
      <trkpt lat="44.37706" lon="4.85398">
        <ele>191.44</ele>
        <time>2021-02-02T09:40:41Z</time>
      </trkpt>
      <trkpt lat="44.37701" lon="4.85419">
        <ele>189.52</ele>
        <time>2021-02-02T09:40:58Z</time>
      </trkpt>
      <trkpt lat="44.37702" lon="4.85436">
        <ele>186.63</ele>
        <time>2021-02-02T09:41:11Z</time>
      </trkpt>
      <trkpt lat="44.37704" lon="4.85447">
        <ele>186.15</ele>
        <time>2021-02-02T09:41:19Z</time>
      </trkpt>
      <trkpt lat="44.37705" lon="4.85472">
        <ele>183.75</ele>
        <time>2021-02-02T09:41:37Z</time>
      </trkpt>
      <trkpt lat="44.37711" lon="4.85484">
        <ele>183.27</ele>
        <time>2021-02-02T09:41:48Z</time>
      </trkpt>
      <trkpt lat="44.37719" lon="4.8551">
        <ele>180.38</ele>
        <time>2021-02-02T09:42:05Z</time>
      </trkpt>
      <trkpt lat="44.3773" lon="4.85532">
        <ele>178.94</ele>
        <time>2021-02-02T09:42:21Z</time>
      </trkpt>
      <trkpt lat="44.37742" lon="4.85552">
        <ele>176.06</ele>
        <time>2021-02-02T09:42:38Z</time>
      </trkpt>
      <trkpt lat="44.37741" lon="4.85558">
        <ele>176.06</ele>
        <time>2021-02-02T09:42:42Z</time>
      </trkpt>
      <trkpt lat="44.37727" lon="4.85579">
        <ele>172.69</ele>
        <time>2021-02-02T09:42:59Z</time>
      </trkpt>
      <trkpt lat="44.37719" lon="4.85594">
        <ele>170.77</ele>
        <time>2021-02-02T09:43:12Z</time>
      </trkpt>
      <trkpt lat="44.3771" lon="4.85614">
        <ele>168.37</ele>
        <time>2021-02-02T09:43:29Z</time>
      </trkpt>
      <trkpt lat="44.37705" lon="4.85636">
        <ele>165.96</ele>
        <time>2021-02-02T09:43:44Z</time>
      </trkpt>
      <trkpt lat="44.37705" lon="4.85638">
        <ele>165.96</ele>
        <time>2021-02-02T09:43:45Z</time>
      </trkpt>
      <trkpt lat="44.37701" lon="4.85668">
        <ele>163.56</ele>
        <time>2021-02-02T09:44:01Z</time>
      </trkpt>
      <trkpt lat="44.37696" lon="4.85702">
        <ele>161.64</ele>
        <time>2021-02-02T09:44:21Z</time>
      </trkpt>
      <trkpt lat="44.37696" lon="4.85705">
        <ele>161.16</ele>
        <time>2021-02-02T09:44:23Z</time>
      </trkpt>
      <trkpt lat="44.37699" lon="4.85708">
        <ele>160.68</ele>
        <time>2021-02-02T09:44:27Z</time>
      </trkpt>
      <trkpt lat="44.37725" lon="4.8571">
        <ele>160.68</ele>
        <time>2021-02-02T09:44:46Z</time>
      </trkpt>
      <trkpt lat="44.37752" lon="4.85705">
        <ele>162.6</ele>
        <time>2021-02-02T09:45:07Z</time>
      </trkpt>
      <trkpt lat="44.37779" lon="4.85699">
        <ele>163.08</ele>
        <time>2021-02-02T09:45:27Z</time>
      </trkpt>
      <trkpt lat="44.37805" lon="4.85692">
        <ele>163.56</ele>
        <time>2021-02-02T09:45:47Z</time>
      </trkpt>
      <trkpt lat="44.37828" lon="4.85685">
        <ele>165</ele>
        <time>2021-02-02T09:46:05Z</time>
      </trkpt>
      <trkpt lat="44.37845" lon="4.85678">
        <ele>165</ele>
        <time>2021-02-02T09:46:20Z</time>
      </trkpt>
      <trkpt lat="44.37869" lon="4.8567">
        <ele>166.45</ele>
        <time>2021-02-02T09:46:38Z</time>
      </trkpt>
      <trkpt lat="44.37895" lon="4.85663">
        <ele>167.41</ele>
        <time>2021-02-02T09:46:59Z</time>
      </trkpt>
      <trkpt lat="44.37916" lon="4.85659">
        <ele>168.37</ele>
        <time>2021-02-02T09:47:16Z</time>
      </trkpt>
      <trkpt lat="44.37934" lon="4.85656">
        <ele>169.81</ele>
        <time>2021-02-02T09:47:32Z</time>
      </trkpt>
      <trkpt lat="44.37957" lon="4.85654">
        <ele>170.29</ele>
        <time>2021-02-02T09:47:50Z</time>
      </trkpt>
      <trkpt lat="44.37971" lon="4.85652">
        <ele>170.77</ele>
        <time>2021-02-02T09:48:01Z</time>
      </trkpt>
      <trkpt lat="44.37993" lon="4.85648">
        <ele>171.25</ele>
        <time>2021-02-02T09:48:18Z</time>
      </trkpt>
      <trkpt lat="44.38009" lon="4.85646">
        <ele>171.73</ele>
        <time>2021-02-02T09:48:35Z</time>
      </trkpt>
      <trkpt lat="44.38004" lon="4.85649">
        <ele>171.73</ele>
        <time>2021-02-02T09:48:47Z</time>
      </trkpt>
      <trkpt lat="44.38004" lon="4.85649">
        <ele>171.73</ele>
        <time>2021-02-02T09:49:03Z</time>
      </trkpt>
      <trkpt lat="44.38005" lon="4.85645">
        <ele>171.73</ele>
        <time>2021-02-02T09:49:21Z</time>
      </trkpt>
      <trkpt lat="44.38014" lon="4.85643">
        <ele>171.73</ele>
        <time>2021-02-02T09:49:36Z</time>
      </trkpt>
      <trkpt lat="44.38033" lon="4.8564">
        <ele>172.21</ele>
        <time>2021-02-02T09:49:52Z</time>
      </trkpt>
      <trkpt lat="44.38055" lon="4.85639">
        <ele>172.69</ele>
        <time>2021-02-02T09:50:08Z</time>
      </trkpt>
      <trkpt lat="44.38078" lon="4.85637">
        <ele>173.17</ele>
        <time>2021-02-02T09:50:25Z</time>
      </trkpt>
      <trkpt lat="44.3808" lon="4.85636">
        <ele>173.17</ele>
        <time>2021-02-02T09:50:27Z</time>
      </trkpt>
      <trkpt lat="44.38104" lon="4.8563">
        <ele>174.14</ele>
        <time>2021-02-02T09:50:45Z</time>
      </trkpt>
      <trkpt lat="44.3812" lon="4.85623">
        <ele>175.1</ele>
        <time>2021-02-02T09:50:59Z</time>
      </trkpt>
      <trkpt lat="44.38121" lon="4.85622">
        <ele>175.1</ele>
        <time>2021-02-02T09:51:00Z</time>
      </trkpt>
      <trkpt lat="44.38144" lon="4.85614">
        <ele>176.54</ele>
        <time>2021-02-02T09:51:18Z</time>
      </trkpt>
      <trkpt lat="44.3816" lon="4.85608">
        <ele>177.5</ele>
        <time>2021-02-02T09:51:32Z</time>
      </trkpt>
      <trkpt lat="44.38176" lon="4.85601">
        <ele>177.98</ele>
        <time>2021-02-02T09:51:47Z</time>
      </trkpt>
      <trkpt lat="44.38196" lon="4.85596">
        <ele>178.94</ele>
        <time>2021-02-02T09:52:02Z</time>
      </trkpt>
      <trkpt lat="44.38215" lon="4.85593">
        <ele>180.38</ele>
        <time>2021-02-02T09:52:18Z</time>
      </trkpt>
      <trkpt lat="44.38236" lon="4.85589">
        <ele>181.35</ele>
        <time>2021-02-02T09:52:36Z</time>
      </trkpt>
      <trkpt lat="44.38251" lon="4.85587">
        <ele>181.83</ele>
        <time>2021-02-02T09:52:48Z</time>
      </trkpt>
      <trkpt lat="44.38269" lon="4.85584">
        <ele>181.83</ele>
        <time>2021-02-02T09:53:05Z</time>
      </trkpt>
      <trkpt lat="44.38272" lon="4.85584">
        <ele>182.31</ele>
        <time>2021-02-02T09:53:08Z</time>
      </trkpt>
      <trkpt lat="44.38281" lon="4.85586">
        <ele>182.31</ele>
        <time>2021-02-02T09:53:16Z</time>
      </trkpt>
      <trkpt lat="44.38301" lon="4.85584">
        <ele>182.31</ele>
        <time>2021-02-02T09:53:32Z</time>
      </trkpt>
      <trkpt lat="44.38324" lon="4.85582">
        <ele>182.79</ele>
        <time>2021-02-02T09:53:49Z</time>
      </trkpt>
      <trkpt lat="44.38345" lon="4.85583">
        <ele>183.75</ele>
        <time>2021-02-02T09:54:07Z</time>
      </trkpt>
      <trkpt lat="44.38348" lon="4.85583">
        <ele>183.75</ele>
        <time>2021-02-02T09:54:09Z</time>
      </trkpt>
      <trkpt lat="44.38354" lon="4.85583">
        <ele>183.75</ele>
        <time>2021-02-02T09:54:15Z</time>
      </trkpt>
      <trkpt lat="44.38362" lon="4.85582">
        <ele>184.23</ele>
        <time>2021-02-02T09:54:21Z</time>
      </trkpt>
      <trkpt lat="44.38381" lon="4.85581">
        <ele>184.71</ele>
        <time>2021-02-02T09:54:36Z</time>
      </trkpt>
      <trkpt lat="44.38394" lon="4.85577">
        <ele>185.67</ele>
        <time>2021-02-02T09:54:49Z</time>
      </trkpt>
      <trkpt lat="44.38411" lon="4.85568">
        <ele>187.11</ele>
        <time>2021-02-02T09:55:05Z</time>
      </trkpt>
      <trkpt lat="44.38428" lon="4.85556">
        <ele>188.56</ele>
        <time>2021-02-02T09:55:22Z</time>
      </trkpt>
      <trkpt lat="44.38432" lon="4.85543">
        <ele>190.48</ele>
        <time>2021-02-02T09:55:35Z</time>
      </trkpt>
      <trkpt lat="44.3843" lon="4.8553">
        <ele>193.36</ele>
        <time>2021-02-02T09:55:48Z</time>
      </trkpt>
      <trkpt lat="44.38426" lon="4.85511">
        <ele>196.73</ele>
        <time>2021-02-02T09:56:04Z</time>
      </trkpt>
      <trkpt lat="44.38425" lon="4.85497">
        <ele>200.09</ele>
        <time>2021-02-02T09:56:20Z</time>
      </trkpt>
      <trkpt lat="44.38424" lon="4.8548">
        <ele>203.46</ele>
        <time>2021-02-02T09:56:37Z</time>
      </trkpt>
      <trkpt lat="44.38423" lon="4.85469">
        <ele>205.38</ele>
        <time>2021-02-02T09:56:47Z</time>
      </trkpt>
      <trkpt lat="44.38423" lon="4.85454">
        <ele>208.26</ele>
        <time>2021-02-02T09:57:03Z</time>
      </trkpt>
      <trkpt lat="44.3842" lon="4.85438">
        <ele>211.15</ele>
        <time>2021-02-02T09:57:18Z</time>
      </trkpt>
      <trkpt lat="44.38416" lon="4.85422">
        <ele>214.03</ele>
        <time>2021-02-02T09:57:35Z</time>
      </trkpt>
      <trkpt lat="44.38409" lon="4.85406">
        <ele>216.43</ele>
        <time>2021-02-02T09:57:49Z</time>
      </trkpt>
      <trkpt lat="44.38402" lon="4.85391">
        <ele>218.84</ele>
        <time>2021-02-02T09:58:06Z</time>
      </trkpt>
      <trkpt lat="44.38401" lon="4.85386">
        <ele>219.8</ele>
        <time>2021-02-02T09:58:10Z</time>
      </trkpt>
      <trkpt lat="44.38395" lon="4.85374">
        <ele>222.2</ele>
        <time>2021-02-02T09:58:23Z</time>
      </trkpt>
      <trkpt lat="44.38388" lon="4.85358">
        <ele>225.09</ele>
        <time>2021-02-02T09:58:39Z</time>
      </trkpt>
      <trkpt lat="44.38379" lon="4.85346">
        <ele>227.49</ele>
        <time>2021-02-02T09:58:55Z</time>
      </trkpt>
      <trkpt lat="44.3837" lon="4.85331">
        <ele>229.89</ele>
        <time>2021-02-02T09:59:12Z</time>
      </trkpt>
      <trkpt lat="44.38363" lon="4.85318">
        <ele>232.78</ele>
        <time>2021-02-02T09:59:26Z</time>
      </trkpt>
      <trkpt lat="44.38357" lon="4.85304">
        <ele>234.7</ele>
        <time>2021-02-02T09:59:40Z</time>
      </trkpt>
      <trkpt lat="44.38353" lon="4.85291">
        <ele>237.58</ele>
        <time>2021-02-02T09:59:54Z</time>
      </trkpt>
      <trkpt lat="44.38352" lon="4.85273">
        <ele>239.99</ele>
        <time>2021-02-02T10:00:11Z</time>
      </trkpt>
      <trkpt lat="44.38352" lon="4.85267">
        <ele>239.99</ele>
        <time>2021-02-02T10:00:23Z</time>
      </trkpt>
      <trkpt lat="44.38353" lon="4.85266">
        <ele>240.47</ele>
        <time>2021-02-02T10:00:43Z</time>
      </trkpt>
      <trkpt lat="44.38356" lon="4.85267">
        <ele>240.47</ele>
        <time>2021-02-02T10:01:06Z</time>
      </trkpt>
      <trkpt lat="44.38357" lon="4.85267">
        <ele>240.47</ele>
        <time>2021-02-02T10:01:36Z</time>
      </trkpt>
      <trkpt lat="44.38355" lon="4.85266">
        <ele>240.47</ele>
        <time>2021-02-02T10:01:58Z</time>
      </trkpt>
      <trkpt lat="44.38356" lon="4.85266">
        <ele>240.47</ele>
        <time>2021-02-02T10:02:27Z</time>
      </trkpt>
      <trkpt lat="44.38356" lon="4.85266">
        <ele>240.47</ele>
        <time>2021-02-02T10:02:55Z</time>
      </trkpt>
      <trkpt lat="44.38356" lon="4.85266">
        <ele>239.51</ele>
        <time>2021-02-02T10:02:57Z</time>
      </trkpt>
      <trkpt lat="44.38354" lon="4.85266">
        <ele>239.51</ele>
        <time>2021-02-02T10:03:24Z</time>
      </trkpt>
      <trkpt lat="44.38356" lon="4.85267">
        <ele>239.51</ele>
        <time>2021-02-02T10:03:55Z</time>
      </trkpt>
      <trkpt lat="44.38356" lon="4.85268">
        <ele>239.02</ele>
        <time>2021-02-02T10:04:23Z</time>
      </trkpt>
      <trkpt lat="44.38355" lon="4.85267">
        <ele>239.51</ele>
        <time>2021-02-02T10:04:51Z</time>
      </trkpt>
      <trkpt lat="44.38356" lon="4.85266">
        <ele>239.51</ele>
        <time>2021-02-02T10:05:19Z</time>
      </trkpt>
      <trkpt lat="44.38356" lon="4.85267">
        <ele>239.51</ele>
        <time>2021-02-02T10:05:41Z</time>
      </trkpt>
      <trkpt lat="44.38355" lon="4.85267">
        <ele>239.51</ele>
        <time>2021-02-02T10:06:06Z</time>
      </trkpt>
      <trkpt lat="44.38357" lon="4.85268">
        <ele>239.51</ele>
        <time>2021-02-02T10:06:14Z</time>
      </trkpt>
      <trkpt lat="44.38363" lon="4.85268">
        <ele>240.95</ele>
        <time>2021-02-02T10:06:20Z</time>
      </trkpt>
      <trkpt lat="44.38381" lon="4.85275">
        <ele>242.87</ele>
        <time>2021-02-02T10:06:39Z</time>
      </trkpt>
      <trkpt lat="44.38382" lon="4.85279">
        <ele>243.35</ele>
        <time>2021-02-02T10:06:43Z</time>
      </trkpt>
      <trkpt lat="44.38391" lon="4.85285">
        <ele>243.83</ele>
        <time>2021-02-02T10:07:00Z</time>
      </trkpt>
      <trkpt lat="44.38396" lon="4.85286">
        <ele>244.79</ele>
        <time>2021-02-02T10:07:17Z</time>
      </trkpt>
      <trkpt lat="44.38397" lon="4.85287">
        <ele>244.79</ele>
        <time>2021-02-02T10:07:19Z</time>
      </trkpt>
      <trkpt lat="44.38412" lon="4.85283">
        <ele>247.68</ele>
        <time>2021-02-02T10:07:37Z</time>
      </trkpt>
      <trkpt lat="44.38419" lon="4.85271">
        <ele>249.12</ele>
        <time>2021-02-02T10:07:51Z</time>
      </trkpt>
      <trkpt lat="44.38429" lon="4.85251">
        <ele>250.56</ele>
        <time>2021-02-02T10:08:08Z</time>
      </trkpt>
      <trkpt lat="44.38438" lon="4.85245">
        <ele>251.52</ele>
        <time>2021-02-02T10:08:19Z</time>
      </trkpt>
      <trkpt lat="44.38453" lon="4.85238">
        <ele>252</ele>
        <time>2021-02-02T10:08:34Z</time>
      </trkpt>
      <trkpt lat="44.38468" lon="4.85231">
        <ele>252</ele>
        <time>2021-02-02T10:08:50Z</time>
      </trkpt>
      <trkpt lat="44.38475" lon="4.85227">
        <ele>252</ele>
        <time>2021-02-02T10:08:57Z</time>
      </trkpt>
      <trkpt lat="44.3849" lon="4.85222">
        <ele>251.04</ele>
        <time>2021-02-02T10:09:12Z</time>
      </trkpt>
      <trkpt lat="44.38504" lon="4.85218">
        <ele>250.56</ele>
        <time>2021-02-02T10:09:25Z</time>
      </trkpt>
      <trkpt lat="44.38507" lon="4.85216">
        <ele>250.56</ele>
        <time>2021-02-02T10:09:28Z</time>
      </trkpt>
      <trkpt lat="44.38524" lon="4.85209">
        <ele>252</ele>
        <time>2021-02-02T10:09:43Z</time>
      </trkpt>
      <trkpt lat="44.38541" lon="4.85205">
        <ele>252</ele>
        <time>2021-02-02T10:09:58Z</time>
      </trkpt>
      <trkpt lat="44.38558" lon="4.85206">
        <ele>252.48</ele>
        <time>2021-02-02T10:10:13Z</time>
      </trkpt>
      <trkpt lat="44.38563" lon="4.85206">
        <ele>252.48</ele>
        <time>2021-02-02T10:10:17Z</time>
      </trkpt>
      <trkpt lat="44.38571" lon="4.85206">
        <ele>252.48</ele>
        <time>2021-02-02T10:10:23Z</time>
      </trkpt>
      <trkpt lat="44.38585" lon="4.85207">
        <ele>252.96</ele>
        <time>2021-02-02T10:10:36Z</time>
      </trkpt>
      <trkpt lat="44.38599" lon="4.85205">
        <ele>253.93</ele>
        <time>2021-02-02T10:10:49Z</time>
      </trkpt>
      <trkpt lat="44.38602" lon="4.85206">
        <ele>253.93</ele>
        <time>2021-02-02T10:10:51Z</time>
      </trkpt>
      <trkpt lat="44.38616" lon="4.85203">
        <ele>253.93</ele>
        <time>2021-02-02T10:11:06Z</time>
      </trkpt>
      <trkpt lat="44.38631" lon="4.85204">
        <ele>254.41</ele>
        <time>2021-02-02T10:11:21Z</time>
      </trkpt>
      <trkpt lat="44.38645" lon="4.85213">
        <ele>254.41</ele>
        <time>2021-02-02T10:11:35Z</time>
      </trkpt>
      <trkpt lat="44.38654" lon="4.85212">
        <ele>254.41</ele>
        <time>2021-02-02T10:11:49Z</time>
      </trkpt>
      <trkpt lat="44.38669" lon="4.85212">
        <ele>254.41</ele>
        <time>2021-02-02T10:12:03Z</time>
      </trkpt>
      <trkpt lat="44.38683" lon="4.85211">
        <ele>254.41</ele>
        <time>2021-02-02T10:12:16Z</time>
      </trkpt>
      <trkpt lat="44.387" lon="4.85208">
        <ele>252.48</ele>
        <time>2021-02-02T10:12:32Z</time>
      </trkpt>
      <trkpt lat="44.38714" lon="4.85194">
        <ele>252</ele>
        <time>2021-02-02T10:12:47Z</time>
      </trkpt>
      <trkpt lat="44.38725" lon="4.85189">
        <ele>251.52</ele>
        <time>2021-02-02T10:12:58Z</time>
      </trkpt>
      <trkpt lat="44.38733" lon="4.85188">
        <ele>251.52</ele>
        <time>2021-02-02T10:13:06Z</time>
      </trkpt>
      <trkpt lat="44.38742" lon="4.85173">
        <ele>251.52</ele>
        <time>2021-02-02T10:13:20Z</time>
      </trkpt>
      <trkpt lat="44.38748" lon="4.85164">
        <ele>251.52</ele>
        <time>2021-02-02T10:13:37Z</time>
      </trkpt>
      <trkpt lat="44.38747" lon="4.85151">
        <ele>252.48</ele>
        <time>2021-02-02T10:13:45Z</time>
      </trkpt>
      <trkpt lat="44.38739" lon="4.85134">
        <ele>253.44</ele>
        <time>2021-02-02T10:14:00Z</time>
      </trkpt>
      <trkpt lat="44.38729" lon="4.85116">
        <ele>253.93</ele>
        <time>2021-02-02T10:14:14Z</time>
      </trkpt>
      <trkpt lat="44.38727" lon="4.85096">
        <ele>255.37</ele>
        <time>2021-02-02T10:14:29Z</time>
      </trkpt>
      <trkpt lat="44.38728" lon="4.85076">
        <ele>255.85</ele>
        <time>2021-02-02T10:14:44Z</time>
      </trkpt>
      <trkpt lat="44.38723" lon="4.85052">
        <ele>257.29</ele>
        <time>2021-02-02T10:15:01Z</time>
      </trkpt>
      <trkpt lat="44.38724" lon="4.85029">
        <ele>258.25</ele>
        <time>2021-02-02T10:15:16Z</time>
      </trkpt>
      <trkpt lat="44.38724" lon="4.85023">
        <ele>258.73</ele>
        <time>2021-02-02T10:15:21Z</time>
      </trkpt>
      <trkpt lat="44.38718" lon="4.85011">
        <ele>258.73</ele>
        <time>2021-02-02T10:15:30Z</time>
      </trkpt>
      <trkpt lat="44.38707" lon="4.84981">
        <ele>259.21</ele>
        <time>2021-02-02T10:15:49Z</time>
      </trkpt>
      <trkpt lat="44.38702" lon="4.84966">
        <ele>259.69</ele>
        <time>2021-02-02T10:15:58Z</time>
      </trkpt>
      <trkpt lat="44.38692" lon="4.84934">
        <ele>260.17</ele>
        <time>2021-02-02T10:16:18Z</time>
      </trkpt>
      <trkpt lat="44.38683" lon="4.84915">
        <ele>260.65</ele>
        <time>2021-02-02T10:16:33Z</time>
      </trkpt>
      <trkpt lat="44.3868" lon="4.84912">
        <ele>260.65</ele>
        <time>2021-02-02T10:16:36Z</time>
      </trkpt>
      <trkpt lat="44.3867" lon="4.8488">
        <ele>261.62</ele>
        <time>2021-02-02T10:16:53Z</time>
      </trkpt>
      <trkpt lat="44.38666" lon="4.84861">
        <ele>262.1</ele>
        <time>2021-02-02T10:17:05Z</time>
      </trkpt>
      <trkpt lat="44.38652" lon="4.84839">
        <ele>261.62</ele>
        <time>2021-02-02T10:17:22Z</time>
      </trkpt>
      <trkpt lat="44.38632" lon="4.84805">
        <ele>261.62</ele>
        <time>2021-02-02T10:17:42Z</time>
      </trkpt>
      <trkpt lat="44.38621" lon="4.84789">
        <ele>261.62</ele>
        <time>2021-02-02T10:17:57Z</time>
      </trkpt>
      <trkpt lat="44.3862" lon="4.84788">
        <ele>261.62</ele>
        <time>2021-02-02T10:17:58Z</time>
      </trkpt>
      <trkpt lat="44.3861" lon="4.84772">
        <ele>261.62</ele>
        <time>2021-02-02T10:18:12Z</time>
      </trkpt>
      <trkpt lat="44.38609" lon="4.84763">
        <ele>261.62</ele>
        <time>2021-02-02T10:18:17Z</time>
      </trkpt>
      <trkpt lat="44.38605" lon="4.84755">
        <ele>261.62</ele>
        <time>2021-02-02T10:18:23Z</time>
      </trkpt>
      <trkpt lat="44.38602" lon="4.84752">
        <ele>261.62</ele>
        <time>2021-02-02T10:18:26Z</time>
      </trkpt>
      <trkpt lat="44.38588" lon="4.84745">
        <ele>261.62</ele>
        <time>2021-02-02T10:18:39Z</time>
      </trkpt>
      <trkpt lat="44.38582" lon="4.84739">
        <ele>261.14</ele>
        <time>2021-02-02T10:18:45Z</time>
      </trkpt>
      <trkpt lat="44.38576" lon="4.84726">
        <ele>261.14</ele>
        <time>2021-02-02T10:18:53Z</time>
      </trkpt>
      <trkpt lat="44.38573" lon="4.84709">
        <ele>260.17</ele>
        <time>2021-02-02T10:19:03Z</time>
      </trkpt>
      <trkpt lat="44.38569" lon="4.84689">
        <ele>258.73</ele>
        <time>2021-02-02T10:19:13Z</time>
      </trkpt>
      <trkpt lat="44.38569" lon="4.84684">
        <ele>258.73</ele>
        <time>2021-02-02T10:19:16Z</time>
      </trkpt>
      <trkpt lat="44.38564" lon="4.84677">
        <ele>258.25</ele>
        <time>2021-02-02T10:19:22Z</time>
      </trkpt>
      <trkpt lat="44.38559" lon="4.84659">
        <ele>258.25</ele>
        <time>2021-02-02T10:19:37Z</time>
      </trkpt>
      <trkpt lat="44.38566" lon="4.84662">
        <ele>257.77</ele>
        <time>2021-02-02T10:19:49Z</time>
      </trkpt>
      <trkpt lat="44.3857" lon="4.84665">
        <ele>257.77</ele>
        <time>2021-02-02T10:19:56Z</time>
      </trkpt>
      <trkpt lat="44.38581" lon="4.84654">
        <ele>256.81</ele>
        <time>2021-02-02T10:20:09Z</time>
      </trkpt>
      <trkpt lat="44.38578" lon="4.84638">
        <ele>256.81</ele>
        <time>2021-02-02T10:20:22Z</time>
      </trkpt>
      <trkpt lat="44.38567" lon="4.84617">
        <ele>258.25</ele>
        <time>2021-02-02T10:20:37Z</time>
      </trkpt>
      <trkpt lat="44.38557" lon="4.84593">
        <ele>259.21</ele>
        <time>2021-02-02T10:20:54Z</time>
      </trkpt>
      <trkpt lat="44.38545" lon="4.84565">
        <ele>259.69</ele>
        <time>2021-02-02T10:21:12Z</time>
      </trkpt>
      <trkpt lat="44.38538" lon="4.84538">
        <ele>260.17</ele>
        <time>2021-02-02T10:21:30Z</time>
      </trkpt>
      <trkpt lat="44.38533" lon="4.8452">
        <ele>260.17</ele>
        <time>2021-02-02T10:21:45Z</time>
      </trkpt>
      <trkpt lat="44.38532" lon="4.84514">
        <ele>260.17</ele>
        <time>2021-02-02T10:22:01Z</time>
      </trkpt>
      <trkpt lat="44.38531" lon="4.84513">
        <ele>260.17</ele>
        <time>2021-02-02T10:22:19Z</time>
      </trkpt>
      <trkpt lat="44.38534" lon="4.84513">
        <ele>260.17</ele>
        <time>2021-02-02T10:22:38Z</time>
      </trkpt>
      <trkpt lat="44.38534" lon="4.84509">
        <ele>260.17</ele>
        <time>2021-02-02T10:22:57Z</time>
      </trkpt>
      <trkpt lat="44.38531" lon="4.84504">
        <ele>260.17</ele>
        <time>2021-02-02T10:23:21Z</time>
      </trkpt>
      <trkpt lat="44.38523" lon="4.84481">
        <ele>259.69</ele>
        <time>2021-02-02T10:23:39Z</time>
      </trkpt>
      <trkpt lat="44.38507" lon="4.8446">
        <ele>259.69</ele>
        <time>2021-02-02T10:23:58Z</time>
      </trkpt>
      <trkpt lat="44.38503" lon="4.8444">
        <ele>260.17</ele>
        <time>2021-02-02T10:24:11Z</time>
      </trkpt>
      <trkpt lat="44.38496" lon="4.84405">
        <ele>260.65</ele>
        <time>2021-02-02T10:24:28Z</time>
      </trkpt>
      <trkpt lat="44.38489" lon="4.84381">
        <ele>260.65</ele>
        <time>2021-02-02T10:24:45Z</time>
      </trkpt>
      <trkpt lat="44.38489" lon="4.84371">
        <ele>261.14</ele>
        <time>2021-02-02T10:24:53Z</time>
      </trkpt>
      <trkpt lat="44.38484" lon="4.84354">
        <ele>261.14</ele>
        <time>2021-02-02T10:25:04Z</time>
      </trkpt>
      <trkpt lat="44.38476" lon="4.84327">
        <ele>261.14</ele>
        <time>2021-02-02T10:25:21Z</time>
      </trkpt>
      <trkpt lat="44.38471" lon="4.84306">
        <ele>261.14</ele>
        <time>2021-02-02T10:25:35Z</time>
      </trkpt>
      <trkpt lat="44.38463" lon="4.84276">
        <ele>261.14</ele>
        <time>2021-02-02T10:25:53Z</time>
      </trkpt>
      <trkpt lat="44.38456" lon="4.84261">
        <ele>261.14</ele>
        <time>2021-02-02T10:26:05Z</time>
      </trkpt>
      <trkpt lat="44.3845" lon="4.84238">
        <ele>261.62</ele>
        <time>2021-02-02T10:26:20Z</time>
      </trkpt>
      <trkpt lat="44.38441" lon="4.84216">
        <ele>261.62</ele>
        <time>2021-02-02T10:26:35Z</time>
      </trkpt>
      <trkpt lat="44.38431" lon="4.8419">
        <ele>262.1</ele>
        <time>2021-02-02T10:26:50Z</time>
      </trkpt>
      <trkpt lat="44.3843" lon="4.84187">
        <ele>262.1</ele>
        <time>2021-02-02T10:26:52Z</time>
      </trkpt>
      <trkpt lat="44.38417" lon="4.84151">
        <ele>262.58</ele>
        <time>2021-02-02T10:27:12Z</time>
      </trkpt>
      <trkpt lat="44.38409" lon="4.84123">
        <ele>263.06</ele>
        <time>2021-02-02T10:27:30Z</time>
      </trkpt>
      <trkpt lat="44.38399" lon="4.84094">
        <ele>264.02</ele>
        <time>2021-02-02T10:27:48Z</time>
      </trkpt>
      <trkpt lat="44.3839" lon="4.84072">
        <ele>264.5</ele>
        <time>2021-02-02T10:28:05Z</time>
      </trkpt>
      <trkpt lat="44.38382" lon="4.84054">
        <ele>264.98</ele>
        <time>2021-02-02T10:28:18Z</time>
      </trkpt>
      <trkpt lat="44.38371" lon="4.84035">
        <ele>264.98</ele>
        <time>2021-02-02T10:28:34Z</time>
      </trkpt>
      <trkpt lat="44.38365" lon="4.84024">
        <ele>265.46</ele>
        <time>2021-02-02T10:28:43Z</time>
      </trkpt>
      <trkpt lat="44.38349" lon="4.84018">
        <ele>265.46</ele>
        <time>2021-02-02T10:28:59Z</time>
      </trkpt>
      <trkpt lat="44.38331" lon="4.84016">
        <ele>264.98</ele>
        <time>2021-02-02T10:29:15Z</time>
      </trkpt>
      <trkpt lat="44.38322" lon="4.84013">
        <ele>263.54</ele>
        <time>2021-02-02T10:29:28Z</time>
      </trkpt>
      <trkpt lat="44.38319" lon="4.8401">
        <ele>263.54</ele>
        <time>2021-02-02T10:29:47Z</time>
      </trkpt>
      <trkpt lat="44.38318" lon="4.84004">
        <ele>263.54</ele>
        <time>2021-02-02T10:30:06Z</time>
      </trkpt>
      <trkpt lat="44.38323" lon="4.83982">
        <ele>263.54</ele>
        <time>2021-02-02T10:30:25Z</time>
      </trkpt>
      <trkpt lat="44.38326" lon="4.83977">
        <ele>264.98</ele>
        <time>2021-02-02T10:30:29Z</time>
      </trkpt>
      <trkpt lat="44.38337" lon="4.8396">
        <ele>264.98</ele>
        <time>2021-02-02T10:30:44Z</time>
      </trkpt>
      <trkpt lat="44.38344" lon="4.83943">
        <ele>266.42</ele>
        <time>2021-02-02T10:30:58Z</time>
      </trkpt>
      <trkpt lat="44.38352" lon="4.83923">
        <ele>266.42</ele>
        <time>2021-02-02T10:31:13Z</time>
      </trkpt>
      <trkpt lat="44.38362" lon="4.83907">
        <ele>267.38</ele>
        <time>2021-02-02T10:31:26Z</time>
      </trkpt>
      <trkpt lat="44.38371" lon="4.83886">
        <ele>267.86</ele>
        <time>2021-02-02T10:31:41Z</time>
      </trkpt>
      <trkpt lat="44.38379" lon="4.83865">
        <ele>267.86</ele>
        <time>2021-02-02T10:31:56Z</time>
      </trkpt>
      <trkpt lat="44.3838" lon="4.83863">
        <ele>267.86</ele>
        <time>2021-02-02T10:31:57Z</time>
      </trkpt>
      <trkpt lat="44.38379" lon="4.83844">
        <ele>267.86</ele>
        <time>2021-02-02T10:32:08Z</time>
      </trkpt>
      <trkpt lat="44.38379" lon="4.83819">
        <ele>266.42</ele>
        <time>2021-02-02T10:32:23Z</time>
      </trkpt>
      <trkpt lat="44.38377" lon="4.8379">
        <ele>265.94</ele>
        <time>2021-02-02T10:32:40Z</time>
      </trkpt>
      <trkpt lat="44.38373" lon="4.83775">
        <ele>264.98</ele>
        <time>2021-02-02T10:32:57Z</time>
      </trkpt>
      <trkpt lat="44.38363" lon="4.83773">
        <ele>264.98</ele>
        <time>2021-02-02T10:33:12Z</time>
      </trkpt>
      <trkpt lat="44.3836" lon="4.8377">
        <ele>264.98</ele>
        <time>2021-02-02T10:33:32Z</time>
      </trkpt>
      <trkpt lat="44.38355" lon="4.83772">
        <ele>264.98</ele>
        <time>2021-02-02T10:33:52Z</time>
      </trkpt>
      <trkpt lat="44.38351" lon="4.8377">
        <ele>264.98</ele>
        <time>2021-02-02T10:33:56Z</time>
      </trkpt>
      <trkpt lat="44.38333" lon="4.8376">
        <ele>264.98</ele>
        <time>2021-02-02T10:34:14Z</time>
      </trkpt>
      <trkpt lat="44.38331" lon="4.83759">
        <ele>266.42</ele>
        <time>2021-02-02T10:34:16Z</time>
      </trkpt>
      <trkpt lat="44.38315" lon="4.8375">
        <ele>267.86</ele>
        <time>2021-02-02T10:34:32Z</time>
      </trkpt>
      <trkpt lat="44.38302" lon="4.83739">
        <ele>269.31</ele>
        <time>2021-02-02T10:34:46Z</time>
      </trkpt>
      <trkpt lat="44.38291" lon="4.83737">
        <ele>269.79</ele>
        <time>2021-02-02T10:34:58Z</time>
      </trkpt>
      <trkpt lat="44.38274" lon="4.83735">
        <ele>269.79</ele>
        <time>2021-02-02T10:35:14Z</time>
      </trkpt>
      <trkpt lat="44.38259" lon="4.83742">
        <ele>269.79</ele>
        <time>2021-02-02T10:35:26Z</time>
      </trkpt>
      <trkpt lat="44.38241" lon="4.8375">
        <ele>269.79</ele>
        <time>2021-02-02T10:35:42Z</time>
      </trkpt>
      <trkpt lat="44.38227" lon="4.83758">
        <ele>268.83</ele>
        <time>2021-02-02T10:35:59Z</time>
      </trkpt>
      <trkpt lat="44.38227" lon="4.83769">
        <ele>267.86</ele>
        <time>2021-02-02T10:36:12Z</time>
      </trkpt>
      <trkpt lat="44.3823" lon="4.83785">
        <ele>266.9</ele>
        <time>2021-02-02T10:36:26Z</time>
      </trkpt>
      <trkpt lat="44.38231" lon="4.83794">
        <ele>266.42</ele>
        <time>2021-02-02T10:36:41Z</time>
      </trkpt>
      <trkpt lat="44.38232" lon="4.83797">
        <ele>266.42</ele>
        <time>2021-02-02T10:36:59Z</time>
      </trkpt>
      <trkpt lat="44.38233" lon="4.83796">
        <ele>265.94</ele>
        <time>2021-02-02T10:37:23Z</time>
      </trkpt>
      <trkpt lat="44.38232" lon="4.83791">
        <ele>265.94</ele>
        <time>2021-02-02T10:37:38Z</time>
      </trkpt>
      <trkpt lat="44.38231" lon="4.83793">
        <ele>265.94</ele>
        <time>2021-02-02T10:37:57Z</time>
      </trkpt>
      <trkpt lat="44.3823" lon="4.83791">
        <ele>266.42</ele>
        <time>2021-02-02T10:38:22Z</time>
      </trkpt>
      <trkpt lat="44.38229" lon="4.8379">
        <ele>266.42</ele>
        <time>2021-02-02T10:38:39Z</time>
      </trkpt>
      <trkpt lat="44.38229" lon="4.8379">
        <ele>267.38</ele>
        <time>2021-02-02T10:39:09Z</time>
      </trkpt>
      <trkpt lat="44.38229" lon="4.8379">
        <ele>267.38</ele>
        <time>2021-02-02T10:39:32Z</time>
      </trkpt>
      <trkpt lat="44.38231" lon="4.83793">
        <ele>267.86</ele>
        <time>2021-02-02T10:40:08Z</time>
      </trkpt>
      <trkpt lat="44.3823" lon="4.83793">
        <ele>267.86</ele>
        <time>2021-02-02T10:40:40Z</time>
      </trkpt>
      <trkpt lat="44.3823" lon="4.83793">
        <ele>268.35</ele>
        <time>2021-02-02T10:41:04Z</time>
      </trkpt>
      <trkpt lat="44.38227" lon="4.83781">
        <ele>269.31</ele>
        <time>2021-02-02T10:41:19Z</time>
      </trkpt>
      <trkpt lat="44.38226" lon="4.83768">
        <ele>270.27</ele>
        <time>2021-02-02T10:41:31Z</time>
      </trkpt>
      <trkpt lat="44.38225" lon="4.83757">
        <ele>271.23</ele>
        <time>2021-02-02T10:41:45Z</time>
      </trkpt>
      <trkpt lat="44.38223" lon="4.83755">
        <ele>271.23</ele>
        <time>2021-02-02T10:42:07Z</time>
      </trkpt>
      <trkpt lat="44.38222" lon="4.83756">
        <ele>271.23</ele>
        <time>2021-02-02T10:42:25Z</time>
      </trkpt>
      <trkpt lat="44.38222" lon="4.83755">
        <ele>271.71</ele>
        <time>2021-02-02T10:42:53Z</time>
      </trkpt>
      <trkpt lat="44.38211" lon="4.83751">
        <ele>271.71</ele>
        <time>2021-02-02T10:43:08Z</time>
      </trkpt>
      <trkpt lat="44.38202" lon="4.83743">
        <ele>270.27</ele>
        <time>2021-02-02T10:43:18Z</time>
      </trkpt>
      <trkpt lat="44.38183" lon="4.83734">
        <ele>269.31</ele>
        <time>2021-02-02T10:43:35Z</time>
      </trkpt>
      <trkpt lat="44.38179" lon="4.83731">
        <ele>269.31</ele>
        <time>2021-02-02T10:43:38Z</time>
      </trkpt>
      <trkpt lat="44.38159" lon="4.83731">
        <ele>269.31</ele>
        <time>2021-02-02T10:43:54Z</time>
      </trkpt>
      <trkpt lat="44.38142" lon="4.83727">
        <ele>269.31</ele>
        <time>2021-02-02T10:44:10Z</time>
      </trkpt>
      <trkpt lat="44.38139" lon="4.83727">
        <ele>269.31</ele>
        <time>2021-02-02T10:44:13Z</time>
      </trkpt>
      <trkpt lat="44.38115" lon="4.83713">
        <ele>270.27</ele>
        <time>2021-02-02T10:44:32Z</time>
      </trkpt>
      <trkpt lat="44.38092" lon="4.83696">
        <ele>270.75</ele>
        <time>2021-02-02T10:44:50Z</time>
      </trkpt>
      <trkpt lat="44.38073" lon="4.83685">
        <ele>270.75</ele>
        <time>2021-02-02T10:45:06Z</time>
      </trkpt>
      <trkpt lat="44.38065" lon="4.83681">
        <ele>271.23</ele>
        <time>2021-02-02T10:45:13Z</time>
      </trkpt>
      <trkpt lat="44.38042" lon="4.83677">
        <ele>270.27</ele>
        <time>2021-02-02T10:45:30Z</time>
      </trkpt>
      <trkpt lat="44.38017" lon="4.83678">
        <ele>268.35</ele>
        <time>2021-02-02T10:45:50Z</time>
      </trkpt>
      <trkpt lat="44.37993" lon="4.83688">
        <ele>267.86</ele>
        <time>2021-02-02T10:46:09Z</time>
      </trkpt>
      <trkpt lat="44.37965" lon="4.83692">
        <ele>268.35</ele>
        <time>2021-02-02T10:46:30Z</time>
      </trkpt>
      <trkpt lat="44.37954" lon="4.83692">
        <ele>268.35</ele>
        <time>2021-02-02T10:46:42Z</time>
      </trkpt>
      <trkpt lat="44.37943" lon="4.83696">
        <ele>269.31</ele>
        <time>2021-02-02T10:46:51Z</time>
      </trkpt>
      <trkpt lat="44.37939" lon="4.83704">
        <ele>269.31</ele>
        <time>2021-02-02T10:46:56Z</time>
      </trkpt>
      <trkpt lat="44.37926" lon="4.83735">
        <ele>269.31</ele>
        <time>2021-02-02T10:47:14Z</time>
      </trkpt>
      <trkpt lat="44.37926" lon="4.83739">
        <ele>269.31</ele>
        <time>2021-02-02T10:47:17Z</time>
      </trkpt>
      <trkpt lat="44.37926" lon="4.83765">
        <ele>269.79</ele>
        <time>2021-02-02T10:47:33Z</time>
      </trkpt>
      <trkpt lat="44.37915" lon="4.83788">
        <ele>268.35</ele>
        <time>2021-02-02T10:47:47Z</time>
      </trkpt>
      <trkpt lat="44.37911" lon="4.83816">
        <ele>267.38</ele>
        <time>2021-02-02T10:48:02Z</time>
      </trkpt>
      <trkpt lat="44.37908" lon="4.83824">
        <ele>267.38</ele>
        <time>2021-02-02T10:48:07Z</time>
      </trkpt>
      <trkpt lat="44.37899" lon="4.83849">
        <ele>266.42</ele>
        <time>2021-02-02T10:48:24Z</time>
      </trkpt>
      <trkpt lat="44.37899" lon="4.83854">
        <ele>265.94</ele>
        <time>2021-02-02T10:48:29Z</time>
      </trkpt>
      <trkpt lat="44.37898" lon="4.83885">
        <ele>265.46</ele>
        <time>2021-02-02T10:48:45Z</time>
      </trkpt>
      <trkpt lat="44.37892" lon="4.83914">
        <ele>264.5</ele>
        <time>2021-02-02T10:49:00Z</time>
      </trkpt>
      <trkpt lat="44.37881" lon="4.83941">
        <ele>263.54</ele>
        <time>2021-02-02T10:49:17Z</time>
      </trkpt>
      <trkpt lat="44.37872" lon="4.83968">
        <ele>262.1</ele>
        <time>2021-02-02T10:49:34Z</time>
      </trkpt>
      <trkpt lat="44.37868" lon="4.83994">
        <ele>259.69</ele>
        <time>2021-02-02T10:49:50Z</time>
      </trkpt>
      <trkpt lat="44.37865" lon="4.84">
        <ele>259.21</ele>
        <time>2021-02-02T10:49:54Z</time>
      </trkpt>
      <trkpt lat="44.37863" lon="4.84028">
        <ele>257.29</ele>
        <time>2021-02-02T10:50:11Z</time>
      </trkpt>
      <trkpt lat="44.37862" lon="4.84046">
        <ele>255.85</ele>
        <time>2021-02-02T10:50:23Z</time>
      </trkpt>
      <trkpt lat="44.37858" lon="4.84069">
        <ele>253.93</ele>
        <time>2021-02-02T10:50:38Z</time>
      </trkpt>
      <trkpt lat="44.37851" lon="4.84101">
        <ele>252.48</ele>
        <time>2021-02-02T10:50:57Z</time>
      </trkpt>
      <trkpt lat="44.37845" lon="4.84113">
        <ele>251.52</ele>
        <time>2021-02-02T10:51:11Z</time>
      </trkpt>
      <trkpt lat="44.37844" lon="4.84113">
        <ele>251.52</ele>
        <time>2021-02-02T10:51:12Z</time>
      </trkpt>
      <trkpt lat="44.37826" lon="4.84115">
        <ele>251.52</ele>
        <time>2021-02-02T10:51:31Z</time>
      </trkpt>
      <trkpt lat="44.37819" lon="4.8411">
        <ele>251.04</ele>
        <time>2021-02-02T10:51:49Z</time>
      </trkpt>
      <trkpt lat="44.37818" lon="4.84109">
        <ele>251.52</ele>
        <time>2021-02-02T10:52:19Z</time>
      </trkpt>
      <trkpt lat="44.37806" lon="4.84101">
        <ele>251.52</ele>
        <time>2021-02-02T10:52:38Z</time>
      </trkpt>
      <trkpt lat="44.378" lon="4.84098">
        <ele>251.52</ele>
        <time>2021-02-02T10:52:44Z</time>
      </trkpt>
      <trkpt lat="44.37795" lon="4.84097">
        <ele>251.52</ele>
        <time>2021-02-02T10:52:48Z</time>
      </trkpt>
      <trkpt lat="44.37775" lon="4.84079">
        <ele>251.52</ele>
        <time>2021-02-02T10:53:07Z</time>
      </trkpt>
      <trkpt lat="44.37762" lon="4.8406">
        <ele>251.52</ele>
        <time>2021-02-02T10:53:22Z</time>
      </trkpt>
      <trkpt lat="44.37746" lon="4.84044">
        <ele>251.04</ele>
        <time>2021-02-02T10:53:39Z</time>
      </trkpt>
      <trkpt lat="44.37732" lon="4.84026">
        <ele>250.08</ele>
        <time>2021-02-02T10:53:56Z</time>
      </trkpt>
      <trkpt lat="44.37716" lon="4.84008">
        <ele>249.6</ele>
        <time>2021-02-02T10:54:11Z</time>
      </trkpt>
      <trkpt lat="44.37712" lon="4.84004">
        <ele>249.6</ele>
        <time>2021-02-02T10:54:15Z</time>
      </trkpt>
      <trkpt lat="44.37693" lon="4.8399">
        <ele>249.6</ele>
        <time>2021-02-02T10:54:33Z</time>
      </trkpt>
      <trkpt lat="44.37676" lon="4.83976">
        <ele>249.6</ele>
        <time>2021-02-02T10:54:52Z</time>
      </trkpt>
      <trkpt lat="44.37673" lon="4.83974">
        <ele>249.6</ele>
        <time>2021-02-02T10:54:58Z</time>
      </trkpt>
      <trkpt lat="44.37651" lon="4.83965">
        <ele>251.04</ele>
        <time>2021-02-02T10:55:16Z</time>
      </trkpt>
      <trkpt lat="44.37632" lon="4.83954">
        <ele>251.52</ele>
        <time>2021-02-02T10:55:34Z</time>
      </trkpt>
      <trkpt lat="44.37615" lon="4.8394">
        <ele>251.52</ele>
        <time>2021-02-02T10:55:49Z</time>
      </trkpt>
      <trkpt lat="44.37609" lon="4.83936">
        <ele>251.04</ele>
        <time>2021-02-02T10:55:54Z</time>
      </trkpt>
      <trkpt lat="44.37598" lon="4.83928">
        <ele>251.52</ele>
        <time>2021-02-02T10:56:11Z</time>
      </trkpt>
      <trkpt lat="44.37596" lon="4.83928">
        <ele>251.52</ele>
        <time>2021-02-02T10:56:38Z</time>
      </trkpt>
      <trkpt lat="44.37595" lon="4.83929">
        <ele>250.56</ele>
        <time>2021-02-02T10:57:11Z</time>
      </trkpt>
      <trkpt lat="44.37589" lon="4.83926">
        <ele>250.56</ele>
        <time>2021-02-02T10:57:37Z</time>
      </trkpt>
      <trkpt lat="44.3758" lon="4.83923">
        <ele>249.6</ele>
        <time>2021-02-02T10:57:48Z</time>
      </trkpt>
      <trkpt lat="44.37572" lon="4.83922">
        <ele>248.64</ele>
        <time>2021-02-02T10:57:55Z</time>
      </trkpt>
      <trkpt lat="44.37554" lon="4.83918">
        <ele>247.68</ele>
        <time>2021-02-02T10:58:12Z</time>
      </trkpt>
      <trkpt lat="44.37545" lon="4.8392">
        <ele>247.68</ele>
        <time>2021-02-02T10:58:28Z</time>
      </trkpt>
      <trkpt lat="44.37525" lon="4.83914">
        <ele>246.72</ele>
        <time>2021-02-02T10:58:47Z</time>
      </trkpt>
      <trkpt lat="44.37519" lon="4.83928">
        <ele>245.75</ele>
        <time>2021-02-02T10:59:01Z</time>
      </trkpt>
      <trkpt lat="44.37517" lon="4.83932">
        <ele>245.75</ele>
        <time>2021-02-02T10:59:04Z</time>
      </trkpt>
      <trkpt lat="44.37511" lon="4.83957">
        <ele>244.31</ele>
        <time>2021-02-02T10:59:21Z</time>
      </trkpt>
      <trkpt lat="44.375" lon="4.83986">
        <ele>242.87</ele>
        <time>2021-02-02T10:59:40Z</time>
      </trkpt>
      <trkpt lat="44.37491" lon="4.84007">
        <ele>240.95</ele>
        <time>2021-02-02T10:59:55Z</time>
      </trkpt>
      <trkpt lat="44.37483" lon="4.8402">
        <ele>239.51</ele>
        <time>2021-02-02T11:00:11Z</time>
      </trkpt>
      <trkpt lat="44.37468" lon="4.84026">
        <ele>238.06</ele>
        <time>2021-02-02T11:00:29Z</time>
      </trkpt>
      <trkpt lat="44.37454" lon="4.84024">
        <ele>238.06</ele>
        <time>2021-02-02T11:00:43Z</time>
      </trkpt>
      <trkpt lat="44.37439" lon="4.8402">
        <ele>238.06</ele>
        <time>2021-02-02T11:00:58Z</time>
      </trkpt>
      <trkpt lat="44.37432" lon="4.84018">
        <ele>238.06</ele>
        <time>2021-02-02T11:01:02Z</time>
      </trkpt>
      <trkpt lat="44.37408" lon="4.84016">
        <ele>237.58</ele>
        <time>2021-02-02T11:01:18Z</time>
      </trkpt>
      <trkpt lat="44.37387" lon="4.8401">
        <ele>237.58</ele>
        <time>2021-02-02T11:01:36Z</time>
      </trkpt>
      <trkpt lat="44.37365" lon="4.83997">
        <ele>236.62</ele>
        <time>2021-02-02T11:01:54Z</time>
      </trkpt>
      <trkpt lat="44.37364" lon="4.83996">
        <ele>236.62</ele>
        <time>2021-02-02T11:01:55Z</time>
      </trkpt>
      <trkpt lat="44.37342" lon="4.83993">
        <ele>235.66</ele>
        <time>2021-02-02T11:02:12Z</time>
      </trkpt>
      <trkpt lat="44.3732" lon="4.84013">
        <ele>233.74</ele>
        <time>2021-02-02T11:02:33Z</time>
      </trkpt>
      <trkpt lat="44.37313" lon="4.84016">
        <ele>233.26</ele>
        <time>2021-02-02T11:02:47Z</time>
      </trkpt>
      <trkpt lat="44.37309" lon="4.84011">
        <ele>233.26</ele>
        <time>2021-02-02T11:03:09Z</time>
      </trkpt>
      <trkpt lat="44.37304" lon="4.84009">
        <ele>233.26</ele>
        <time>2021-02-02T11:03:21Z</time>
      </trkpt>
      <trkpt lat="44.37281" lon="4.84">
        <ele>231.81</ele>
        <time>2021-02-02T11:03:39Z</time>
      </trkpt>
      <trkpt lat="44.37263" lon="4.8399">
        <ele>230.85</ele>
        <time>2021-02-02T11:03:55Z</time>
      </trkpt>
      <trkpt lat="44.3725" lon="4.83984">
        <ele>229.89</ele>
        <time>2021-02-02T11:04:11Z</time>
      </trkpt>
      <trkpt lat="44.37235" lon="4.83989">
        <ele>228.93</ele>
        <time>2021-02-02T11:04:28Z</time>
      </trkpt>
      <trkpt lat="44.37223" lon="4.83996">
        <ele>227.49</ele>
        <time>2021-02-02T11:04:42Z</time>
      </trkpt>
      <trkpt lat="44.37214" lon="4.84002">
        <ele>227.01</ele>
        <time>2021-02-02T11:04:49Z</time>
      </trkpt>
      <trkpt lat="44.37193" lon="4.84019">
        <ele>225.09</ele>
        <time>2021-02-02T11:05:05Z</time>
      </trkpt>
      <trkpt lat="44.37174" lon="4.84036">
        <ele>223.16</ele>
        <time>2021-02-02T11:05:22Z</time>
      </trkpt>
      <trkpt lat="44.37161" lon="4.84049">
        <ele>221.72</ele>
        <time>2021-02-02T11:05:36Z</time>
      </trkpt>
      <trkpt lat="44.37158" lon="4.84054">
        <ele>221.24</ele>
        <time>2021-02-02T11:05:40Z</time>
      </trkpt>
      <trkpt lat="44.37145" lon="4.84076">
        <ele>219.8</ele>
        <time>2021-02-02T11:05:57Z</time>
      </trkpt>
      <trkpt lat="44.37132" lon="4.84104">
        <ele>217.88</ele>
        <time>2021-02-02T11:06:16Z</time>
      </trkpt>
      <trkpt lat="44.37119" lon="4.84125">
        <ele>215.47</ele>
        <time>2021-02-02T11:06:33Z</time>
      </trkpt>
      <trkpt lat="44.37099" lon="4.84145">
        <ele>213.07</ele>
        <time>2021-02-02T11:06:52Z</time>
      </trkpt>
      <trkpt lat="44.37085" lon="4.84163">
        <ele>211.15</ele>
        <time>2021-02-02T11:07:07Z</time>
      </trkpt>
      <trkpt lat="44.37073" lon="4.84186">
        <ele>209.7</ele>
        <time>2021-02-02T11:07:24Z</time>
      </trkpt>
      <trkpt lat="44.37058" lon="4.84194">
        <ele>208.26</ele>
        <time>2021-02-02T11:07:40Z</time>
      </trkpt>
      <trkpt lat="44.37039" lon="4.84197">
        <ele>207.3</ele>
        <time>2021-02-02T11:07:55Z</time>
      </trkpt>
      <trkpt lat="44.37027" lon="4.84196">
        <ele>206.82</ele>
        <time>2021-02-02T11:08:06Z</time>
      </trkpt>
      <trkpt lat="44.37001" lon="4.84194">
        <ele>205.38</ele>
        <time>2021-02-02T11:08:24Z</time>
      </trkpt>
      <trkpt lat="44.36989" lon="4.84192">
        <ele>205.38</ele>
        <time>2021-02-02T11:08:40Z</time>
      </trkpt>
      <trkpt lat="44.36987" lon="4.84195">
        <ele>205.38</ele>
        <time>2021-02-02T11:08:54Z</time>
      </trkpt>
      <trkpt lat="44.36979" lon="4.842">
        <ele>205.38</ele>
        <time>2021-02-02T11:09:09Z</time>
      </trkpt>
      <trkpt lat="44.3696" lon="4.84204">
        <ele>205.38</ele>
        <time>2021-02-02T11:09:26Z</time>
      </trkpt>
      <trkpt lat="44.36957" lon="4.84208">
        <ele>205.38</ele>
        <time>2021-02-02T11:09:40Z</time>
      </trkpt>
      <trkpt lat="44.36959" lon="4.84211">
        <ele>205.38</ele>
        <time>2021-02-02T11:09:54Z</time>
      </trkpt>
      <trkpt lat="44.3696" lon="4.8421">
        <ele>203.94</ele>
        <time>2021-02-02T11:10:17Z</time>
      </trkpt>
      <trkpt lat="44.36957" lon="4.84211">
        <ele>203.94</ele>
        <time>2021-02-02T11:10:53Z</time>
      </trkpt>
      <trkpt lat="44.36957" lon="4.84218">
        <ele>203.94</ele>
        <time>2021-02-02T11:11:18Z</time>
      </trkpt>
      <trkpt lat="44.36957" lon="4.84216">
        <ele>203.94</ele>
        <time>2021-02-02T11:11:49Z</time>
      </trkpt>
      <trkpt lat="44.36956" lon="4.84209">
        <ele>203.94</ele>
        <time>2021-02-02T11:12:15Z</time>
      </trkpt>
      <trkpt lat="44.36957" lon="4.84212">
        <ele>204.42</ele>
        <time>2021-02-02T11:12:53Z</time>
      </trkpt>
      <trkpt lat="44.3696" lon="4.84209">
        <ele>204.42</ele>
        <time>2021-02-02T11:13:38Z</time>
      </trkpt>
      <trkpt lat="44.36958" lon="4.84212">
        <ele>204.42</ele>
        <time>2021-02-02T11:14:13Z</time>
      </trkpt>
      <trkpt lat="44.36957" lon="4.84215">
        <ele>204.42</ele>
        <time>2021-02-02T11:14:42Z</time>
      </trkpt>
      <trkpt lat="44.36957" lon="4.84214">
        <ele>204.42</ele>
        <time>2021-02-02T11:15:15Z</time>
      </trkpt>
      <trkpt lat="44.36961" lon="4.84211">
        <ele>204.42</ele>
        <time>2021-02-02T11:15:47Z</time>
      </trkpt>
      <trkpt lat="44.36954" lon="4.84213">
        <ele>204.9</ele>
        <time>2021-02-02T11:16:21Z</time>
      </trkpt>
      <trkpt lat="44.36957" lon="4.84215">
        <ele>204.9</ele>
        <time>2021-02-02T11:16:56Z</time>
      </trkpt>
      <trkpt lat="44.36959" lon="4.84216">
        <ele>204.9</ele>
        <time>2021-02-02T11:17:30Z</time>
      </trkpt>
      <trkpt lat="44.36957" lon="4.84215">
        <ele>204.9</ele>
        <time>2021-02-02T11:18:09Z</time>
      </trkpt>
      <trkpt lat="44.36958" lon="4.84209">
        <ele>205.38</ele>
        <time>2021-02-02T11:18:54Z</time>
      </trkpt>
      <trkpt lat="44.36957" lon="4.8421">
        <ele>205.38</ele>
        <time>2021-02-02T11:19:32Z</time>
      </trkpt>
      <trkpt lat="44.36958" lon="4.84213">
        <ele>205.86</ele>
        <time>2021-02-02T11:20:20Z</time>
      </trkpt>
      <trkpt lat="44.3696" lon="4.84211">
        <ele>205.86</ele>
        <time>2021-02-02T11:20:52Z</time>
      </trkpt>
      <trkpt lat="44.36958" lon="4.84213">
        <ele>206.34</ele>
        <time>2021-02-02T11:21:29Z</time>
      </trkpt>
      <trkpt lat="44.36957" lon="4.84212">
        <ele>206.34</ele>
        <time>2021-02-02T11:22:05Z</time>
      </trkpt>
      <trkpt lat="44.36961" lon="4.84209">
        <ele>206.82</ele>
        <time>2021-02-02T11:22:40Z</time>
      </trkpt>
      <trkpt lat="44.36958" lon="4.8421">
        <ele>206.82</ele>
        <time>2021-02-02T11:23:19Z</time>
      </trkpt>
      <trkpt lat="44.36961" lon="4.84213">
        <ele>206.82</ele>
        <time>2021-02-02T11:23:51Z</time>
      </trkpt>
      <trkpt lat="44.36957" lon="4.84215">
        <ele>207.3</ele>
        <time>2021-02-02T11:24:31Z</time>
      </trkpt>
      <trkpt lat="44.36954" lon="4.84213">
        <ele>207.3</ele>
        <time>2021-02-02T11:25:11Z</time>
      </trkpt>
      <trkpt lat="44.36957" lon="4.84205">
        <ele>207.3</ele>
        <time>2021-02-02T11:25:54Z</time>
      </trkpt>
      <trkpt lat="44.36959" lon="4.84218">
        <ele>207.3</ele>
        <time>2021-02-02T11:26:33Z</time>
      </trkpt>
      <trkpt lat="44.36959" lon="4.84213">
        <ele>207.78</ele>
        <time>2021-02-02T11:27:21Z</time>
      </trkpt>
      <trkpt lat="44.36956" lon="4.84212">
        <ele>207.78</ele>
        <time>2021-02-02T11:28:13Z</time>
      </trkpt>
      <trkpt lat="44.3696" lon="4.84211">
        <ele>207.78</ele>
        <time>2021-02-02T11:28:59Z</time>
      </trkpt>
      <trkpt lat="44.36957" lon="4.84212">
        <ele>208.26</ele>
        <time>2021-02-02T11:29:47Z</time>
      </trkpt>
      <trkpt lat="44.36955" lon="4.84212">
        <ele>208.26</ele>
        <time>2021-02-02T11:30:17Z</time>
      </trkpt>
      <trkpt lat="44.36955" lon="4.84211">
        <ele>208.26</ele>
        <time>2021-02-02T11:31:06Z</time>
      </trkpt>
      <trkpt lat="44.36956" lon="4.84211">
        <ele>208.74</ele>
        <time>2021-02-02T11:31:55Z</time>
      </trkpt>
      <trkpt lat="44.36956" lon="4.84206">
        <ele>208.74</ele>
        <time>2021-02-02T11:32:42Z</time>
      </trkpt>
      <trkpt lat="44.36955" lon="4.84207">
        <ele>209.22</ele>
        <time>2021-02-02T11:33:30Z</time>
      </trkpt>
      <trkpt lat="44.36955" lon="4.84212">
        <ele>209.22</ele>
        <time>2021-02-02T11:34:22Z</time>
      </trkpt>
      <trkpt lat="44.36954" lon="4.8421">
        <ele>209.7</ele>
        <time>2021-02-02T11:35:07Z</time>
      </trkpt>
      <trkpt lat="44.36953" lon="4.84207">
        <ele>209.7</ele>
        <time>2021-02-02T11:35:49Z</time>
      </trkpt>
      <trkpt lat="44.36956" lon="4.84208">
        <ele>210.19</ele>
        <time>2021-02-02T11:36:34Z</time>
      </trkpt>
      <trkpt lat="44.36955" lon="4.84209">
        <ele>210.67</ele>
        <time>2021-02-02T11:37:29Z</time>
      </trkpt>
      <trkpt lat="44.36951" lon="4.84207">
        <ele>210.67</ele>
        <time>2021-02-02T11:38:10Z</time>
      </trkpt>
      <trkpt lat="44.36953" lon="4.84206">
        <ele>210.67</ele>
        <time>2021-02-02T11:38:53Z</time>
      </trkpt>
      <trkpt lat="44.36954" lon="4.84205">
        <ele>211.15</ele>
        <time>2021-02-02T11:39:31Z</time>
      </trkpt>
      <trkpt lat="44.36954" lon="4.84206">
        <ele>210.67</ele>
        <time>2021-02-02T11:40:13Z</time>
      </trkpt>
      <trkpt lat="44.36955" lon="4.84213">
        <ele>211.15</ele>
        <time>2021-02-02T11:40:51Z</time>
      </trkpt>
      <trkpt lat="44.36952" lon="4.84212">
        <ele>211.15</ele>
        <time>2021-02-02T11:41:36Z</time>
      </trkpt>
      <trkpt lat="44.36953" lon="4.84212">
        <ele>211.63</ele>
        <time>2021-02-02T11:41:57Z</time>
      </trkpt>
      <trkpt lat="44.36954" lon="4.84208">
        <ele>211.63</ele>
        <time>2021-02-02T11:42:29Z</time>
      </trkpt>
      <trkpt lat="44.36953" lon="4.84212">
        <ele>211.63</ele>
        <time>2021-02-02T11:43:03Z</time>
      </trkpt>
      <trkpt lat="44.36956" lon="4.84219">
        <ele>212.11</ele>
        <time>2021-02-02T11:43:47Z</time>
      </trkpt>
      <trkpt lat="44.36957" lon="4.84216">
        <ele>213.55</ele>
        <time>2021-02-02T11:44:23Z</time>
      </trkpt>
      <trkpt lat="44.36958" lon="4.84209">
        <ele>213.55</ele>
        <time>2021-02-02T11:44:46Z</time>
      </trkpt>
      <trkpt lat="44.36958" lon="4.84201">
        <ele>214.03</ele>
        <time>2021-02-02T11:45:06Z</time>
      </trkpt>
      <trkpt lat="44.36957" lon="4.84208">
        <ele>214.03</ele>
        <time>2021-02-02T11:45:23Z</time>
      </trkpt>
      <trkpt lat="44.36955" lon="4.84208">
        <ele>214.51</ele>
        <time>2021-02-02T11:45:57Z</time>
      </trkpt>
      <trkpt lat="44.36955" lon="4.84207">
        <ele>214.51</ele>
        <time>2021-02-02T11:46:14Z</time>
      </trkpt>
      <trkpt lat="44.36955" lon="4.84208">
        <ele>214.99</ele>
        <time>2021-02-02T11:46:29Z</time>
      </trkpt>
      <trkpt lat="44.36953" lon="4.8421">
        <ele>214.99</ele>
        <time>2021-02-02T11:46:48Z</time>
      </trkpt>
      <trkpt lat="44.36953" lon="4.84215">
        <ele>214.99</ele>
        <time>2021-02-02T11:47:17Z</time>
      </trkpt>
      <trkpt lat="44.36965" lon="4.84206">
        <ele>214.99</ele>
        <time>2021-02-02T11:47:34Z</time>
      </trkpt>
      <trkpt lat="44.36982" lon="4.84198">
        <ele>214.99</ele>
        <time>2021-02-02T11:47:50Z</time>
      </trkpt>
      <trkpt lat="44.36987" lon="4.84186">
        <ele>215.47</ele>
        <time>2021-02-02T11:47:59Z</time>
      </trkpt>
      <trkpt lat="44.36998" lon="4.84162">
        <ele>215.47</ele>
        <time>2021-02-02T11:48:16Z</time>
      </trkpt>
      <trkpt lat="44.3701" lon="4.84142">
        <ele>216.91</ele>
        <time>2021-02-02T11:48:32Z</time>
      </trkpt>
      <trkpt lat="44.37017" lon="4.84121">
        <ele>217.88</ele>
        <time>2021-02-02T11:48:47Z</time>
      </trkpt>
      <trkpt lat="44.37022" lon="4.84095">
        <ele>218.84</ele>
        <time>2021-02-02T11:49:03Z</time>
      </trkpt>
      <trkpt lat="44.37028" lon="4.84078">
        <ele>219.32</ele>
        <time>2021-02-02T11:49:17Z</time>
      </trkpt>
      <trkpt lat="44.37037" lon="4.84053">
        <ele>220.28</ele>
        <time>2021-02-02T11:49:34Z</time>
      </trkpt>
      <trkpt lat="44.37033" lon="4.84028">
        <ele>221.24</ele>
        <time>2021-02-02T11:49:51Z</time>
      </trkpt>
      <trkpt lat="44.37026" lon="4.84011">
        <ele>221.72</ele>
        <time>2021-02-02T11:50:02Z</time>
      </trkpt>
      <trkpt lat="44.3701" lon="4.83983">
        <ele>221.72</ele>
        <time>2021-02-02T11:50:20Z</time>
      </trkpt>
      <trkpt lat="44.36995" lon="4.83962">
        <ele>223.16</ele>
        <time>2021-02-02T11:50:37Z</time>
      </trkpt>
      <trkpt lat="44.36981" lon="4.8394">
        <ele>222.68</ele>
        <time>2021-02-02T11:50:55Z</time>
      </trkpt>
      <trkpt lat="44.36979" lon="4.83916">
        <ele>224.61</ele>
        <time>2021-02-02T11:51:11Z</time>
      </trkpt>
      <trkpt lat="44.3698" lon="4.8389">
        <ele>226.53</ele>
        <time>2021-02-02T11:51:28Z</time>
      </trkpt>
      <trkpt lat="44.36986" lon="4.83867">
        <ele>227.49</ele>
        <time>2021-02-02T11:51:44Z</time>
      </trkpt>
      <trkpt lat="44.3699" lon="4.83846">
        <ele>228.93</ele>
        <time>2021-02-02T11:51:58Z</time>
      </trkpt>
      <trkpt lat="44.36994" lon="4.83827">
        <ele>229.89</ele>
        <time>2021-02-02T11:52:13Z</time>
      </trkpt>
      <trkpt lat="44.36994" lon="4.83822">
        <ele>230.85</ele>
        <time>2021-02-02T11:52:16Z</time>
      </trkpt>
      <trkpt lat="44.36997" lon="4.83806">
        <ele>230.37</ele>
        <time>2021-02-02T11:52:27Z</time>
      </trkpt>
      <trkpt lat="44.37" lon="4.83783">
        <ele>227.97</ele>
        <time>2021-02-02T11:52:43Z</time>
      </trkpt>
      <trkpt lat="44.37005" lon="4.83767">
        <ele>226.05</ele>
        <time>2021-02-02T11:52:57Z</time>
      </trkpt>
      <trkpt lat="44.37012" lon="4.83753">
        <ele>222.68</ele>
        <time>2021-02-02T11:53:11Z</time>
      </trkpt>
      <trkpt lat="44.3702" lon="4.83743">
        <ele>219.8</ele>
        <time>2021-02-02T11:53:23Z</time>
      </trkpt>
      <trkpt lat="44.37016" lon="4.83724">
        <ele>220.28</ele>
        <time>2021-02-02T11:53:39Z</time>
      </trkpt>
      <trkpt lat="44.37005" lon="4.837">
        <ele>221.24</ele>
        <time>2021-02-02T11:53:56Z</time>
      </trkpt>
      <trkpt lat="44.37006" lon="4.83674">
        <ele>221.24</ele>
        <time>2021-02-02T11:54:11Z</time>
      </trkpt>
      <trkpt lat="44.37014" lon="4.83655">
        <ele>221.24</ele>
        <time>2021-02-02T11:54:24Z</time>
      </trkpt>
      <trkpt lat="44.37025" lon="4.83635">
        <ele>222.2</ele>
        <time>2021-02-02T11:54:40Z</time>
      </trkpt>
      <trkpt lat="44.37026" lon="4.83634">
        <ele>222.2</ele>
        <time>2021-02-02T11:54:42Z</time>
      </trkpt>
      <trkpt lat="44.37034" lon="4.83622">
        <ele>222.68</ele>
        <time>2021-02-02T11:54:57Z</time>
      </trkpt>
      <trkpt lat="44.37046" lon="4.83604">
        <ele>222.68</ele>
        <time>2021-02-02T11:55:11Z</time>
      </trkpt>
      <trkpt lat="44.37047" lon="4.83603">
        <ele>223.16</ele>
        <time>2021-02-02T11:55:12Z</time>
      </trkpt>
      <trkpt lat="44.37057" lon="4.83586">
        <ele>223.64</ele>
        <time>2021-02-02T11:55:27Z</time>
      </trkpt>
      <trkpt lat="44.37059" lon="4.83577">
        <ele>223.64</ele>
        <time>2021-02-02T11:55:33Z</time>
      </trkpt>
      <trkpt lat="44.37063" lon="4.83561">
        <ele>222.68</ele>
        <time>2021-02-02T11:55:45Z</time>
      </trkpt>
      <trkpt lat="44.3707" lon="4.83546">
        <ele>223.64</ele>
        <time>2021-02-02T11:56:00Z</time>
      </trkpt>
      <trkpt lat="44.37068" lon="4.83528">
        <ele>224.61</ele>
        <time>2021-02-02T11:56:11Z</time>
      </trkpt>
      <trkpt lat="44.37069" lon="4.83519">
        <ele>226.53</ele>
        <time>2021-02-02T11:56:24Z</time>
      </trkpt>
      <trkpt lat="44.37069" lon="4.83501">
        <ele>229.41</ele>
        <time>2021-02-02T11:56:40Z</time>
      </trkpt>
      <trkpt lat="44.37073" lon="4.83487">
        <ele>231.33</ele>
        <time>2021-02-02T11:56:51Z</time>
      </trkpt>
      <trkpt lat="44.3708" lon="4.83471">
        <ele>232.3</ele>
        <time>2021-02-02T11:57:03Z</time>
      </trkpt>
      <trkpt lat="44.37083" lon="4.83459">
        <ele>235.66</ele>
        <time>2021-02-02T11:57:17Z</time>
      </trkpt>
      <trkpt lat="44.37076" lon="4.83442">
        <ele>237.58</ele>
        <time>2021-02-02T11:57:32Z</time>
      </trkpt>
      <trkpt lat="44.37065" lon="4.83426">
        <ele>239.02</ele>
        <time>2021-02-02T11:57:47Z</time>
      </trkpt>
      <trkpt lat="44.37052" lon="4.83409">
        <ele>239.99</ele>
        <time>2021-02-02T11:58:04Z</time>
      </trkpt>
      <trkpt lat="44.37048" lon="4.83405">
        <ele>240.47</ele>
        <time>2021-02-02T11:58:11Z</time>
      </trkpt>
      <trkpt lat="44.37032" lon="4.834">
        <ele>240.95</ele>
        <time>2021-02-02T11:58:26Z</time>
      </trkpt>
      <trkpt lat="44.37028" lon="4.83391">
        <ele>240.95</ele>
        <time>2021-02-02T11:58:42Z</time>
      </trkpt>
      <trkpt lat="44.37028" lon="4.83385">
        <ele>240.95</ele>
        <time>2021-02-02T11:58:46Z</time>
      </trkpt>
      <trkpt lat="44.37035" lon="4.83356">
        <ele>239.99</ele>
        <time>2021-02-02T11:59:04Z</time>
      </trkpt>
      <trkpt lat="44.37037" lon="4.83342">
        <ele>239.51</ele>
        <time>2021-02-02T11:59:12Z</time>
      </trkpt>
      <trkpt lat="44.37035" lon="4.83314">
        <ele>239.51</ele>
        <time>2021-02-02T11:59:28Z</time>
      </trkpt>
      <trkpt lat="44.37026" lon="4.83286">
        <ele>241.43</ele>
        <time>2021-02-02T11:59:46Z</time>
      </trkpt>
      <trkpt lat="44.37024" lon="4.83262">
        <ele>244.79</ele>
        <time>2021-02-02T12:00:04Z</time>
      </trkpt>
      <trkpt lat="44.37024" lon="4.83233">
        <ele>246.72</ele>
        <time>2021-02-02T12:00:21Z</time>
      </trkpt>
      <trkpt lat="44.37023" lon="4.83212">
        <ele>248.64</ele>
        <time>2021-02-02T12:00:34Z</time>
      </trkpt>
      <trkpt lat="44.37021" lon="4.83204">
        <ele>249.12</ele>
        <time>2021-02-02T12:00:40Z</time>
      </trkpt>
      <trkpt lat="44.37013" lon="4.83186">
        <ele>250.56</ele>
        <time>2021-02-02T12:00:54Z</time>
      </trkpt>
      <trkpt lat="44.37013" lon="4.83173">
        <ele>251.52</ele>
        <time>2021-02-02T12:01:06Z</time>
      </trkpt>
      <trkpt lat="44.37014" lon="4.8317">
        <ele>251.52</ele>
        <time>2021-02-02T12:01:08Z</time>
      </trkpt>
      <trkpt lat="44.37013" lon="4.83164">
        <ele>251.52</ele>
        <time>2021-02-02T12:01:12Z</time>
      </trkpt>
      <trkpt lat="44.36997" lon="4.83142">
        <ele>252.48</ele>
        <time>2021-02-02T12:01:32Z</time>
      </trkpt>
      <trkpt lat="44.36985" lon="4.83135">
        <ele>252.48</ele>
        <time>2021-02-02T12:01:45Z</time>
      </trkpt>
      <trkpt lat="44.36958" lon="4.83125">
        <ele>252</ele>
        <time>2021-02-02T12:02:06Z</time>
      </trkpt>
      <trkpt lat="44.36939" lon="4.83122">
        <ele>252.48</ele>
        <time>2021-02-02T12:02:25Z</time>
      </trkpt>
      <trkpt lat="44.36939" lon="4.83121">
        <ele>252.48</ele>
        <time>2021-02-02T12:02:29Z</time>
      </trkpt>
      <trkpt lat="44.36936" lon="4.83092">
        <ele>251.04</ele>
        <time>2021-02-02T12:02:47Z</time>
      </trkpt>
      <trkpt lat="44.36937" lon="4.83058">
        <ele>251.04</ele>
        <time>2021-02-02T12:03:06Z</time>
      </trkpt>
      <trkpt lat="44.36939" lon="4.83037">
        <ele>251.04</ele>
        <time>2021-02-02T12:03:23Z</time>
      </trkpt>
      <trkpt lat="44.36941" lon="4.83001">
        <ele>252.96</ele>
        <time>2021-02-02T12:03:43Z</time>
      </trkpt>
      <trkpt lat="44.36941" lon="4.82974">
        <ele>254.41</ele>
        <time>2021-02-02T12:03:59Z</time>
      </trkpt>
      <trkpt lat="44.36937" lon="4.82948">
        <ele>256.33</ele>
        <time>2021-02-02T12:04:15Z</time>
      </trkpt>
      <trkpt lat="44.36936" lon="4.82927">
        <ele>257.29</ele>
        <time>2021-02-02T12:04:33Z</time>
      </trkpt>
      <trkpt lat="44.36938" lon="4.82928">
        <ele>256.33</ele>
        <time>2021-02-02T12:04:58Z</time>
      </trkpt>
      <trkpt lat="44.36938" lon="4.82927">
        <ele>257.77</ele>
        <time>2021-02-02T12:05:14Z</time>
      </trkpt>
      <trkpt lat="44.36937" lon="4.82925">
        <ele>257.77</ele>
        <time>2021-02-02T12:05:35Z</time>
      </trkpt>
      <trkpt lat="44.3694" lon="4.82928">
        <ele>257.77</ele>
        <time>2021-02-02T12:05:42Z</time>
      </trkpt>
      <trkpt lat="44.36958" lon="4.82945">
        <ele>258.25</ele>
        <time>2021-02-02T12:06:00Z</time>
      </trkpt>
      <trkpt lat="44.36975" lon="4.82944">
        <ele>259.69</ele>
        <time>2021-02-02T12:06:15Z</time>
      </trkpt>
      <trkpt lat="44.36986" lon="4.8295">
        <ele>260.17</ele>
        <time>2021-02-02T12:06:26Z</time>
      </trkpt>
      <trkpt lat="44.37002" lon="4.82959">
        <ele>262.1</ele>
        <time>2021-02-02T12:06:41Z</time>
      </trkpt>
      <trkpt lat="44.37013" lon="4.82958">
        <ele>263.06</ele>
        <time>2021-02-02T12:06:55Z</time>
      </trkpt>
      <trkpt lat="44.3702" lon="4.82936">
        <ele>264.98</ele>
        <time>2021-02-02T12:07:11Z</time>
      </trkpt>
      <trkpt lat="44.37027" lon="4.82917">
        <ele>267.38</ele>
        <time>2021-02-02T12:07:27Z</time>
      </trkpt>
      <trkpt lat="44.37031" lon="4.82888">
        <ele>268.35</ele>
        <time>2021-02-02T12:07:45Z</time>
      </trkpt>
      <trkpt lat="44.37038" lon="4.82867">
        <ele>269.79</ele>
        <time>2021-02-02T12:08:04Z</time>
      </trkpt>
      <trkpt lat="44.37045" lon="4.82842">
        <ele>271.23</ele>
        <time>2021-02-02T12:08:22Z</time>
      </trkpt>
      <trkpt lat="44.37047" lon="4.82819">
        <ele>271.71</ele>
        <time>2021-02-02T12:08:33Z</time>
      </trkpt>
      <trkpt lat="44.37056" lon="4.82797">
        <ele>274.11</ele>
        <time>2021-02-02T12:08:49Z</time>
      </trkpt>
      <trkpt lat="44.37066" lon="4.82783">
        <ele>276.04</ele>
        <time>2021-02-02T12:09:05Z</time>
      </trkpt>
      <trkpt lat="44.37077" lon="4.82768">
        <ele>278.44</ele>
        <time>2021-02-02T12:09:20Z</time>
      </trkpt>
      <trkpt lat="44.37087" lon="4.82758">
        <ele>279.88</ele>
        <time>2021-02-02T12:09:36Z</time>
      </trkpt>
      <trkpt lat="44.37101" lon="4.8275">
        <ele>281.32</ele>
        <time>2021-02-02T12:09:51Z</time>
      </trkpt>
      <trkpt lat="44.37116" lon="4.82741">
        <ele>283.25</ele>
        <time>2021-02-02T12:10:08Z</time>
      </trkpt>
      <trkpt lat="44.37134" lon="4.82727">
        <ele>285.65</ele>
        <time>2021-02-02T12:10:27Z</time>
      </trkpt>
      <trkpt lat="44.37147" lon="4.8271">
        <ele>286.61</ele>
        <time>2021-02-02T12:10:44Z</time>
      </trkpt>
      <trkpt lat="44.37158" lon="4.82697">
        <ele>288.53</ele>
        <time>2021-02-02T12:11:01Z</time>
      </trkpt>
      <trkpt lat="44.37173" lon="4.82678">
        <ele>289.97</ele>
        <time>2021-02-02T12:11:18Z</time>
      </trkpt>
      <trkpt lat="44.37184" lon="4.82664">
        <ele>291.42</ele>
        <time>2021-02-02T12:11:33Z</time>
      </trkpt>
      <trkpt lat="44.37195" lon="4.82648">
        <ele>292.86</ele>
        <time>2021-02-02T12:11:47Z</time>
      </trkpt>
      <trkpt lat="44.37206" lon="4.82634">
        <ele>294.3</ele>
        <time>2021-02-02T12:12:02Z</time>
      </trkpt>
      <trkpt lat="44.37206" lon="4.82624">
        <ele>294.3</ele>
        <time>2021-02-02T12:12:16Z</time>
      </trkpt>
      <trkpt lat="44.37205" lon="4.82624">
        <ele>294.3</ele>
        <time>2021-02-02T12:12:17Z</time>
      </trkpt>
      <trkpt lat="44.37188" lon="4.82625">
        <ele>294.3</ele>
        <time>2021-02-02T12:12:33Z</time>
      </trkpt>
      <trkpt lat="44.37174" lon="4.82623">
        <ele>294.3</ele>
        <time>2021-02-02T12:12:45Z</time>
      </trkpt>
      <trkpt lat="44.37154" lon="4.8262">
        <ele>292.86</ele>
        <time>2021-02-02T12:13:01Z</time>
      </trkpt>
      <trkpt lat="44.37137" lon="4.82608">
        <ele>292.38</ele>
        <time>2021-02-02T12:13:16Z</time>
      </trkpt>
      <trkpt lat="44.37124" lon="4.82599">
        <ele>292.38</ele>
        <time>2021-02-02T12:13:29Z</time>
      </trkpt>
      <trkpt lat="44.37119" lon="4.82595">
        <ele>292.38</ele>
        <time>2021-02-02T12:13:34Z</time>
      </trkpt>
      <trkpt lat="44.3711" lon="4.82578">
        <ele>292.38</ele>
        <time>2021-02-02T12:13:48Z</time>
      </trkpt>
      <trkpt lat="44.37105" lon="4.8257">
        <ele>292.38</ele>
        <time>2021-02-02T12:13:54Z</time>
      </trkpt>
      <trkpt lat="44.37091" lon="4.82553">
        <ele>291.9</ele>
        <time>2021-02-02T12:14:09Z</time>
      </trkpt>
      <trkpt lat="44.37076" lon="4.82543">
        <ele>291.42</ele>
        <time>2021-02-02T12:14:24Z</time>
      </trkpt>
      <trkpt lat="44.3705" lon="4.82537">
        <ele>289.49</ele>
        <time>2021-02-02T12:14:41Z</time>
      </trkpt>
      <trkpt lat="44.37031" lon="4.82545">
        <ele>288.53</ele>
        <time>2021-02-02T12:14:56Z</time>
      </trkpt>
      <trkpt lat="44.37011" lon="4.82556">
        <ele>288.05</ele>
        <time>2021-02-02T12:15:13Z</time>
      </trkpt>
      <trkpt lat="44.3699" lon="4.82556">
        <ele>288.05</ele>
        <time>2021-02-02T12:15:29Z</time>
      </trkpt>
      <trkpt lat="44.36978" lon="4.82541">
        <ele>288.05</ele>
        <time>2021-02-02T12:15:42Z</time>
      </trkpt>
      <trkpt lat="44.36966" lon="4.82515">
        <ele>289.01</ele>
        <time>2021-02-02T12:16:01Z</time>
      </trkpt>
      <trkpt lat="44.36952" lon="4.82495">
        <ele>289.49</ele>
        <time>2021-02-02T12:16:17Z</time>
      </trkpt>
      <trkpt lat="44.36938" lon="4.82466">
        <ele>289.49</ele>
        <time>2021-02-02T12:16:37Z</time>
      </trkpt>
      <trkpt lat="44.36933" lon="4.82456">
        <ele>290.46</ele>
        <time>2021-02-02T12:16:45Z</time>
      </trkpt>
      <trkpt lat="44.36909" lon="4.82455">
        <ele>290.46</ele>
        <time>2021-02-02T12:17:02Z</time>
      </trkpt>
      <trkpt lat="44.3689" lon="4.82458">
        <ele>290.46</ele>
        <time>2021-02-02T12:17:18Z</time>
      </trkpt>
      <trkpt lat="44.36887" lon="4.82459">
        <ele>289.01</ele>
        <time>2021-02-02T12:17:21Z</time>
      </trkpt>
      <trkpt lat="44.36865" lon="4.82455">
        <ele>286.13</ele>
        <time>2021-02-02T12:17:39Z</time>
      </trkpt>
      <trkpt lat="44.36856" lon="4.82445">
        <ele>285.17</ele>
        <time>2021-02-02T12:17:48Z</time>
      </trkpt>
      <trkpt lat="44.36849" lon="4.82437">
        <ele>284.69</ele>
        <time>2021-02-02T12:17:56Z</time>
      </trkpt>
      <trkpt lat="44.36829" lon="4.82454">
        <ele>283.73</ele>
        <time>2021-02-02T12:18:14Z</time>
      </trkpt>
      <trkpt lat="44.36813" lon="4.82468">
        <ele>283.25</ele>
        <time>2021-02-02T12:18:30Z</time>
      </trkpt>
      <trkpt lat="44.36806" lon="4.8247">
        <ele>282.77</ele>
        <time>2021-02-02T12:18:38Z</time>
      </trkpt>
      <trkpt lat="44.36802" lon="4.82478">
        <ele>281.8</ele>
        <time>2021-02-02T12:18:45Z</time>
      </trkpt>
      <trkpt lat="44.36804" lon="4.82492">
        <ele>281.32</ele>
        <time>2021-02-02T12:18:57Z</time>
      </trkpt>
      <trkpt lat="44.36805" lon="4.825">
        <ele>281.32</ele>
        <time>2021-02-02T12:19:05Z</time>
      </trkpt>
      <trkpt lat="44.36805" lon="4.82511">
        <ele>280.36</ele>
        <time>2021-02-02T12:19:13Z</time>
      </trkpt>
      <trkpt lat="44.36801" lon="4.82535">
        <ele>277.48</ele>
        <time>2021-02-02T12:19:29Z</time>
      </trkpt>
      <trkpt lat="44.36791" lon="4.82554">
        <ele>275.56</ele>
        <time>2021-02-02T12:19:44Z</time>
      </trkpt>
      <trkpt lat="44.36777" lon="4.82555">
        <ele>274.59</ele>
        <time>2021-02-02T12:19:56Z</time>
      </trkpt>
      <trkpt lat="44.36773" lon="4.82557">
        <ele>274.59</ele>
        <time>2021-02-02T12:20:00Z</time>
      </trkpt>
      <trkpt lat="44.36772" lon="4.82562">
        <ele>274.59</ele>
        <time>2021-02-02T12:20:04Z</time>
      </trkpt>
      <trkpt lat="44.36782" lon="4.8259">
        <ele>272.67</ele>
        <time>2021-02-02T12:20:23Z</time>
      </trkpt>
      <trkpt lat="44.36783" lon="4.82596">
        <ele>272.19</ele>
        <time>2021-02-02T12:20:27Z</time>
      </trkpt>
      <trkpt lat="44.36779" lon="4.82606">
        <ele>270.75</ele>
        <time>2021-02-02T12:20:35Z</time>
      </trkpt>
      <trkpt lat="44.3678" lon="4.82613">
        <ele>270.27</ele>
        <time>2021-02-02T12:20:42Z</time>
      </trkpt>
      <trkpt lat="44.36773" lon="4.82621">
        <ele>269.79</ele>
        <time>2021-02-02T12:20:56Z</time>
      </trkpt>
      <trkpt lat="44.36766" lon="4.8263">
        <ele>269.31</ele>
        <time>2021-02-02T12:21:16Z</time>
      </trkpt>
      <trkpt lat="44.36761" lon="4.82646">
        <ele>266.9</ele>
        <time>2021-02-02T12:21:28Z</time>
      </trkpt>
      <trkpt lat="44.36755" lon="4.82669">
        <ele>264.5</ele>
        <time>2021-02-02T12:21:44Z</time>
      </trkpt>
      <trkpt lat="44.36753" lon="4.82675">
        <ele>264.02</ele>
        <time>2021-02-02T12:22:02Z</time>
      </trkpt>
      <trkpt lat="44.36749" lon="4.82689">
        <ele>262.58</ele>
        <time>2021-02-02T12:22:17Z</time>
      </trkpt>
      <trkpt lat="44.36742" lon="4.82716">
        <ele>260.17</ele>
        <time>2021-02-02T12:22:35Z</time>
      </trkpt>
      <trkpt lat="44.36739" lon="4.82719">
        <ele>260.17</ele>
        <time>2021-02-02T12:22:38Z</time>
      </trkpt>
      <trkpt lat="44.36723" lon="4.8273">
        <ele>259.21</ele>
        <time>2021-02-02T12:22:54Z</time>
      </trkpt>
      <trkpt lat="44.36719" lon="4.82739">
        <ele>258.73</ele>
        <time>2021-02-02T12:23:08Z</time>
      </trkpt>
      <trkpt lat="44.3672" lon="4.8274">
        <ele>258.73</ele>
        <time>2021-02-02T12:23:43Z</time>
      </trkpt>
      <trkpt lat="44.36715" lon="4.82749">
        <ele>258.25</ele>
        <time>2021-02-02T12:23:57Z</time>
      </trkpt>
      <trkpt lat="44.3671" lon="4.8275">
        <ele>258.25</ele>
        <time>2021-02-02T12:24:19Z</time>
      </trkpt>
      <trkpt lat="44.36711" lon="4.8275">
        <ele>257.77</ele>
        <time>2021-02-02T12:24:40Z</time>
      </trkpt>
      <trkpt lat="44.36708" lon="4.82751">
        <ele>257.77</ele>
        <time>2021-02-02T12:24:48Z</time>
      </trkpt>
      <trkpt lat="44.3669" lon="4.82751">
        <ele>257.77</ele>
        <time>2021-02-02T12:25:05Z</time>
      </trkpt>
      <trkpt lat="44.36668" lon="4.82748">
        <ele>257.29</ele>
        <time>2021-02-02T12:25:24Z</time>
      </trkpt>
      <trkpt lat="44.36646" lon="4.82748">
        <ele>256.81</ele>
        <time>2021-02-02T12:25:41Z</time>
      </trkpt>
      <trkpt lat="44.36627" lon="4.82746">
        <ele>256.81</ele>
        <time>2021-02-02T12:25:57Z</time>
      </trkpt>
      <trkpt lat="44.36609" lon="4.82744">
        <ele>256.33</ele>
        <time>2021-02-02T12:26:13Z</time>
      </trkpt>
      <trkpt lat="44.36593" lon="4.82754">
        <ele>254.89</ele>
        <time>2021-02-02T12:26:29Z</time>
      </trkpt>
      <trkpt lat="44.36589" lon="4.82761">
        <ele>254.41</ele>
        <time>2021-02-02T12:26:35Z</time>
      </trkpt>
      <trkpt lat="44.36585" lon="4.82791">
        <ele>252</ele>
        <time>2021-02-02T12:26:54Z</time>
      </trkpt>
      <trkpt lat="44.36583" lon="4.82811">
        <ele>248.64</ele>
        <time>2021-02-02T12:27:08Z</time>
      </trkpt>
      <trkpt lat="44.36578" lon="4.82831">
        <ele>246.23</ele>
        <time>2021-02-02T12:27:22Z</time>
      </trkpt>
      <trkpt lat="44.36574" lon="4.82853">
        <ele>242.87</ele>
        <time>2021-02-02T12:27:37Z</time>
      </trkpt>
      <trkpt lat="44.3657" lon="4.82878">
        <ele>239.99</ele>
        <time>2021-02-02T12:27:55Z</time>
      </trkpt>
      <trkpt lat="44.36568" lon="4.82899">
        <ele>237.58</ele>
        <time>2021-02-02T12:28:11Z</time>
      </trkpt>
      <trkpt lat="44.36564" lon="4.82919">
        <ele>235.18</ele>
        <time>2021-02-02T12:28:24Z</time>
      </trkpt>
      <trkpt lat="44.36564" lon="4.82921">
        <ele>234.7</ele>
        <time>2021-02-02T12:28:25Z</time>
      </trkpt>
      <trkpt lat="44.36559" lon="4.82943">
        <ele>232.78</ele>
        <time>2021-02-02T12:28:40Z</time>
      </trkpt>
      <trkpt lat="44.36545" lon="4.82965">
        <ele>231.81</ele>
        <time>2021-02-02T12:28:56Z</time>
      </trkpt>
      <trkpt lat="44.36532" lon="4.82979">
        <ele>230.85</ele>
        <time>2021-02-02T12:29:11Z</time>
      </trkpt>
      <trkpt lat="44.36525" lon="4.82991">
        <ele>230.37</ele>
        <time>2021-02-02T12:29:22Z</time>
      </trkpt>
      <trkpt lat="44.36527" lon="4.83003">
        <ele>231.33</ele>
        <time>2021-02-02T12:29:30Z</time>
      </trkpt>
      <trkpt lat="44.36537" lon="4.83012">
        <ele>231.81</ele>
        <time>2021-02-02T12:29:41Z</time>
      </trkpt>
      <trkpt lat="44.36546" lon="4.83022">
        <ele>232.3</ele>
        <time>2021-02-02T12:29:56Z</time>
      </trkpt>
      <trkpt lat="44.36544" lon="4.83036">
        <ele>233.26</ele>
        <time>2021-02-02T12:30:05Z</time>
      </trkpt>
      <trkpt lat="44.36545" lon="4.83043">
        <ele>233.74</ele>
        <time>2021-02-02T12:30:10Z</time>
      </trkpt>
      <trkpt lat="44.36554" lon="4.83055">
        <ele>234.7</ele>
        <time>2021-02-02T12:30:25Z</time>
      </trkpt>
      <trkpt lat="44.36557" lon="4.83057">
        <ele>235.18</ele>
        <time>2021-02-02T12:30:28Z</time>
      </trkpt>
      <trkpt lat="44.3657" lon="4.83065">
        <ele>235.66</ele>
        <time>2021-02-02T12:30:39Z</time>
      </trkpt>
      <trkpt lat="44.36578" lon="4.83083">
        <ele>238.06</ele>
        <time>2021-02-02T12:30:55Z</time>
      </trkpt>
      <trkpt lat="44.36578" lon="4.83099">
        <ele>241.43</ele>
        <time>2021-02-02T12:31:08Z</time>
      </trkpt>
      <trkpt lat="44.36578" lon="4.83102">
        <ele>241.91</ele>
        <time>2021-02-02T12:31:10Z</time>
      </trkpt>
      <trkpt lat="44.36577" lon="4.83111">
        <ele>241.91</ele>
        <time>2021-02-02T12:31:15Z</time>
      </trkpt>
      <trkpt lat="44.36575" lon="4.83129">
        <ele>244.79</ele>
        <time>2021-02-02T12:31:30Z</time>
      </trkpt>
      <trkpt lat="44.36563" lon="4.83137">
        <ele>246.23</ele>
        <time>2021-02-02T12:31:45Z</time>
      </trkpt>
      <trkpt lat="44.36547" lon="4.83135">
        <ele>246.72</ele>
        <time>2021-02-02T12:32:00Z</time>
      </trkpt>
      <trkpt lat="44.36536" lon="4.83133">
        <ele>246.72</ele>
        <time>2021-02-02T12:32:10Z</time>
      </trkpt>
      <trkpt lat="44.36512" lon="4.8313">
        <ele>245.75</ele>
        <time>2021-02-02T12:32:28Z</time>
      </trkpt>
      <trkpt lat="44.36497" lon="4.83142">
        <ele>243.35</ele>
        <time>2021-02-02T12:32:45Z</time>
      </trkpt>
      <trkpt lat="44.3649" lon="4.83159">
        <ele>240.47</ele>
        <time>2021-02-02T12:32:59Z</time>
      </trkpt>
      <trkpt lat="44.36479" lon="4.83183">
        <ele>238.06</ele>
        <time>2021-02-02T12:33:16Z</time>
      </trkpt>
      <trkpt lat="44.36478" lon="4.83187">
        <ele>237.58</ele>
        <time>2021-02-02T12:33:19Z</time>
      </trkpt>
      <trkpt lat="44.36471" lon="4.83211">
        <ele>234.7</ele>
        <time>2021-02-02T12:33:35Z</time>
      </trkpt>
      <trkpt lat="44.36448" lon="4.83215">
        <ele>232.78</ele>
        <time>2021-02-02T12:33:55Z</time>
      </trkpt>
      <trkpt lat="44.36429" lon="4.83206">
        <ele>231.33</ele>
        <time>2021-02-02T12:34:12Z</time>
      </trkpt>
      <trkpt lat="44.36411" lon="4.83196">
        <ele>229.89</ele>
        <time>2021-02-02T12:34:28Z</time>
      </trkpt>
      <trkpt lat="44.36389" lon="4.83182">
        <ele>228.93</ele>
        <time>2021-02-02T12:34:47Z</time>
      </trkpt>
      <trkpt lat="44.36379" lon="4.83175">
        <ele>228.45</ele>
        <time>2021-02-02T12:35:01Z</time>
      </trkpt>
      <trkpt lat="44.36377" lon="4.83171">
        <ele>228.45</ele>
        <time>2021-02-02T12:35:15Z</time>
      </trkpt>
      <trkpt lat="44.36375" lon="4.83166">
        <ele>228.45</ele>
        <time>2021-02-02T12:35:20Z</time>
      </trkpt>
      <trkpt lat="44.36371" lon="4.8315">
        <ele>228.45</ele>
        <time>2021-02-02T12:35:29Z</time>
      </trkpt>
      <trkpt lat="44.36367" lon="4.83132">
        <ele>230.37</ele>
        <time>2021-02-02T12:35:41Z</time>
      </trkpt>
      <trkpt lat="44.36373" lon="4.83107">
        <ele>232.78</ele>
        <time>2021-02-02T12:35:57Z</time>
      </trkpt>
      <trkpt lat="44.36378" lon="4.83098">
        <ele>232.3</ele>
        <time>2021-02-02T12:36:10Z</time>
      </trkpt>
      <trkpt lat="44.36372" lon="4.83095">
        <ele>232.3</ele>
        <time>2021-02-02T12:36:22Z</time>
      </trkpt>
      <trkpt lat="44.3635" lon="4.83091">
        <ele>231.33</ele>
        <time>2021-02-02T12:36:39Z</time>
      </trkpt>
      <trkpt lat="44.36336" lon="4.83076">
        <ele>230.37</ele>
        <time>2021-02-02T12:36:56Z</time>
      </trkpt>
      <trkpt lat="44.36338" lon="4.83055">
        <ele>227.97</ele>
        <time>2021-02-02T12:37:11Z</time>
      </trkpt>
      <trkpt lat="44.36338" lon="4.83054">
        <ele>227.97</ele>
        <time>2021-02-02T12:37:12Z</time>
      </trkpt>
      <trkpt lat="44.36338" lon="4.83042">
        <ele>227.01</ele>
        <time>2021-02-02T12:37:19Z</time>
      </trkpt>
      <trkpt lat="44.36334" lon="4.83037">
        <ele>226.53</ele>
        <time>2021-02-02T12:37:24Z</time>
      </trkpt>
      <trkpt lat="44.36316" lon="4.83025">
        <ele>225.57</ele>
        <time>2021-02-02T12:37:40Z</time>
      </trkpt>
      <trkpt lat="44.36308" lon="4.83028">
        <ele>225.57</ele>
        <time>2021-02-02T12:37:48Z</time>
      </trkpt>
      <trkpt lat="44.36296" lon="4.83033">
        <ele>227.01</ele>
        <time>2021-02-02T12:37:58Z</time>
      </trkpt>
      <trkpt lat="44.36291" lon="4.83034">
        <ele>227.97</ele>
        <time>2021-02-02T12:38:03Z</time>
      </trkpt>
      <trkpt lat="44.36282" lon="4.83028">
        <ele>227.97</ele>
        <time>2021-02-02T12:38:12Z</time>
      </trkpt>
      <trkpt lat="44.36284" lon="4.83011">
        <ele>226.53</ele>
        <time>2021-02-02T12:38:24Z</time>
      </trkpt>
      <trkpt lat="44.36296" lon="4.82989">
        <ele>224.12</ele>
        <time>2021-02-02T12:38:41Z</time>
      </trkpt>
      <trkpt lat="44.36301" lon="4.82975">
        <ele>223.64</ele>
        <time>2021-02-02T12:38:53Z</time>
      </trkpt>
      <trkpt lat="44.36294" lon="4.82966">
        <ele>223.16</ele>
        <time>2021-02-02T12:39:04Z</time>
      </trkpt>
      <trkpt lat="44.36276" lon="4.82965">
        <ele>221.72</ele>
        <time>2021-02-02T12:39:20Z</time>
      </trkpt>
      <trkpt lat="44.3626" lon="4.82974">
        <ele>223.16</ele>
        <time>2021-02-02T12:39:35Z</time>
      </trkpt>
      <trkpt lat="44.36246" lon="4.8299">
        <ele>224.12</ele>
        <time>2021-02-02T12:39:51Z</time>
      </trkpt>
      <trkpt lat="44.36241" lon="4.83004">
        <ele>223.64</ele>
        <time>2021-02-02T12:40:04Z</time>
      </trkpt>
      <trkpt lat="44.36242" lon="4.83029">
        <ele>223.64</ele>
        <time>2021-02-02T12:40:23Z</time>
      </trkpt>
      <trkpt lat="44.36235" lon="4.83026">
        <ele>222.68</ele>
        <time>2021-02-02T12:40:32Z</time>
      </trkpt>
      <trkpt lat="44.36222" lon="4.83012">
        <ele>220.76</ele>
        <time>2021-02-02T12:40:49Z</time>
      </trkpt>
      <trkpt lat="44.36209" lon="4.83001">
        <ele>218.84</ele>
        <time>2021-02-02T12:41:04Z</time>
      </trkpt>
      <trkpt lat="44.362" lon="4.82988">
        <ele>217.88</ele>
        <time>2021-02-02T12:41:15Z</time>
      </trkpt>
      <trkpt lat="44.36192" lon="4.82966">
        <ele>215.47</ele>
        <time>2021-02-02T12:41:31Z</time>
      </trkpt>
      <trkpt lat="44.36192" lon="4.82963">
        <ele>215.47</ele>
        <time>2021-02-02T12:41:33Z</time>
      </trkpt>
      <trkpt lat="44.36188" lon="4.82953">
        <ele>214.99</ele>
        <time>2021-02-02T12:41:39Z</time>
      </trkpt>
      <trkpt lat="44.36173" lon="4.82939">
        <ele>212.11</ele>
        <time>2021-02-02T12:41:56Z</time>
      </trkpt>
      <trkpt lat="44.3616" lon="4.82926">
        <ele>209.7</ele>
        <time>2021-02-02T12:42:12Z</time>
      </trkpt>
      <trkpt lat="44.36152" lon="4.82923">
        <ele>206.82</ele>
        <time>2021-02-02T12:42:20Z</time>
      </trkpt>
      <trkpt lat="44.36136" lon="4.82923">
        <ele>205.86</ele>
        <time>2021-02-02T12:42:34Z</time>
      </trkpt>
      <trkpt lat="44.36132" lon="4.82923">
        <ele>207.3</ele>
        <time>2021-02-02T12:42:39Z</time>
      </trkpt>
      <trkpt lat="44.36114" lon="4.82922">
        <ele>208.26</ele>
        <time>2021-02-02T12:42:54Z</time>
      </trkpt>
      <trkpt lat="44.36097" lon="4.82929">
        <ele>208.26</ele>
        <time>2021-02-02T12:43:11Z</time>
      </trkpt>
      <trkpt lat="44.36086" lon="4.82922">
        <ele>206.82</ele>
        <time>2021-02-02T12:43:26Z</time>
      </trkpt>
      <trkpt lat="44.36091" lon="4.82918">
        <ele>206.82</ele>
        <time>2021-02-02T12:43:50Z</time>
      </trkpt>
      <trkpt lat="44.36106" lon="4.82907">
        <ele>204.42</ele>
        <time>2021-02-02T12:44:07Z</time>
      </trkpt>
      <trkpt lat="44.36111" lon="4.82898">
        <ele>201.53</ele>
        <time>2021-02-02T12:44:16Z</time>
      </trkpt>
      <trkpt lat="44.36124" lon="4.82884">
        <ele>198.17</ele>
        <time>2021-02-02T12:44:31Z</time>
      </trkpt>
      <trkpt lat="44.3614" lon="4.82881">
        <ele>197.69</ele>
        <time>2021-02-02T12:44:47Z</time>
      </trkpt>
      <trkpt lat="44.36143" lon="4.8288">
        <ele>199.13</ele>
        <time>2021-02-02T12:44:49Z</time>
      </trkpt>
      <trkpt lat="44.36158" lon="4.82876">
        <ele>202.98</ele>
        <time>2021-02-02T12:45:02Z</time>
      </trkpt>
      <trkpt lat="44.36163" lon="4.82875">
        <ele>201.05</ele>
        <time>2021-02-02T12:45:05Z</time>
      </trkpt>
      <trkpt lat="44.3617" lon="4.82879">
        <ele>202.01</ele>
        <time>2021-02-02T12:45:13Z</time>
      </trkpt>
      <trkpt lat="44.36189" lon="4.82884">
        <ele>204.42</ele>
        <time>2021-02-02T12:45:31Z</time>
      </trkpt>
      <trkpt lat="44.36205" lon="4.82886">
        <ele>205.86</ele>
        <time>2021-02-02T12:45:46Z</time>
      </trkpt>
      <trkpt lat="44.36208" lon="4.82886">
        <ele>206.34</ele>
        <time>2021-02-02T12:45:49Z</time>
      </trkpt>
      <trkpt lat="44.36225" lon="4.82885">
        <ele>206.34</ele>
        <time>2021-02-02T12:46:05Z</time>
      </trkpt>
      <trkpt lat="44.36243" lon="4.82885">
        <ele>208.26</ele>
        <time>2021-02-02T12:46:21Z</time>
      </trkpt>
      <trkpt lat="44.36261" lon="4.82894">
        <ele>210.67</ele>
        <time>2021-02-02T12:46:39Z</time>
      </trkpt>
      <trkpt lat="44.36278" lon="4.82901">
        <ele>213.07</ele>
        <time>2021-02-02T12:46:55Z</time>
      </trkpt>
      <trkpt lat="44.36277" lon="4.82898">
        <ele>214.03</ele>
        <time>2021-02-02T12:47:09Z</time>
      </trkpt>
      <trkpt lat="44.36275" lon="4.82898">
        <ele>214.03</ele>
        <time>2021-02-02T12:47:12Z</time>
      </trkpt>
      <trkpt lat="44.3627" lon="4.82896">
        <ele>212.59</ele>
        <time>2021-02-02T12:47:17Z</time>
      </trkpt>
      <trkpt lat="44.3626" lon="4.82889">
        <ele>211.15</ele>
        <time>2021-02-02T12:47:28Z</time>
      </trkpt>
      <trkpt lat="44.36255" lon="4.82886">
        <ele>210.19</ele>
        <time>2021-02-02T12:47:33Z</time>
      </trkpt>
      <trkpt lat="44.36236" lon="4.82885">
        <ele>207.78</ele>
        <time>2021-02-02T12:47:49Z</time>
      </trkpt>
      <trkpt lat="44.36218" lon="4.82885">
        <ele>207.78</ele>
        <time>2021-02-02T12:48:04Z</time>
      </trkpt>
      <trkpt lat="44.36206" lon="4.82886">
        <ele>207.3</ele>
        <time>2021-02-02T12:48:13Z</time>
      </trkpt>
      <trkpt lat="44.36202" lon="4.82887">
        <ele>207.3</ele>
        <time>2021-02-02T12:48:16Z</time>
      </trkpt>
      <trkpt lat="44.36198" lon="4.82886">
        <ele>206.82</ele>
        <time>2021-02-02T12:48:20Z</time>
      </trkpt>
      <trkpt lat="44.3618" lon="4.82881">
        <ele>204.9</ele>
        <time>2021-02-02T12:48:38Z</time>
      </trkpt>
      <trkpt lat="44.36175" lon="4.82881">
        <ele>204.42</ele>
        <time>2021-02-02T12:48:50Z</time>
      </trkpt>
      <trkpt lat="44.36173" lon="4.8288">
        <ele>204.42</ele>
        <time>2021-02-02T12:48:52Z</time>
      </trkpt>
      <trkpt lat="44.36171" lon="4.8288">
        <ele>204.42</ele>
        <time>2021-02-02T12:48:54Z</time>
      </trkpt>
      <trkpt lat="44.36175" lon="4.82879">
        <ele>204.42</ele>
        <time>2021-02-02T12:49:04Z</time>
      </trkpt>
      <trkpt lat="44.3618" lon="4.82879">
        <ele>204.42</ele>
        <time>2021-02-02T12:49:09Z</time>
      </trkpt>
      <trkpt lat="44.36185" lon="4.82881">
        <ele>205.38</ele>
        <time>2021-02-02T12:49:13Z</time>
      </trkpt>
      <trkpt lat="44.36195" lon="4.82879">
        <ele>206.34</ele>
        <time>2021-02-02T12:49:28Z</time>
      </trkpt>
      <trkpt lat="44.36197" lon="4.8287">
        <ele>204.9</ele>
        <time>2021-02-02T12:49:35Z</time>
      </trkpt>
      <trkpt lat="44.36196" lon="4.82864">
        <ele>204.42</ele>
        <time>2021-02-02T12:49:50Z</time>
      </trkpt>
      <trkpt lat="44.36192" lon="4.82856">
        <ele>202.98</ele>
        <time>2021-02-02T12:50:10Z</time>
      </trkpt>
      <trkpt lat="44.36192" lon="4.82851">
        <ele>202.49</ele>
        <time>2021-02-02T12:50:30Z</time>
      </trkpt>
      <trkpt lat="44.36192" lon="4.82848">
        <ele>202.49</ele>
        <time>2021-02-02T12:50:56Z</time>
      </trkpt>
      <trkpt lat="44.36193" lon="4.82848">
        <ele>202.98</ele>
        <time>2021-02-02T12:51:26Z</time>
      </trkpt>
      <trkpt lat="44.36193" lon="4.82849">
        <ele>202.98</ele>
        <time>2021-02-02T12:51:49Z</time>
      </trkpt>
      <trkpt lat="44.36197" lon="4.82845">
        <ele>202.98</ele>
        <time>2021-02-02T12:52:02Z</time>
      </trkpt>
      <trkpt lat="44.36197" lon="4.82842">
        <ele>203.94</ele>
        <time>2021-02-02T12:52:04Z</time>
      </trkpt>
      <trkpt lat="44.36196" lon="4.8284">
        <ele>204.42</ele>
        <time>2021-02-02T12:52:07Z</time>
      </trkpt>
      <trkpt lat="44.36188" lon="4.82825">
        <ele>204.42</ele>
        <time>2021-02-02T12:52:19Z</time>
      </trkpt>
      <trkpt lat="44.36186" lon="4.82823">
        <ele>203.46</ele>
        <time>2021-02-02T12:52:21Z</time>
      </trkpt>
      <trkpt lat="44.36186" lon="4.82823">
        <ele>203.46</ele>
        <time>2021-02-02T12:52:22Z</time>
      </trkpt>
      <trkpt lat="44.36169" lon="4.82814">
        <ele>201.53</ele>
        <time>2021-02-02T12:52:37Z</time>
      </trkpt>
      <trkpt lat="44.3616" lon="4.82805">
        <ele>200.57</ele>
        <time>2021-02-02T12:52:47Z</time>
      </trkpt>
      <trkpt lat="44.36145" lon="4.82799">
        <ele>198.17</ele>
        <time>2021-02-02T12:53:01Z</time>
      </trkpt>
      <trkpt lat="44.36134" lon="4.82797">
        <ele>195.77</ele>
        <time>2021-02-02T12:53:14Z</time>
      </trkpt>
      <trkpt lat="44.3612" lon="4.82797">
        <ele>194.32</ele>
        <time>2021-02-02T12:53:27Z</time>
      </trkpt>
      <trkpt lat="44.36106" lon="4.828">
        <ele>191.92</ele>
        <time>2021-02-02T12:53:41Z</time>
      </trkpt>
      <trkpt lat="44.36096" lon="4.82792">
        <ele>189.52</ele>
        <time>2021-02-02T12:53:59Z</time>
      </trkpt>
      <trkpt lat="44.36088" lon="4.82793">
        <ele>189.52</ele>
        <time>2021-02-02T12:54:16Z</time>
      </trkpt>
      <trkpt lat="44.36071" lon="4.82794">
        <ele>187.59</ele>
        <time>2021-02-02T12:54:31Z</time>
      </trkpt>
      <trkpt lat="44.36058" lon="4.82787">
        <ele>185.19</ele>
        <time>2021-02-02T12:54:46Z</time>
      </trkpt>
      <trkpt lat="44.3604" lon="4.82787">
        <ele>184.23</ele>
        <time>2021-02-02T12:55:02Z</time>
      </trkpt>
      <trkpt lat="44.36024" lon="4.82785">
        <ele>184.23</ele>
        <time>2021-02-02T12:55:17Z</time>
      </trkpt>
      <trkpt lat="44.36013" lon="4.82781">
        <ele>185.19</ele>
        <time>2021-02-02T12:55:35Z</time>
      </trkpt>
      <trkpt lat="44.36002" lon="4.8278">
        <ele>183.75</ele>
        <time>2021-02-02T12:55:46Z</time>
      </trkpt>
      <trkpt lat="44.35986" lon="4.82776">
        <ele>181.83</ele>
        <time>2021-02-02T12:56:00Z</time>
      </trkpt>
      <trkpt lat="44.3598" lon="4.82771">
        <ele>181.83</ele>
        <time>2021-02-02T12:56:06Z</time>
      </trkpt>
      <trkpt lat="44.35963" lon="4.82761">
        <ele>180.38</ele>
        <time>2021-02-02T12:56:21Z</time>
      </trkpt>
      <trkpt lat="44.35958" lon="4.82759">
        <ele>180.38</ele>
        <time>2021-02-02T12:56:26Z</time>
      </trkpt>
      <trkpt lat="44.35953" lon="4.82759">
        <ele>179.9</ele>
        <time>2021-02-02T12:56:30Z</time>
      </trkpt>
      <trkpt lat="44.35939" lon="4.82758">
        <ele>178.46</ele>
        <time>2021-02-02T12:56:42Z</time>
      </trkpt>
      <trkpt lat="44.3593" lon="4.82762">
        <ele>177.5</ele>
        <time>2021-02-02T12:56:50Z</time>
      </trkpt>
      <trkpt lat="44.35916" lon="4.8276">
        <ele>176.06</ele>
        <time>2021-02-02T12:57:05Z</time>
      </trkpt>
      <trkpt lat="44.35914" lon="4.82763">
        <ele>175.1</ele>
        <time>2021-02-02T12:57:09Z</time>
      </trkpt>
      <trkpt lat="44.35908" lon="4.82762">
        <ele>175.1</ele>
        <time>2021-02-02T12:57:17Z</time>
      </trkpt>
      <trkpt lat="44.35903" lon="4.82757">
        <ele>175.1</ele>
        <time>2021-02-02T12:57:21Z</time>
      </trkpt>
      <trkpt lat="44.35888" lon="4.8276">
        <ele>175.1</ele>
        <time>2021-02-02T12:57:37Z</time>
      </trkpt>
      <trkpt lat="44.35885" lon="4.82759">
        <ele>175.1</ele>
        <time>2021-02-02T12:57:51Z</time>
      </trkpt>
      <trkpt lat="44.35874" lon="4.82767">
        <ele>176.54</ele>
        <time>2021-02-02T12:58:07Z</time>
      </trkpt>
      <trkpt lat="44.35869" lon="4.82772">
        <ele>177.98</ele>
        <time>2021-02-02T12:58:14Z</time>
      </trkpt>
      <trkpt lat="44.35857" lon="4.82777">
        <ele>179.42</ele>
        <time>2021-02-02T12:58:26Z</time>
      </trkpt>
      <trkpt lat="44.35838" lon="4.82784">
        <ele>181.83</ele>
        <time>2021-02-02T12:58:42Z</time>
      </trkpt>
      <trkpt lat="44.3582" lon="4.8279">
        <ele>183.75</ele>
        <time>2021-02-02T12:59:00Z</time>
      </trkpt>
      <trkpt lat="44.35797" lon="4.82796">
        <ele>185.67</ele>
        <time>2021-02-02T12:59:19Z</time>
      </trkpt>
      <trkpt lat="44.3578" lon="4.82801">
        <ele>186.15</ele>
        <time>2021-02-02T12:59:34Z</time>
      </trkpt>
      <trkpt lat="44.35758" lon="4.82805">
        <ele>186.15</ele>
        <time>2021-02-02T12:59:53Z</time>
      </trkpt>
      <trkpt lat="44.35743" lon="4.82807">
        <ele>187.11</ele>
        <time>2021-02-02T13:00:05Z</time>
      </trkpt>
      <trkpt lat="44.35722" lon="4.82816">
        <ele>187.11</ele>
        <time>2021-02-02T13:00:23Z</time>
      </trkpt>
      <trkpt lat="44.35707" lon="4.82832">
        <ele>189.04</ele>
        <time>2021-02-02T13:00:40Z</time>
      </trkpt>
      <trkpt lat="44.35704" lon="4.8285">
        <ele>191.44</ele>
        <time>2021-02-02T13:00:54Z</time>
      </trkpt>
      <trkpt lat="44.35704" lon="4.8287">
        <ele>193.36</ele>
        <time>2021-02-02T13:01:09Z</time>
      </trkpt>
      <trkpt lat="44.35703" lon="4.82904">
        <ele>193.84</ele>
        <time>2021-02-02T13:01:29Z</time>
      </trkpt>
      <trkpt lat="44.35703" lon="4.8291">
        <ele>193.84</ele>
        <time>2021-02-02T13:01:33Z</time>
      </trkpt>
      <trkpt lat="44.35702" lon="4.82916">
        <ele>193.84</ele>
        <time>2021-02-02T13:01:37Z</time>
      </trkpt>
      <trkpt lat="44.35699" lon="4.82925">
        <ele>192.4</ele>
        <time>2021-02-02T13:01:43Z</time>
      </trkpt>
      <trkpt lat="44.35688" lon="4.82936">
        <ele>190.96</ele>
        <time>2021-02-02T13:01:55Z</time>
      </trkpt>
      <trkpt lat="44.35663" lon="4.8293">
        <ele>188.08</ele>
        <time>2021-02-02T13:02:17Z</time>
      </trkpt>
      <trkpt lat="44.35655" lon="4.82927">
        <ele>187.11</ele>
        <time>2021-02-02T13:02:25Z</time>
      </trkpt>
      <trkpt lat="44.35642" lon="4.82923">
        <ele>184.23</ele>
        <time>2021-02-02T13:02:38Z</time>
      </trkpt>
      <trkpt lat="44.35622" lon="4.82922">
        <ele>180.87</ele>
        <time>2021-02-02T13:02:55Z</time>
      </trkpt>
      <trkpt lat="44.35602" lon="4.82928">
        <ele>178.94</ele>
        <time>2021-02-02T13:03:11Z</time>
      </trkpt>
      <trkpt lat="44.35596" lon="4.82932">
        <ele>177.5</ele>
        <time>2021-02-02T13:03:17Z</time>
      </trkpt>
      <trkpt lat="44.35578" lon="4.82943">
        <ele>174.62</ele>
        <time>2021-02-02T13:03:34Z</time>
      </trkpt>
      <trkpt lat="44.35563" lon="4.82952">
        <ele>172.21</ele>
        <time>2021-02-02T13:03:48Z</time>
      </trkpt>
      <trkpt lat="44.35557" lon="4.82955">
        <ele>170.77</ele>
        <time>2021-02-02T13:03:53Z</time>
      </trkpt>
      <trkpt lat="44.35544" lon="4.82969">
        <ele>167.89</ele>
        <time>2021-02-02T13:04:09Z</time>
      </trkpt>
      <trkpt lat="44.35521" lon="4.82967">
        <ele>164.52</ele>
        <time>2021-02-02T13:04:28Z</time>
      </trkpt>
      <trkpt lat="44.35501" lon="4.82964">
        <ele>162.12</ele>
        <time>2021-02-02T13:04:45Z</time>
      </trkpt>
      <trkpt lat="44.35485" lon="4.82959">
        <ele>159.72</ele>
        <time>2021-02-02T13:05:00Z</time>
      </trkpt>
      <trkpt lat="44.3547" lon="4.82958">
        <ele>157.79</ele>
        <time>2021-02-02T13:05:16Z</time>
      </trkpt>
      <trkpt lat="44.35455" lon="4.82954">
        <ele>154.91</ele>
        <time>2021-02-02T13:05:31Z</time>
      </trkpt>
      <trkpt lat="44.35438" lon="4.82949">
        <ele>152.99</ele>
        <time>2021-02-02T13:05:47Z</time>
      </trkpt>
      <trkpt lat="44.35435" lon="4.82948">
        <ele>152.03</ele>
        <time>2021-02-02T13:05:51Z</time>
      </trkpt>
      <trkpt lat="44.35422" lon="4.82946">
        <ele>150.1</ele>
        <time>2021-02-02T13:06:02Z</time>
      </trkpt>
      <trkpt lat="44.35403" lon="4.82949">
        <ele>148.18</ele>
        <time>2021-02-02T13:06:16Z</time>
      </trkpt>
      <trkpt lat="44.354" lon="4.82962">
        <ele>147.22</ele>
        <time>2021-02-02T13:06:31Z</time>
      </trkpt>
      <trkpt lat="44.35402" lon="4.82975">
        <ele>147.22</ele>
        <time>2021-02-02T13:06:41Z</time>
      </trkpt>
      <trkpt lat="44.35404" lon="4.83006">
        <ele>146.74</ele>
        <time>2021-02-02T13:06:57Z</time>
      </trkpt>
      <trkpt lat="44.35405" lon="4.83029">
        <ele>144.82</ele>
        <time>2021-02-02T13:07:13Z</time>
      </trkpt>
      <trkpt lat="44.35412" lon="4.83044">
        <ele>143.85</ele>
        <time>2021-02-02T13:07:27Z</time>
      </trkpt>
      <trkpt lat="44.35421" lon="4.8305">
        <ele>143.85</ele>
        <time>2021-02-02T13:07:43Z</time>
      </trkpt>
      <trkpt lat="44.35431" lon="4.8305">
        <ele>145.3</ele>
        <time>2021-02-02T13:07:56Z</time>
      </trkpt>
      <trkpt lat="44.35446" lon="4.83048">
        <ele>146.26</ele>
        <time>2021-02-02T13:08:11Z</time>
      </trkpt>
      <trkpt lat="44.35458" lon="4.83039">
        <ele>147.22</ele>
        <time>2021-02-02T13:08:26Z</time>
      </trkpt>
      <trkpt lat="44.3547" lon="4.8303">
        <ele>148.66</ele>
        <time>2021-02-02T13:08:40Z</time>
      </trkpt>
      <trkpt lat="44.35479" lon="4.83024">
        <ele>150.1</ele>
        <time>2021-02-02T13:08:55Z</time>
      </trkpt>
      <trkpt lat="44.35493" lon="4.8302">
        <ele>151.06</ele>
        <time>2021-02-02T13:09:10Z</time>
      </trkpt>
      <trkpt lat="44.35508" lon="4.83024">
        <ele>152.03</ele>
        <time>2021-02-02T13:09:24Z</time>
      </trkpt>
      <trkpt lat="44.3552" lon="4.8302">
        <ele>152.99</ele>
        <time>2021-02-02T13:09:41Z</time>
      </trkpt>
      <trkpt lat="44.35528" lon="4.83026">
        <ele>153.47</ele>
        <time>2021-02-02T13:09:52Z</time>
      </trkpt>
      <trkpt lat="44.35538" lon="4.83025">
        <ele>154.91</ele>
        <time>2021-02-02T13:10:05Z</time>
      </trkpt>
      <trkpt lat="44.3555" lon="4.83031">
        <ele>155.87</ele>
        <time>2021-02-02T13:10:18Z</time>
      </trkpt>
      <trkpt lat="44.35559" lon="4.83038">
        <ele>157.31</ele>
        <time>2021-02-02T13:10:30Z</time>
      </trkpt>
      <trkpt lat="44.35571" lon="4.83039">
        <ele>158.27</ele>
        <time>2021-02-02T13:10:45Z</time>
      </trkpt>
      <trkpt lat="44.35583" lon="4.83049">
        <ele>159.24</ele>
        <time>2021-02-02T13:10:58Z</time>
      </trkpt>
      <trkpt lat="44.35587" lon="4.83053">
        <ele>160.68</ele>
        <time>2021-02-02T13:11:13Z</time>
      </trkpt>
      <trkpt lat="44.35598" lon="4.83061">
        <ele>161.16</ele>
        <time>2021-02-02T13:11:28Z</time>
      </trkpt>
      <trkpt lat="44.35607" lon="4.83065">
        <ele>161.64</ele>
        <time>2021-02-02T13:11:41Z</time>
      </trkpt>
      <trkpt lat="44.35617" lon="4.83068">
        <ele>163.08</ele>
        <time>2021-02-02T13:11:55Z</time>
      </trkpt>
      <trkpt lat="44.35624" lon="4.83073">
        <ele>163.08</ele>
        <time>2021-02-02T13:12:14Z</time>
      </trkpt>
      <trkpt lat="44.35622" lon="4.83075">
        <ele>163.08</ele>
        <time>2021-02-02T13:12:37Z</time>
      </trkpt>
      <trkpt lat="44.35621" lon="4.83074">
        <ele>163.08</ele>
        <time>2021-02-02T13:13:01Z</time>
      </trkpt>
      <trkpt lat="44.3562" lon="4.8308">
        <ele>163.08</ele>
        <time>2021-02-02T13:13:23Z</time>
      </trkpt>
      <trkpt lat="44.35622" lon="4.83089">
        <ele>163.56</ele>
        <time>2021-02-02T13:13:36Z</time>
      </trkpt>
      <trkpt lat="44.35623" lon="4.83093">
        <ele>163.56</ele>
        <time>2021-02-02T13:13:59Z</time>
      </trkpt>
      <trkpt lat="44.35625" lon="4.83095">
        <ele>163.56</ele>
        <time>2021-02-02T13:14:29Z</time>
      </trkpt>
      <trkpt lat="44.3563" lon="4.83099">
        <ele>163.56</ele>
        <time>2021-02-02T13:14:47Z</time>
      </trkpt>
      <trkpt lat="44.35641" lon="4.83102">
        <ele>164.04</ele>
        <time>2021-02-02T13:15:01Z</time>
      </trkpt>
      <trkpt lat="44.35651" lon="4.83105">
        <ele>165.96</ele>
        <time>2021-02-02T13:15:13Z</time>
      </trkpt>
      <trkpt lat="44.35658" lon="4.83106">
        <ele>166.45</ele>
        <time>2021-02-02T13:15:25Z</time>
      </trkpt>
      <trkpt lat="44.35671" lon="4.83105">
        <ele>166.93</ele>
        <time>2021-02-02T13:15:39Z</time>
      </trkpt>
      <trkpt lat="44.35684" lon="4.83101">
        <ele>168.37</ele>
        <time>2021-02-02T13:15:53Z</time>
      </trkpt>
      <trkpt lat="44.35697" lon="4.8311">
        <ele>169.33</ele>
        <time>2021-02-02T13:16:07Z</time>
      </trkpt>
      <trkpt lat="44.35706" lon="4.83115">
        <ele>169.81</ele>
        <time>2021-02-02T13:16:21Z</time>
      </trkpt>
      <trkpt lat="44.35712" lon="4.83116">
        <ele>171.25</ele>
        <time>2021-02-02T13:16:35Z</time>
      </trkpt>
      <trkpt lat="44.35718" lon="4.83121">
        <ele>171.73</ele>
        <time>2021-02-02T13:16:49Z</time>
      </trkpt>
      <trkpt lat="44.3573" lon="4.83127">
        <ele>173.17</ele>
        <time>2021-02-02T13:17:02Z</time>
      </trkpt>
      <trkpt lat="44.35739" lon="4.83134">
        <ele>174.14</ele>
        <time>2021-02-02T13:17:14Z</time>
      </trkpt>
      <trkpt lat="44.35756" lon="4.83142">
        <ele>175.58</ele>
        <time>2021-02-02T13:17:30Z</time>
      </trkpt>
      <trkpt lat="44.35763" lon="4.83149">
        <ele>176.54</ele>
        <time>2021-02-02T13:17:43Z</time>
      </trkpt>
      <trkpt lat="44.35767" lon="4.83153">
        <ele>178.94</ele>
        <time>2021-02-02T13:18:00Z</time>
      </trkpt>
      <trkpt lat="44.3577" lon="4.83158">
        <ele>179.42</ele>
        <time>2021-02-02T13:18:17Z</time>
      </trkpt>
      <trkpt lat="44.35778" lon="4.83167">
        <ele>180.87</ele>
        <time>2021-02-02T13:18:30Z</time>
      </trkpt>
      <trkpt lat="44.3578" lon="4.83168">
        <ele>180.87</ele>
        <time>2021-02-02T13:18:32Z</time>
      </trkpt>
      <trkpt lat="44.35793" lon="4.83182">
        <ele>181.83</ele>
        <time>2021-02-02T13:18:48Z</time>
      </trkpt>
      <trkpt lat="44.35804" lon="4.8319">
        <ele>182.79</ele>
        <time>2021-02-02T13:19:02Z</time>
      </trkpt>
      <trkpt lat="44.35818" lon="4.83204">
        <ele>183.75</ele>
        <time>2021-02-02T13:19:16Z</time>
      </trkpt>
      <trkpt lat="44.35829" lon="4.83213">
        <ele>185.19</ele>
        <time>2021-02-02T13:19:30Z</time>
      </trkpt>
      <trkpt lat="44.3584" lon="4.83221">
        <ele>186.63</ele>
        <time>2021-02-02T13:19:44Z</time>
      </trkpt>
      <trkpt lat="44.35841" lon="4.83226">
        <ele>187.59</ele>
        <time>2021-02-02T13:19:49Z</time>
      </trkpt>
      <trkpt lat="44.3585" lon="4.83239">
        <ele>187.59</ele>
        <time>2021-02-02T13:20:05Z</time>
      </trkpt>
      <trkpt lat="44.35866" lon="4.83246">
        <ele>188.56</ele>
        <time>2021-02-02T13:20:22Z</time>
      </trkpt>
      <trkpt lat="44.35881" lon="4.83253">
        <ele>189.52</ele>
        <time>2021-02-02T13:20:37Z</time>
      </trkpt>
      <trkpt lat="44.35889" lon="4.83259">
        <ele>190</ele>
        <time>2021-02-02T13:20:49Z</time>
      </trkpt>
      <trkpt lat="44.35905" lon="4.8327">
        <ele>191.44</ele>
        <time>2021-02-02T13:21:05Z</time>
      </trkpt>
      <trkpt lat="44.35917" lon="4.83272">
        <ele>192.4</ele>
        <time>2021-02-02T13:21:18Z</time>
      </trkpt>
      <trkpt lat="44.35928" lon="4.83281">
        <ele>193.36</ele>
        <time>2021-02-02T13:21:31Z</time>
      </trkpt>
      <trkpt lat="44.3594" lon="4.83283">
        <ele>194.32</ele>
        <time>2021-02-02T13:21:46Z</time>
      </trkpt>
      <trkpt lat="44.35952" lon="4.8328">
        <ele>194.8</ele>
        <time>2021-02-02T13:21:59Z</time>
      </trkpt>
      <trkpt lat="44.35965" lon="4.83276">
        <ele>195.77</ele>
        <time>2021-02-02T13:22:13Z</time>
      </trkpt>
      <trkpt lat="44.35981" lon="4.8327">
        <ele>196.25</ele>
        <time>2021-02-02T13:22:30Z</time>
      </trkpt>
      <trkpt lat="44.35996" lon="4.83263">
        <ele>197.69</ele>
        <time>2021-02-02T13:22:47Z</time>
      </trkpt>
      <trkpt lat="44.36007" lon="4.83265">
        <ele>198.65</ele>
        <time>2021-02-02T13:23:01Z</time>
      </trkpt>
      <trkpt lat="44.36022" lon="4.83257">
        <ele>199.61</ele>
        <time>2021-02-02T13:23:18Z</time>
      </trkpt>
      <trkpt lat="44.36037" lon="4.83248">
        <ele>200.09</ele>
        <time>2021-02-02T13:23:34Z</time>
      </trkpt>
      <trkpt lat="44.36055" lon="4.83245">
        <ele>202.01</ele>
        <time>2021-02-02T13:23:51Z</time>
      </trkpt>
      <trkpt lat="44.36067" lon="4.83238">
        <ele>202.49</ele>
        <time>2021-02-02T13:24:05Z</time>
      </trkpt>
      <trkpt lat="44.36081" lon="4.83239">
        <ele>202.98</ele>
        <time>2021-02-02T13:24:20Z</time>
      </trkpt>
      <trkpt lat="44.36095" lon="4.83245">
        <ele>203.94</ele>
        <time>2021-02-02T13:24:35Z</time>
      </trkpt>
      <trkpt lat="44.3611" lon="4.83238">
        <ele>204.9</ele>
        <time>2021-02-02T13:24:48Z</time>
      </trkpt>
      <trkpt lat="44.36123" lon="4.83227">
        <ele>205.86</ele>
        <time>2021-02-02T13:25:04Z</time>
      </trkpt>
      <trkpt lat="44.36141" lon="4.83223">
        <ele>206.82</ele>
        <time>2021-02-02T13:25:19Z</time>
      </trkpt>
      <trkpt lat="44.36155" lon="4.83212">
        <ele>207.3</ele>
        <time>2021-02-02T13:25:35Z</time>
      </trkpt>
      <trkpt lat="44.36168" lon="4.83207">
        <ele>207.78</ele>
        <time>2021-02-02T13:25:47Z</time>
      </trkpt>
      <trkpt lat="44.36184" lon="4.83197">
        <ele>208.26</ele>
        <time>2021-02-02T13:26:05Z</time>
      </trkpt>
      <trkpt lat="44.36201" lon="4.83196">
        <ele>209.7</ele>
        <time>2021-02-02T13:26:21Z</time>
      </trkpt>
      <trkpt lat="44.36215" lon="4.83195">
        <ele>210.19</ele>
        <time>2021-02-02T13:26:35Z</time>
      </trkpt>
      <trkpt lat="44.36228" lon="4.832">
        <ele>211.15</ele>
        <time>2021-02-02T13:26:49Z</time>
      </trkpt>
      <trkpt lat="44.36242" lon="4.83208">
        <ele>212.59</ele>
        <time>2021-02-02T13:27:05Z</time>
      </trkpt>
      <trkpt lat="44.36259" lon="4.83209">
        <ele>214.03</ele>
        <time>2021-02-02T13:27:20Z</time>
      </trkpt>
      <trkpt lat="44.36274" lon="4.83213">
        <ele>214.99</ele>
        <time>2021-02-02T13:27:35Z</time>
      </trkpt>
      <trkpt lat="44.36289" lon="4.83219">
        <ele>215.95</ele>
        <time>2021-02-02T13:27:52Z</time>
      </trkpt>
      <trkpt lat="44.363" lon="4.83222">
        <ele>216.43</ele>
        <time>2021-02-02T13:28:04Z</time>
      </trkpt>
      <trkpt lat="44.36314" lon="4.83228">
        <ele>218.84</ele>
        <time>2021-02-02T13:28:19Z</time>
      </trkpt>
      <trkpt lat="44.3632" lon="4.83229">
        <ele>219.32</ele>
        <time>2021-02-02T13:28:34Z</time>
      </trkpt>
      <trkpt lat="44.36332" lon="4.83237">
        <ele>220.28</ele>
        <time>2021-02-02T13:28:50Z</time>
      </trkpt>
      <trkpt lat="44.36343" lon="4.83237">
        <ele>222.68</ele>
        <time>2021-02-02T13:29:06Z</time>
      </trkpt>
      <trkpt lat="44.36354" lon="4.83234">
        <ele>224.12</ele>
        <time>2021-02-02T13:29:17Z</time>
      </trkpt>
      <trkpt lat="44.3636" lon="4.83233">
        <ele>225.57</ele>
        <time>2021-02-02T13:29:25Z</time>
      </trkpt>
      <trkpt lat="44.36369" lon="4.83229">
        <ele>226.05</ele>
        <time>2021-02-02T13:29:30Z</time>
      </trkpt>
      <trkpt lat="44.36385" lon="4.83223">
        <ele>227.97</ele>
        <time>2021-02-02T13:29:46Z</time>
      </trkpt>
      <trkpt lat="44.36391" lon="4.83226">
        <ele>227.97</ele>
        <time>2021-02-02T13:30:01Z</time>
      </trkpt>
      <trkpt lat="44.36398" lon="4.83237">
        <ele>227.97</ele>
        <time>2021-02-02T13:30:16Z</time>
      </trkpt>
      <trkpt lat="44.36402" lon="4.83251">
        <ele>227.01</ele>
        <time>2021-02-02T13:30:30Z</time>
      </trkpt>
      <trkpt lat="44.36404" lon="4.8327">
        <ele>226.53</ele>
        <time>2021-02-02T13:30:44Z</time>
      </trkpt>
      <trkpt lat="44.36404" lon="4.83271">
        <ele>226.53</ele>
        <time>2021-02-02T13:30:45Z</time>
      </trkpt>
      <trkpt lat="44.36401" lon="4.83296">
        <ele>227.49</ele>
        <time>2021-02-02T13:31:00Z</time>
      </trkpt>
      <trkpt lat="44.364" lon="4.83306">
        <ele>228.45</ele>
        <time>2021-02-02T13:31:06Z</time>
      </trkpt>
      <trkpt lat="44.36396" lon="4.83323">
        <ele>227.97</ele>
        <time>2021-02-02T13:31:22Z</time>
      </trkpt>
      <trkpt lat="44.36394" lon="4.83325">
        <ele>227.97</ele>
        <time>2021-02-02T13:31:39Z</time>
      </trkpt>
      <trkpt lat="44.36394" lon="4.8333">
        <ele>227.97</ele>
        <time>2021-02-02T13:31:57Z</time>
      </trkpt>
      <trkpt lat="44.36392" lon="4.8334">
        <ele>227.97</ele>
        <time>2021-02-02T13:32:16Z</time>
      </trkpt>
      <trkpt lat="44.3639" lon="4.83348">
        <ele>227.97</ele>
        <time>2021-02-02T13:32:32Z</time>
      </trkpt>
      <trkpt lat="44.36386" lon="4.83361">
        <ele>227.97</ele>
        <time>2021-02-02T13:32:46Z</time>
      </trkpt>
      <trkpt lat="44.36375" lon="4.8337">
        <ele>227.01</ele>
        <time>2021-02-02T13:33:02Z</time>
      </trkpt>
      <trkpt lat="44.36373" lon="4.83369">
        <ele>227.01</ele>
        <time>2021-02-02T13:33:23Z</time>
      </trkpt>
      <trkpt lat="44.36368" lon="4.83369">
        <ele>227.01</ele>
        <time>2021-02-02T13:33:58Z</time>
      </trkpt>
      <trkpt lat="44.36368" lon="4.83369">
        <ele>227.01</ele>
        <time>2021-02-02T13:34:29Z</time>
      </trkpt>
      <trkpt lat="44.36362" lon="4.83376">
        <ele>227.01</ele>
        <time>2021-02-02T13:34:50Z</time>
      </trkpt>
      <trkpt lat="44.36357" lon="4.83384">
        <ele>226.53</ele>
        <time>2021-02-02T13:35:10Z</time>
      </trkpt>
      <trkpt lat="44.36354" lon="4.83385">
        <ele>226.53</ele>
        <time>2021-02-02T13:35:13Z</time>
      </trkpt>
      <trkpt lat="44.36334" lon="4.83388">
        <ele>226.53</ele>
        <time>2021-02-02T13:35:31Z</time>
      </trkpt>
      <trkpt lat="44.36314" lon="4.83388">
        <ele>226.53</ele>
        <time>2021-02-02T13:35:47Z</time>
      </trkpt>
      <trkpt lat="44.36298" lon="4.83387">
        <ele>226.53</ele>
        <time>2021-02-02T13:36:00Z</time>
      </trkpt>
      <trkpt lat="44.36288" lon="4.8339">
        <ele>226.53</ele>
        <time>2021-02-02T13:36:09Z</time>
      </trkpt>
      <trkpt lat="44.36265" lon="4.83393">
        <ele>224.61</ele>
        <time>2021-02-02T13:36:28Z</time>
      </trkpt>
      <trkpt lat="44.36248" lon="4.83394">
        <ele>223.64</ele>
        <time>2021-02-02T13:36:42Z</time>
      </trkpt>
      <trkpt lat="44.36224" lon="4.83396">
        <ele>222.2</ele>
        <time>2021-02-02T13:36:59Z</time>
      </trkpt>
      <trkpt lat="44.36206" lon="4.83399">
        <ele>220.76</ele>
        <time>2021-02-02T13:37:12Z</time>
      </trkpt>
      <trkpt lat="44.36195" lon="4.83417">
        <ele>220.76</ele>
        <time>2021-02-02T13:37:27Z</time>
      </trkpt>
      <trkpt lat="44.36185" lon="4.83441">
        <ele>220.28</ele>
        <time>2021-02-02T13:37:41Z</time>
      </trkpt>
      <trkpt lat="44.36183" lon="4.83464">
        <ele>220.28</ele>
        <time>2021-02-02T13:37:54Z</time>
      </trkpt>
      <trkpt lat="44.36182" lon="4.8347">
        <ele>220.28</ele>
        <time>2021-02-02T13:37:57Z</time>
      </trkpt>
      <trkpt lat="44.36181" lon="4.83478">
        <ele>220.28</ele>
        <time>2021-02-02T13:38:02Z</time>
      </trkpt>
      <trkpt lat="44.36182" lon="4.83508">
        <ele>219.32</ele>
        <time>2021-02-02T13:38:18Z</time>
      </trkpt>
      <trkpt lat="44.36186" lon="4.83528">
        <ele>217.4</ele>
        <time>2021-02-02T13:38:31Z</time>
      </trkpt>
      <trkpt lat="44.36187" lon="4.83564">
        <ele>215.47</ele>
        <time>2021-02-02T13:38:51Z</time>
      </trkpt>
      <trkpt lat="44.36184" lon="4.83583">
        <ele>213.07</ele>
        <time>2021-02-02T13:39:07Z</time>
      </trkpt>
      <trkpt lat="44.36185" lon="4.83578">
        <ele>213.07</ele>
        <time>2021-02-02T13:39:12Z</time>
      </trkpt>
      <trkpt lat="44.36195" lon="4.83567">
        <ele>215.47</ele>
        <time>2021-02-02T13:39:29Z</time>
      </trkpt>
      <trkpt lat="44.36202" lon="4.83566">
        <ele>214.03</ele>
        <time>2021-02-02T13:39:37Z</time>
      </trkpt>
      <trkpt lat="44.36217" lon="4.8356">
        <ele>212.11</ele>
        <time>2021-02-02T13:39:52Z</time>
      </trkpt>
      <trkpt lat="44.36233" lon="4.83553">
        <ele>210.67</ele>
        <time>2021-02-02T13:40:06Z</time>
      </trkpt>
      <trkpt lat="44.36247" lon="4.83548">
        <ele>209.7</ele>
        <time>2021-02-02T13:40:20Z</time>
      </trkpt>
      <trkpt lat="44.36262" lon="4.83537">
        <ele>209.7</ele>
        <time>2021-02-02T13:40:37Z</time>
      </trkpt>
      <trkpt lat="44.3628" lon="4.83532">
        <ele>210.67</ele>
        <time>2021-02-02T13:40:52Z</time>
      </trkpt>
      <trkpt lat="44.36296" lon="4.83529">
        <ele>210.67</ele>
        <time>2021-02-02T13:41:05Z</time>
      </trkpt>
      <trkpt lat="44.36314" lon="4.83529">
        <ele>210.67</ele>
        <time>2021-02-02T13:41:19Z</time>
      </trkpt>
      <trkpt lat="44.3633" lon="4.83534">
        <ele>210.67</ele>
        <time>2021-02-02T13:41:35Z</time>
      </trkpt>
      <trkpt lat="44.36344" lon="4.83519">
        <ele>211.15</ele>
        <time>2021-02-02T13:41:51Z</time>
      </trkpt>
      <trkpt lat="44.36356" lon="4.8351">
        <ele>211.63</ele>
        <time>2021-02-02T13:41:59Z</time>
      </trkpt>
      <trkpt lat="44.36364" lon="4.83508">
        <ele>212.11</ele>
        <time>2021-02-02T13:42:13Z</time>
      </trkpt>
      <trkpt lat="44.36368" lon="4.83515">
        <ele>212.11</ele>
        <time>2021-02-02T13:42:33Z</time>
      </trkpt>
      <trkpt lat="44.36373" lon="4.83518">
        <ele>212.11</ele>
        <time>2021-02-02T13:42:39Z</time>
      </trkpt>
      <trkpt lat="44.36376" lon="4.83528">
        <ele>211.15</ele>
        <time>2021-02-02T13:42:48Z</time>
      </trkpt>
      <trkpt lat="44.36377" lon="4.83533">
        <ele>211.15</ele>
        <time>2021-02-02T13:42:51Z</time>
      </trkpt>
      <trkpt lat="44.36391" lon="4.83547">
        <ele>210.67</ele>
        <time>2021-02-02T13:43:06Z</time>
      </trkpt>
      <trkpt lat="44.36397" lon="4.83552">
        <ele>209.7</ele>
        <time>2021-02-02T13:43:11Z</time>
      </trkpt>
      <trkpt lat="44.36405" lon="4.83561">
        <ele>208.74</ele>
        <time>2021-02-02T13:43:19Z</time>
      </trkpt>
      <trkpt lat="44.36414" lon="4.83574">
        <ele>207.78</ele>
        <time>2021-02-02T13:43:31Z</time>
      </trkpt>
      <trkpt lat="44.36424" lon="4.83588">
        <ele>206.34</ele>
        <time>2021-02-02T13:43:46Z</time>
      </trkpt>
      <trkpt lat="44.36425" lon="4.836">
        <ele>204.9</ele>
        <time>2021-02-02T13:43:55Z</time>
      </trkpt>
      <trkpt lat="44.3643" lon="4.83619">
        <ele>202.01</ele>
        <time>2021-02-02T13:44:11Z</time>
      </trkpt>
      <trkpt lat="44.36437" lon="4.83633">
        <ele>199.13</ele>
        <time>2021-02-02T13:44:24Z</time>
      </trkpt>
      <trkpt lat="44.36442" lon="4.83641">
        <ele>195.77</ele>
        <time>2021-02-02T13:44:34Z</time>
      </trkpt>
      <trkpt lat="44.36445" lon="4.83659">
        <ele>193.36</ele>
        <time>2021-02-02T13:44:47Z</time>
      </trkpt>
      <trkpt lat="44.36451" lon="4.83675">
        <ele>190.48</ele>
        <time>2021-02-02T13:45:04Z</time>
      </trkpt>
      <trkpt lat="44.36452" lon="4.83683">
        <ele>189.52</ele>
        <time>2021-02-02T13:45:21Z</time>
      </trkpt>
      <trkpt lat="44.36453" lon="4.83687">
        <ele>187.59</ele>
        <time>2021-02-02T13:45:32Z</time>
      </trkpt>
      <trkpt lat="44.36456" lon="4.83693">
        <ele>187.59</ele>
        <time>2021-02-02T13:45:47Z</time>
      </trkpt>
      <trkpt lat="44.3646" lon="4.83686">
        <ele>188.08</ele>
        <time>2021-02-02T13:46:01Z</time>
      </trkpt>
      <trkpt lat="44.36459" lon="4.83688">
        <ele>189.04</ele>
        <time>2021-02-02T13:46:22Z</time>
      </trkpt>
      <trkpt lat="44.36463" lon="4.83703">
        <ele>189.52</ele>
        <time>2021-02-02T13:46:39Z</time>
      </trkpt>
      <trkpt lat="44.36465" lon="4.83713">
        <ele>188.56</ele>
        <time>2021-02-02T13:46:46Z</time>
      </trkpt>
      <trkpt lat="44.36469" lon="4.83738">
        <ele>186.15</ele>
        <time>2021-02-02T13:47:01Z</time>
      </trkpt>
      <trkpt lat="44.36465" lon="4.83762">
        <ele>185.19</ele>
        <time>2021-02-02T13:47:17Z</time>
      </trkpt>
      <trkpt lat="44.36464" lon="4.83782">
        <ele>181.83</ele>
        <time>2021-02-02T13:47:32Z</time>
      </trkpt>
      <trkpt lat="44.36458" lon="4.83797">
        <ele>179.42</ele>
        <time>2021-02-02T13:47:45Z</time>
      </trkpt>
      <trkpt lat="44.36456" lon="4.83807">
        <ele>178.46</ele>
        <time>2021-02-02T13:48:00Z</time>
      </trkpt>
      <trkpt lat="44.36454" lon="4.83815">
        <ele>178.46</ele>
        <time>2021-02-02T13:48:17Z</time>
      </trkpt>
      <trkpt lat="44.36459" lon="4.8383">
        <ele>180.87</ele>
        <time>2021-02-02T13:48:29Z</time>
      </trkpt>
      <trkpt lat="44.36461" lon="4.83843">
        <ele>182.31</ele>
        <time>2021-02-02T13:48:36Z</time>
      </trkpt>
      <trkpt lat="44.36468" lon="4.83871">
        <ele>183.75</ele>
        <time>2021-02-02T13:48:51Z</time>
      </trkpt>
      <trkpt lat="44.36474" lon="4.8389">
        <ele>184.71</ele>
        <time>2021-02-02T13:49:05Z</time>
      </trkpt>
      <trkpt lat="44.36465" lon="4.83901">
        <ele>184.23</ele>
        <time>2021-02-02T13:49:17Z</time>
      </trkpt>
      <trkpt lat="44.36463" lon="4.83902">
        <ele>183.27</ele>
        <time>2021-02-02T13:49:19Z</time>
      </trkpt>
      <trkpt lat="44.36452" lon="4.8391">
        <ele>182.79</ele>
        <time>2021-02-02T13:49:30Z</time>
      </trkpt>
      <trkpt lat="44.36443" lon="4.83915">
        <ele>182.31</ele>
        <time>2021-02-02T13:49:39Z</time>
      </trkpt>
      <trkpt lat="44.36422" lon="4.83925">
        <ele>181.35</ele>
        <time>2021-02-02T13:49:55Z</time>
      </trkpt>
      <trkpt lat="44.36416" lon="4.83925">
        <ele>181.35</ele>
        <time>2021-02-02T13:49:59Z</time>
      </trkpt>
      <trkpt lat="44.36401" lon="4.83931">
        <ele>181.35</ele>
        <time>2021-02-02T13:50:13Z</time>
      </trkpt>
      <trkpt lat="44.3639" lon="4.83942">
        <ele>182.79</ele>
        <time>2021-02-02T13:50:28Z</time>
      </trkpt>
      <trkpt lat="44.36374" lon="4.83948">
        <ele>185.67</ele>
        <time>2021-02-02T13:50:44Z</time>
      </trkpt>
      <trkpt lat="44.3636" lon="4.83957">
        <ele>188.56</ele>
        <time>2021-02-02T13:50:58Z</time>
      </trkpt>
      <trkpt lat="44.36345" lon="4.8396">
        <ele>190.96</ele>
        <time>2021-02-02T13:51:13Z</time>
      </trkpt>
      <trkpt lat="44.36333" lon="4.83971">
        <ele>190.48</ele>
        <time>2021-02-02T13:51:28Z</time>
      </trkpt>
      <trkpt lat="44.36322" lon="4.83981">
        <ele>190.48</ele>
        <time>2021-02-02T13:51:42Z</time>
      </trkpt>
      <trkpt lat="44.36307" lon="4.83993">
        <ele>190.48</ele>
        <time>2021-02-02T13:51:59Z</time>
      </trkpt>
      <trkpt lat="44.36287" lon="4.84003">
        <ele>190.48</ele>
        <time>2021-02-02T13:52:16Z</time>
      </trkpt>
      <trkpt lat="44.36283" lon="4.84003">
        <ele>189.04</ele>
        <time>2021-02-02T13:52:21Z</time>
      </trkpt>
      <trkpt lat="44.36269" lon="4.84013">
        <ele>186.15</ele>
        <time>2021-02-02T13:52:37Z</time>
      </trkpt>
      <trkpt lat="44.36255" lon="4.84015">
        <ele>183.75</ele>
        <time>2021-02-02T13:52:52Z</time>
      </trkpt>
      <trkpt lat="44.36242" lon="4.84015">
        <ele>180.87</ele>
        <time>2021-02-02T13:53:08Z</time>
      </trkpt>
      <trkpt lat="44.36229" lon="4.84015">
        <ele>177.5</ele>
        <time>2021-02-02T13:53:22Z</time>
      </trkpt>
      <trkpt lat="44.36216" lon="4.84016">
        <ele>174.14</ele>
        <time>2021-02-02T13:53:35Z</time>
      </trkpt>
      <trkpt lat="44.36202" lon="4.84018">
        <ele>170.77</ele>
        <time>2021-02-02T13:53:50Z</time>
      </trkpt>
      <trkpt lat="44.36194" lon="4.84023">
        <ele>167.89</ele>
        <time>2021-02-02T13:54:03Z</time>
      </trkpt>
      <trkpt lat="44.36187" lon="4.84028">
        <ele>164.52</ele>
        <time>2021-02-02T13:54:14Z</time>
      </trkpt>
      <trkpt lat="44.36175" lon="4.84027">
        <ele>162.12</ele>
        <time>2021-02-02T13:54:27Z</time>
      </trkpt>
      <trkpt lat="44.36165" lon="4.84031">
        <ele>159.24</ele>
        <time>2021-02-02T13:54:43Z</time>
      </trkpt>
      <trkpt lat="44.36156" lon="4.84033">
        <ele>156.35</ele>
        <time>2021-02-02T13:54:55Z</time>
      </trkpt>
      <trkpt lat="44.36147" lon="4.84042">
        <ele>153.95</ele>
        <time>2021-02-02T13:55:12Z</time>
      </trkpt>
      <trkpt lat="44.36147" lon="4.84046">
        <ele>155.39</ele>
        <time>2021-02-02T13:55:16Z</time>
      </trkpt>
      <trkpt lat="44.36132" lon="4.84056">
        <ele>157.31</ele>
        <time>2021-02-02T13:55:31Z</time>
      </trkpt>
      <trkpt lat="44.36111" lon="4.84057">
        <ele>156.83</ele>
        <time>2021-02-02T13:55:45Z</time>
      </trkpt>
      <trkpt lat="44.36088" lon="4.84064">
        <ele>156.83</ele>
        <time>2021-02-02T13:56:05Z</time>
      </trkpt>
      <trkpt lat="44.3607" lon="4.84071">
        <ele>156.83</ele>
        <time>2021-02-02T13:56:19Z</time>
      </trkpt>
      <trkpt lat="44.36054" lon="4.84082">
        <ele>155.39</ele>
        <time>2021-02-02T13:56:35Z</time>
      </trkpt>
      <trkpt lat="44.3604" lon="4.84093">
        <ele>154.43</ele>
        <time>2021-02-02T13:56:50Z</time>
      </trkpt>
      <trkpt lat="44.36025" lon="4.84107">
        <ele>153.47</ele>
        <time>2021-02-02T13:57:04Z</time>
      </trkpt>
      <trkpt lat="44.3602" lon="4.84111">
        <ele>153.47</ele>
        <time>2021-02-02T13:57:08Z</time>
      </trkpt>
      <trkpt lat="44.36005" lon="4.84126">
        <ele>152.99</ele>
        <time>2021-02-02T13:57:24Z</time>
      </trkpt>
      <trkpt lat="44.36004" lon="4.8413">
        <ele>154.43</ele>
        <time>2021-02-02T13:57:28Z</time>
      </trkpt>
      <trkpt lat="44.36003" lon="4.84132">
        <ele>154.43</ele>
        <time>2021-02-02T13:57:30Z</time>
      </trkpt>
      <trkpt lat="44.35999" lon="4.84137">
        <ele>154.43</ele>
        <time>2021-02-02T13:57:44Z</time>
      </trkpt>
      <trkpt lat="44.35999" lon="4.84131">
        <ele>154.43</ele>
        <time>2021-02-02T13:57:59Z</time>
      </trkpt>
      <trkpt lat="44.35994" lon="4.84134">
        <ele>153.95</ele>
        <time>2021-02-02T13:58:18Z</time>
      </trkpt>
      <trkpt lat="44.35985" lon="4.84144">
        <ele>153.95</ele>
        <time>2021-02-02T13:58:32Z</time>
      </trkpt>
      <trkpt lat="44.35974" lon="4.84141">
        <ele>152.99</ele>
        <time>2021-02-02T13:58:49Z</time>
      </trkpt>
      <trkpt lat="44.35973" lon="4.8414">
        <ele>152.51</ele>
        <time>2021-02-02T13:59:06Z</time>
      </trkpt>
      <trkpt lat="44.35971" lon="4.84143">
        <ele>152.51</ele>
        <time>2021-02-02T13:59:26Z</time>
      </trkpt>
      <trkpt lat="44.35971" lon="4.84153">
        <ele>152.51</ele>
        <time>2021-02-02T13:59:41Z</time>
      </trkpt>
      <trkpt lat="44.35971" lon="4.84161">
        <ele>152.51</ele>
        <time>2021-02-02T13:59:57Z</time>
      </trkpt>
      <trkpt lat="44.3597" lon="4.84164">
        <ele>152.51</ele>
        <time>2021-02-02T14:00:17Z</time>
      </trkpt>
      <trkpt lat="44.35967" lon="4.84167">
        <ele>152.51</ele>
        <time>2021-02-02T14:00:55Z</time>
      </trkpt>
      <trkpt lat="44.35966" lon="4.84169">
        <ele>152.51</ele>
        <time>2021-02-02T14:01:04Z</time>
      </trkpt>
      <trkpt lat="44.35966" lon="4.84171">
        <ele>152.51</ele>
        <time>2021-02-02T14:01:06Z</time>
      </trkpt>
      <trkpt lat="44.35971" lon="4.84195">
        <ele>152.51</ele>
        <time>2021-02-02T14:01:23Z</time>
      </trkpt>
      <trkpt lat="44.35972" lon="4.84203">
        <ele>152.51</ele>
        <time>2021-02-02T14:01:38Z</time>
      </trkpt>
      <trkpt lat="44.35975" lon="4.84217">
        <ele>152.51</ele>
        <time>2021-02-02T14:01:49Z</time>
      </trkpt>
      <trkpt lat="44.3598" lon="4.84231">
        <ele>152.03</ele>
        <time>2021-02-02T14:01:58Z</time>
      </trkpt>
      <trkpt lat="44.3599" lon="4.84255">
        <ele>151.54</ele>
        <time>2021-02-02T14:02:13Z</time>
      </trkpt>
      <trkpt lat="44.36004" lon="4.84281">
        <ele>151.54</ele>
        <time>2021-02-02T14:02:32Z</time>
      </trkpt>
      <trkpt lat="44.36008" lon="4.84292">
        <ele>151.54</ele>
        <time>2021-02-02T14:02:39Z</time>
      </trkpt>
      <trkpt lat="44.36014" lon="4.84326">
        <ele>150.58</ele>
        <time>2021-02-02T14:02:59Z</time>
      </trkpt>
      <trkpt lat="44.36012" lon="4.84343">
        <ele>149.62</ele>
        <time>2021-02-02T14:03:15Z</time>
      </trkpt>
      <trkpt lat="44.36011" lon="4.84345">
        <ele>149.14</ele>
        <time>2021-02-02T14:03:29Z</time>
      </trkpt>
      <trkpt lat="44.36009" lon="4.84346">
        <ele>149.14</ele>
        <time>2021-02-02T14:03:41Z</time>
      </trkpt>
      <trkpt lat="44.36" lon="4.84349">
        <ele>149.14</ele>
        <time>2021-02-02T14:03:49Z</time>
      </trkpt>
      <trkpt lat="44.35989" lon="4.84355">
        <ele>148.18</ele>
        <time>2021-02-02T14:03:59Z</time>
      </trkpt>
      <trkpt lat="44.35988" lon="4.84373">
        <ele>147.22</ele>
        <time>2021-02-02T14:04:12Z</time>
      </trkpt>
      <trkpt lat="44.35994" lon="4.8438">
        <ele>147.22</ele>
        <time>2021-02-02T14:04:18Z</time>
      </trkpt>
      <trkpt lat="44.35996" lon="4.84384">
        <ele>147.22</ele>
        <time>2021-02-02T14:04:21Z</time>
      </trkpt>
      <trkpt lat="44.3601" lon="4.84402">
        <ele>147.22</ele>
        <time>2021-02-02T14:04:36Z</time>
      </trkpt>
      <trkpt lat="44.36028" lon="4.8442">
        <ele>147.22</ele>
        <time>2021-02-02T14:04:52Z</time>
      </trkpt>
      <trkpt lat="44.36042" lon="4.84436">
        <ele>148.66</ele>
        <time>2021-02-02T14:05:05Z</time>
      </trkpt>
      <trkpt lat="44.36049" lon="4.84448">
        <ele>148.66</ele>
        <time>2021-02-02T14:05:18Z</time>
      </trkpt>
      <trkpt lat="44.36063" lon="4.84465">
        <ele>149.14</ele>
        <time>2021-02-02T14:05:34Z</time>
      </trkpt>
      <trkpt lat="44.3608" lon="4.84487">
        <ele>150.58</ele>
        <time>2021-02-02T14:05:51Z</time>
      </trkpt>
      <trkpt lat="44.36094" lon="4.84506">
        <ele>151.06</ele>
        <time>2021-02-02T14:06:06Z</time>
      </trkpt>
      <trkpt lat="44.3611" lon="4.84523">
        <ele>152.03</ele>
        <time>2021-02-02T14:06:21Z</time>
      </trkpt>
      <trkpt lat="44.36114" lon="4.84528">
        <ele>152.03</ele>
        <time>2021-02-02T14:06:25Z</time>
      </trkpt>
      <trkpt lat="44.36131" lon="4.8455">
        <ele>152.03</ele>
        <time>2021-02-02T14:06:45Z</time>
      </trkpt>
      <trkpt lat="44.36145" lon="4.84571">
        <ele>152.03</ele>
        <time>2021-02-02T14:07:01Z</time>
      </trkpt>
      <trkpt lat="44.36158" lon="4.84591">
        <ele>152.03</ele>
        <time>2021-02-02T14:07:16Z</time>
      </trkpt>
      <trkpt lat="44.36167" lon="4.84608">
        <ele>152.03</ele>
        <time>2021-02-02T14:07:29Z</time>
      </trkpt>
      <trkpt lat="44.36183" lon="4.8464">
        <ele>152.51</ele>
        <time>2021-02-02T14:07:46Z</time>
      </trkpt>
      <trkpt lat="44.36191" lon="4.84657">
        <ele>153.47</ele>
        <time>2021-02-02T14:08:04Z</time>
      </trkpt>
      <trkpt lat="44.36202" lon="4.8467">
        <ele>153.47</ele>
        <time>2021-02-02T14:08:21Z</time>
      </trkpt>
      <trkpt lat="44.36203" lon="4.84671">
        <ele>153.47</ele>
        <time>2021-02-02T14:08:22Z</time>
      </trkpt>
      <trkpt lat="44.36207" lon="4.84678">
        <ele>153.95</ele>
        <time>2021-02-02T14:08:27Z</time>
      </trkpt>
      <trkpt lat="44.36224" lon="4.84703">
        <ele>154.43</ele>
        <time>2021-02-02T14:08:44Z</time>
      </trkpt>
      <trkpt lat="44.36239" lon="4.84722">
        <ele>154.91</ele>
        <time>2021-02-02T14:09:00Z</time>
      </trkpt>
      <trkpt lat="44.36257" lon="4.84741">
        <ele>154.43</ele>
        <time>2021-02-02T14:09:18Z</time>
      </trkpt>
      <trkpt lat="44.36274" lon="4.84756">
        <ele>154.43</ele>
        <time>2021-02-02T14:09:34Z</time>
      </trkpt>
      <trkpt lat="44.36285" lon="4.84773">
        <ele>154.43</ele>
        <time>2021-02-02T14:09:46Z</time>
      </trkpt>
      <trkpt lat="44.36302" lon="4.84788">
        <ele>154.43</ele>
        <time>2021-02-02T14:10:02Z</time>
      </trkpt>
      <trkpt lat="44.36318" lon="4.84805">
        <ele>154.91</ele>
        <time>2021-02-02T14:10:19Z</time>
      </trkpt>
      <trkpt lat="44.36334" lon="4.84829">
        <ele>154.91</ele>
        <time>2021-02-02T14:10:35Z</time>
      </trkpt>
      <trkpt lat="44.36351" lon="4.84851">
        <ele>154.91</ele>
        <time>2021-02-02T14:10:52Z</time>
      </trkpt>
      <trkpt lat="44.36355" lon="4.84857">
        <ele>154.91</ele>
        <time>2021-02-02T14:10:56Z</time>
      </trkpt>
      <trkpt lat="44.36355" lon="4.8487">
        <ele>153.47</ele>
        <time>2021-02-02T14:11:06Z</time>
      </trkpt>
      <trkpt lat="44.36344" lon="4.84899">
        <ele>152.51</ele>
        <time>2021-02-02T14:11:24Z</time>
      </trkpt>
      <trkpt lat="44.36335" lon="4.8493">
        <ele>150.58</ele>
        <time>2021-02-02T14:11:42Z</time>
      </trkpt>
      <trkpt lat="44.36333" lon="4.84946">
        <ele>150.1</ele>
        <time>2021-02-02T14:11:52Z</time>
      </trkpt>
      <trkpt lat="44.36332" lon="4.84949">
        <ele>150.1</ele>
        <time>2021-02-02T14:11:54Z</time>
      </trkpt>
      <trkpt lat="44.36331" lon="4.84957">
        <ele>149.14</ele>
        <time>2021-02-02T14:11:59Z</time>
      </trkpt>
      <trkpt lat="44.36319" lon="4.84983">
        <ele>148.18</ele>
        <time>2021-02-02T14:12:17Z</time>
      </trkpt>
      <trkpt lat="44.36307" lon="4.85005">
        <ele>147.22</ele>
        <time>2021-02-02T14:12:33Z</time>
      </trkpt>
      <trkpt lat="44.36299" lon="4.85031">
        <ele>146.74</ele>
        <time>2021-02-02T14:12:49Z</time>
      </trkpt>
      <trkpt lat="44.36292" lon="4.85057">
        <ele>146.26</ele>
        <time>2021-02-02T14:13:03Z</time>
      </trkpt>
      <trkpt lat="44.36275" lon="4.85078">
        <ele>145.78</ele>
        <time>2021-02-02T14:13:22Z</time>
      </trkpt>
      <trkpt lat="44.36273" lon="4.85078">
        <ele>145.78</ele>
        <time>2021-02-02T14:13:24Z</time>
      </trkpt>
      <trkpt lat="44.36255" lon="4.85077">
        <ele>145.3</ele>
        <time>2021-02-02T14:13:40Z</time>
      </trkpt>
      <trkpt lat="44.36247" lon="4.8508">
        <ele>144.82</ele>
        <time>2021-02-02T14:13:47Z</time>
      </trkpt>
      <trkpt lat="44.36232" lon="4.85109">
        <ele>144.82</ele>
        <time>2021-02-02T14:14:06Z</time>
      </trkpt>
      <trkpt lat="44.3622" lon="4.85142">
        <ele>144.34</ele>
        <time>2021-02-02T14:14:26Z</time>
      </trkpt>
      <trkpt lat="44.36208" lon="4.85169">
        <ele>144.34</ele>
        <time>2021-02-02T14:14:45Z</time>
      </trkpt>
      <trkpt lat="44.36207" lon="4.85172">
        <ele>144.34</ele>
        <time>2021-02-02T14:14:46Z</time>
      </trkpt>
      <trkpt lat="44.36192" lon="4.85183">
        <ele>143.85</ele>
        <time>2021-02-02T14:15:01Z</time>
      </trkpt>
      <trkpt lat="44.36182" lon="4.85182">
        <ele>143.85</ele>
        <time>2021-02-02T14:15:17Z</time>
      </trkpt>
      <trkpt lat="44.36175" lon="4.85193">
        <ele>143.85</ele>
        <time>2021-02-02T14:15:26Z</time>
      </trkpt>
      <trkpt lat="44.36187" lon="4.85216">
        <ele>143.85</ele>
        <time>2021-02-02T14:15:43Z</time>
      </trkpt>
      <trkpt lat="44.36207" lon="4.85241">
        <ele>143.85</ele>
        <time>2021-02-02T14:16:02Z</time>
      </trkpt>
      <trkpt lat="44.36231" lon="4.8527">
        <ele>144.82</ele>
        <time>2021-02-02T14:16:25Z</time>
      </trkpt>
      <trkpt lat="44.36247" lon="4.85283">
        <ele>144.82</ele>
        <time>2021-02-02T14:16:39Z</time>
      </trkpt>
      <trkpt lat="44.36259" lon="4.85297">
        <ele>145.3</ele>
        <time>2021-02-02T14:16:54Z</time>
      </trkpt>
      <trkpt lat="44.36267" lon="4.85303">
        <ele>145.3</ele>
        <time>2021-02-02T14:17:03Z</time>
      </trkpt>
      <trkpt lat="44.36289" lon="4.85327">
        <ele>145.3</ele>
        <time>2021-02-02T14:17:23Z</time>
      </trkpt>
      <trkpt lat="44.36312" lon="4.85353">
        <ele>145.78</ele>
        <time>2021-02-02T14:17:45Z</time>
      </trkpt>
      <trkpt lat="44.36319" lon="4.85359">
        <ele>145.78</ele>
        <time>2021-02-02T14:17:51Z</time>
      </trkpt>
      <trkpt lat="44.36341" lon="4.85384">
        <ele>145.78</ele>
        <time>2021-02-02T14:18:12Z</time>
      </trkpt>
      <trkpt lat="44.36345" lon="4.85389">
        <ele>145.78</ele>
        <time>2021-02-02T14:18:16Z</time>
      </trkpt>
      <trkpt lat="44.36344" lon="4.85397">
        <ele>146.26</ele>
        <time>2021-02-02T14:18:21Z</time>
      </trkpt>
      <trkpt lat="44.36327" lon="4.85415">
        <ele>146.26</ele>
        <time>2021-02-02T14:18:37Z</time>
      </trkpt>
      <trkpt lat="44.36321" lon="4.85429">
        <ele>146.26</ele>
        <time>2021-02-02T14:18:53Z</time>
      </trkpt>
      <trkpt lat="44.36304" lon="4.85455">
        <ele>144.82</ele>
        <time>2021-02-02T14:19:13Z</time>
      </trkpt>
      <trkpt lat="44.36286" lon="4.85471">
        <ele>144.82</ele>
        <time>2021-02-02T14:19:30Z</time>
      </trkpt>
      <trkpt lat="44.36282" lon="4.85475">
        <ele>144.82</ele>
        <time>2021-02-02T14:19:43Z</time>
      </trkpt>
      <trkpt lat="44.36282" lon="4.85474">
        <ele>145.3</ele>
        <time>2021-02-02T14:19:45Z</time>
      </trkpt>
      <trkpt lat="44.36261" lon="4.85473">
        <ele>145.3</ele>
        <time>2021-02-02T14:20:03Z</time>
      </trkpt>
      <trkpt lat="44.36241" lon="4.85475">
        <ele>145.3</ele>
        <time>2021-02-02T14:20:18Z</time>
      </trkpt>
      <trkpt lat="44.36219" lon="4.85484">
        <ele>144.82</ele>
        <time>2021-02-02T14:20:35Z</time>
      </trkpt>
      <trkpt lat="44.36203" lon="4.85507">
        <ele>144.82</ele>
        <time>2021-02-02T14:20:54Z</time>
      </trkpt>
      <trkpt lat="44.36197" lon="4.85506">
        <ele>144.82</ele>
        <time>2021-02-02T14:21:02Z</time>
      </trkpt>
      <trkpt lat="44.36195" lon="4.85508">
        <ele>144.82</ele>
        <time>2021-02-02T14:21:15Z</time>
      </trkpt>
      <trkpt lat="44.36193" lon="4.85513">
        <ele>144.82</ele>
        <time>2021-02-02T14:21:31Z</time>
      </trkpt>
      <trkpt lat="44.3619" lon="4.85512">
        <ele>144.82</ele>
        <time>2021-02-02T14:21:51Z</time>
      </trkpt>
      <trkpt lat="44.3619" lon="4.85513">
        <ele>144.82</ele>
        <time>2021-02-02T14:21:52Z</time>
      </trkpt>
      <trkpt lat="44.36178" lon="4.85542">
        <ele>144.82</ele>
        <time>2021-02-02T14:22:11Z</time>
      </trkpt>
      <trkpt lat="44.36168" lon="4.85568">
        <ele>145.3</ele>
        <time>2021-02-02T14:22:29Z</time>
      </trkpt>
      <trkpt lat="44.36157" lon="4.85599">
        <ele>146.26</ele>
        <time>2021-02-02T14:22:48Z</time>
      </trkpt>
      <trkpt lat="44.36152" lon="4.85612">
        <ele>146.26</ele>
        <time>2021-02-02T14:22:56Z</time>
      </trkpt>
      <trkpt lat="44.36142" lon="4.8564">
        <ele>146.26</ele>
        <time>2021-02-02T14:23:14Z</time>
      </trkpt>
      <trkpt lat="44.3613" lon="4.85668">
        <ele>146.26</ele>
        <time>2021-02-02T14:23:33Z</time>
      </trkpt>
      <trkpt lat="44.36127" lon="4.85684">
        <ele>146.26</ele>
        <time>2021-02-02T14:23:43Z</time>
      </trkpt>
      <trkpt lat="44.36127" lon="4.85693">
        <ele>146.26</ele>
        <time>2021-02-02T14:23:48Z</time>
      </trkpt>
      <trkpt lat="44.3612" lon="4.85721">
        <ele>146.74</ele>
        <time>2021-02-02T14:24:05Z</time>
      </trkpt>
      <trkpt lat="44.36117" lon="4.85726">
        <ele>146.74</ele>
        <time>2021-02-02T14:24:09Z</time>
      </trkpt>
      <trkpt lat="44.36115" lon="4.85738">
        <ele>146.74</ele>
        <time>2021-02-02T14:24:16Z</time>
      </trkpt>
      <trkpt lat="44.36119" lon="4.85744">
        <ele>146.74</ele>
        <time>2021-02-02T14:24:21Z</time>
      </trkpt>
      <trkpt lat="44.36132" lon="4.85769">
        <ele>146.74</ele>
        <time>2021-02-02T14:24:38Z</time>
      </trkpt>
      <trkpt lat="44.36153" lon="4.85788">
        <ele>147.22</ele>
        <time>2021-02-02T14:24:58Z</time>
      </trkpt>
      <trkpt lat="44.36172" lon="4.85811">
        <ele>147.7</ele>
        <time>2021-02-02T14:25:18Z</time>
      </trkpt>
      <trkpt lat="44.36172" lon="4.85814">
        <ele>148.18</ele>
        <time>2021-02-02T14:25:34Z</time>
      </trkpt>
    </trkseg>
  </trk>
</gpx>